GFSMW_sfc_rhum_000.txt.gz
RH
63 63 64 64 60 61 60 63 64 78 92 96 96 96 95 96 96 96 94 94 91 88 88 88 87 88 91 85 83 87 89 87 90 90 87 83 80 79 77 76 76 73 72
62 63 65 68 67 65 61 56 57 62 82 94 96 96 96 97 95 90 78 77 81 82 81 93 95 95 97 95 95 93 89 86 84 94 93 96 88 89 80 79 80 79 74
62 66 68 71 71 69 69 61 60 57 59 68 77 76 78 78 78 77 67 68 66 60 61 66 72 79 90 93 95 96 94 94 85 84 95 95 89 87 79 84 84 81 80
71 64 65 68 70 70 68 66 63 62 60 65 62 70 73 76 79 80 73 67 67 66 61 63 64 69 73 73 76 66 89 90 92 88 83 91 95 97 94 78 87 87 78
68 68 67 66 69 70 72 71 65 65 68 66 70 70 73 77 76 75 69 71 64 67 59 59 64 65 67 74 81 78 79 85 88 88 92 90 90 90 91 90 79 70 70
71 69 68 66 69 72 73 74 68 71 71 69 72 74 75 71 66 69 66 66 64 66 59 58 62 64 66 70 74 79 84 85 87 88 84 86 90 90 92 92 86 87 76
71 70 68 70 71 73 74 69 71 75 75 71 70 72 76 76 73 72 67 61 56 58 55 55 58 58 60 64 70 79 84 83 89 87 85 86 84 85 85 87 83 84 75
70 70 70 72 73 74 76 75 73 73 74 73 74 71 69 68 64 65 64 60 60 60 52 54 54 56 56 59 57 64 76 73 85 87 89 88 77 77 77 87 94 90 80
69 70 72 72 78 80 78 73 70 70 71 72 72 70 64 63 62 63 58 54 54 40 45 52 52 51 49 46 48 57 60 60 71 88 80 77 72 76 81 88 88 92 92
68 72 73 78 83 81 75 69 67 68 68 67 67 60 58 53 51 49 48 47 45 44 45 43 43 42 38 41 43 60 45 51 68 48 59 71 68 74 87 89 84 81 85
68 73 76 83 82 75 69 65 64 63 62 63 59 52 46 45 43 44 45 43 43 43 42 39 41 38 37 38 43 52 39 50 54 48 51 60 63 82 73 82 74 73 81
69 76 81 84 76 68 62 59 58 59 58 58 50 45 42 42 42 42 42 40 40 39 39 37 39 36 36 37 45 39 38 52 48 50 59 67 65 67 73 73 66 74 82
76 83 89 83 76 67 58 54 53 54 54 51 44 39 40 40 40 40 38 37 38 38 36 37 38 36 38 39 35 35 42 45 50 56 48 42 56 56 57 57 65 76 73
74 88 91 83 72 62 56 52 51 49 48 41 38 39 39 39 38 40 40 40 40 40 37 36 35 37 38 37 32 40 45 49 55 47 43 39 43 53 59 56 62 71 80
74 86 88 83 73 63 57 52 50 44 45 37 38 40 41 40 41 43 43 42 42 38 38 37 37 38 38 27 42 44 47 49 50 45 42 47 55 57 54 56 65 70 73
71 88 87 79 73 64 57 51 48 38 38 38 39 41 41 43 45 44 42 42 42 40 40 40 42 45 33 47 51 50 48 47 47 51 50 50 56 57 62 62 60 60 65
72 93 83 78 66 60 55 50 41 34 33 38 39 41 43 45 46 44 44 43 43 44 43 42 42 42 40 50 54 55 48 51 54 54 56 55 50 63 66 65 62 63 64
88 88 80 70 61 58 50 42 32 28 35 38 40 43 46 47 47 48 48 48 46 47 46 45 44 44 41 54 56 58 53 56 56 57 59 62 74 70 61 60 73 89 65
90 82 74 66 57 47 35 29 29 35 37 40 42 44 47 49 50 49 50 48 49 49 48 45 46 49 47 56 59 58 55 56 58 57 59 74 74 63 62 76 83 66 81
77 73 65 55 42 34 31 33 35 36 38 42 45 47 50 52 53 53 51 51 53 50 49 48 50 53 51 58 62 58 54 60 61 62 79 71 58 62 66 56 65 84 71
70 63 55 47 38 32 29 34 36 38 42 46 49 51 52 55 54 54 55 54 56 55 56 54 51 53 55 59 62 61 54 57 66 93 64 58 68 81 60 59 67 69 61
70 58 50 41 34 30 35 37 36 42 47 51 53 54 56 51 45 60 61 64 62 60 58 56 57 57 58 61 62 62 60 61 68 65 58 67 88 61 60 64 66 65 66
64 55 49 40 35 39 39 40 42 48 51 55 55 56 54 53 53 60 61 60 59 61 59 59 65 65 61 63 67 67 69 69 59 58 72 81 62 60 65 66 66 67 76
58 48 39 33 33 38 42 45 48 51 55 58 58 57 59 56 59 60 59 64 62 62 60 66 68 70 69 69 67 65 72 67 64 88 94 63 60 64 65 67 69 73 76
49 41 36 36 40 46 47 49 49 54 54 56 55 57 57 64 62 60 66 60 58 61 63 63 64 72 75 66 60 64 56 62 73 59 58 62 67 73 70 71 71 74 76
45 42 38 42 44 49 51 51 52 54 60 56 52 56 57 65 63 64 61 58 59 60 59 60 60 56 61 63 64 60 68 69 56 52 62 78 81 76 75 78 79 78 80

GFSMW_sfc_rhum_003.txt.gz
RH
52 53 52 51 47 49 49 53 63 73 72 75 74 75 73 63 58 52 48 46 46 46 51 51 49 52 57 59 60 67 70 68 70 91 84 74 66 63 63 61 60 61 61
52 55 54 53 53 52 50 50 51 57 72 78 80 77 61 58 54 53 52 49 45 45 42 48 48 49 51 50 53 56 58 55 55 79 83 84 63 53 68 62 66 61 64
54 55 55 56 56 57 58 55 54 55 56 54 51 51 54 56 55 55 51 51 47 44 45 47 46 48 51 54 56 57 60 64 55 57 68 78 74 78 52 59 60 66 65
57 58 57 57 58 62 64 60 60 57 58 57 57 59 59 58 58 54 51 46 46 45 41 44 46 47 48 52 54 50 60 63 66 61 47 63 70 77 75 45 53 50 58
58 60 61 62 62 64 67 63 60 61 61 58 58 56 57 56 53 49 46 45 42 44 39 40 43 44 46 51 56 56 60 64 67 67 69 68 70 65 79 81 61 55 49
60 61 62 62 63 67 67 66 61 61 60 59 57 57 56 48 46 47 41 39 37 39 34 37 38 39 42 45 47 52 60 62 63 66 68 71 78 76 78 78 71 68 55
61 60 61 62 64 67 67 62 62 62 57 54 52 52 51 47 43 40 35 32 29 34 34 36 33 35 38 38 39 47 56 55 61 66 70 64 58 55 61 69 74 74 60
61 60 62 65 67 68 64 61 60 61 55 51 47 43 42 39 34 34 31 29 30 32 32 33 32 32 30 29 32 39 53 42 54 67 59 54 47 51 55 70 85 84 67
63 62 63 64 67 64 62 58 56 57 56 47 38 35 31 32 32 30 29 30 28 24 28 32 32 31 29 29 31 33 39 36 38 55 49 49 48 58 63 72 79 78 86
63 64 63 69 67 61 59 57 53 53 49 41 32 29 28 27 28 27 28 29 28 29 30 30 29 30 28 28 30 33 34 31 37 39 44 49 52 58 66 62 63 66 71
62 64 68 71 64 57 54 53 50 50 46 36 29 26 26 26 24 24 26 28 28 29 29 28 28 28 27 26 29 29 28 33 40 43 46 50 46 45 48 56 54 56 55
63 66 73 66 55 52 49 49 47 47 43 33 26 26 26 25 24 24 26 26 28 28 29 28 27 27 27 28 29 29 32 38 41 43 49 45 34 44 43 47 52 56 57
69 72 75 62 54 49 45 43 42 43 36 28 26 26 26 26 25 27 27 27 28 29 28 29 29 28 30 31 29 30 36 38 40 40 45 41 40 46 46 51 55 59 55
72 76 75 65 56 49 44 42 39 38 31 27 27 28 28 29 29 30 30 31 30 30 30 29 29 31 31 32 29 38 40 40 40 41 42 41 44 45 55 55 59 55 63
77 79 76 65 56 49 45 43 37 34 30 27 28 31 32 33 32 34 34 33 33 32 32 31 31 32 32 23 41 43 44 44 44 44 43 45 51 58 55 51 60 63 68
75 81 75 65 58 51 47 44 35 30 30 29 31 34 34 35 37 36 35 35 35 33 34 33 36 40 29 48 54 52 48 47 48 50 48 45 54 54 62 65 63 60 71
71 82 75 67 57 52 47 41 29 28 28 30 32 35 37 38 38 37 36 37 36 37 35 33 34 34 34 51 57 58 49 50 49 48 50 49 45 59 69 70 62 81 68
70 84 72 64 54 52 44 34 28 27 29 32 33 37 40 40 39 38 38 38 37 38 37 36 36 37 36 56 59 62 50 50 48 48 49 51 58 67 58 58 95 57 52
78 78 65 56 53 44 35 28 27 29 31 34 36 38 40 41 40 39 39 38 39 39 38 36 38 39 40 55 62 58 50 48 49 47 48 62 61 58 62 92 63 58 60
75 70 58 49 40 31 27 28 27 28 31 36 40 41 42 42 41 41 40 40 42 41 40 41 40 48 42 57 63 56 48 50 53 55 65 64 52 61 85 57 58 73 67
64 56 49 41 33 28 29 28 29 30 36 41 42 42 42 42 40 41 42 44 44 45 46 44 41 42 47 52 62 60 51 55 66 81 60 49 63 97 66 59 57 66 60
65 53 43 36 33 31 28 30 30 36 41 44 44 42 41 41 39 47 48 48 49 49 49 45 46 48 50 58 60 62 62 62 66 61 52 62 95 61 59 58 63 64 64
64 53 46 38 35 35 32 31 35 41 44 45 42 41 41 41 44 48 48 48 47 51 50 50 55 58 53 55 64 66 69 67 58 57 89 61 54 55 58 62 62 65 69
60 52 43 35 36 35 34 38 40 43 45 43 42 41 42 45 44 48 50 52 54 54 52 56 58 62 59 60 59 60 62 60 75 90 52 51 53 61 62 59 59 64 68
58 46 39 39 36 37 39 41 41 45 42 42 42 42 44 50 52 51 52 51 50 54 55 56 58 65 67 58 60 59 50 64 74 53 48 49 62 65 60 60 62 67 68
49 49 42 36 37 41 42 43 44 45 47 43 40 44 49 54 53 54 54 58 60 60 58 60 60 55 60 63 60 59 65 64 59 53 55 70 73 72 68 67 70 71 74

GFSMW_sfc_rhum_006.txt.gz
RH
35 36 36 32 34 35 39 44 51 50 46 50 51 48 46 41 39 38 35 33 32 32 34 33 32 33 34 35 34 35 38 35 34 38 38 36 33 34 31 52 39 37 40
32 36 35 35 34 34 34 40 48 52 54 54 48 44 42 40 39 39 37 34 32 31 31 34 34 35 36 36 38 40 42 37 35 41 44 41 36 28 34 34 30 30 31
33 35 36 38 38 40 41 41 44 44 41 40 40 41 43 41 40 38 36 34 31 29 30 32 30 31 33 35 36 36 40 41 35 37 39 47 48 48 38 36 32 33 33
34 37 37 39 42 47 48 44 43 43 42 40 40 40 39 41 39 35 34 30 29 26 24 26 27 27 28 31 32 28 34 38 39 36 31 37 39 52 55 36 37 32 35
37 40 42 46 46 50 51 46 43 42 41 40 37 36 37 36 34 30 28 27 25 24 22 22 24 24 24 27 29 29 32 34 33 34 40 40 40 40 50 56 40 34 29
39 41 44 44 48 52 50 46 42 42 40 38 36 37 36 31 29 28 23 20 18 20 21 21 22 22 25 26 26 28 34 35 30 31 34 41 45 44 39 37 39 38 34
40 43 45 45 47 51 51 44 41 41 37 36 33 32 32 29 25 21 19 18 15 19 21 22 21 21 23 23 24 26 33 32 32 35 37 36 31 29 29 32 42 44 44
38 42 44 46 49 50 46 42 40 40 35 32 29 25 25 22 19 19 17 15 16 17 20 21 20 20 19 21 21 23 25 26 28 30 34 34 29 30 33 45 57 67 55
41 42 45 46 47 45 43 42 42 39 33 28 23 21 18 19 19 17 17 17 17 16 18 19 19 20 20 20 21 19 21 23 25 28 32 32 30 33 36 38 46 52 66
42 43 44 46 44 43 43 41 38 35 30 25 20 18 16 16 16 16 17 18 17 18 19 19 18 19 18 18 20 21 21 21 24 26 28 32 30 34 31 32 33 37 45
42 43 43 46 44 42 42 38 38 34 27 22 18 17 16 16 15 15 16 17 17 18 18 18 18 18 17 17 18 19 20 23 26 26 28 31 32 32 30 32 34 36 38
41 42 46 48 43 41 39 37 35 32 26 20 16 16 17 16 15 15 17 16 17 17 19 19 18 17 17 18 18 20 21 24 26 27 29 30 25 35 33 33 37 40 40
44 44 49 46 41 38 36 34 32 28 22 18 16 16 17 16 17 18 18 18 18 19 18 19 19 18 21 21 20 18 23 25 27 29 31 32 33 37 36 38 39 42 41
45 46 50 44 39 36 33 31 29 25 21 18 18 19 19 20 20 21 21 20 20 21 21 20 20 22 21 22 18 26 29 30 30 32 35 34 36 38 46 44 47 48 56
47 50 51 45 40 37 34 31 27 25 19 18 19 23 24 23 23 23 23 23 24 23 22 23 22 22 24 17 32 37 37 37 36 36 34 36 43 52 50 45 55 59 59
46 50 52 47 43 38 35 34 28 22 19 18 22 25 24 24 25 26 25 25 25 24 24 24 25 29 20 38 48 51 44 40 39 39 36 34 43 42 56 59 61 57 68
47 52 53 49 44 39 36 32 23 19 19 20 22 24 25 25 26 25 24 26 25 25 26 24 24 23 24 40 53 58 47 43 39 37 37 35 32 50 51 55 56 71 75
48 54 54 52 44 38 34 26 20 19 21 21 22 24 26 26 25 24 24 24 24 25 25 25 24 26 25 44 53 62 45 40 38 36 37 38 46 52 47 49 88 62 49
48 52 53 49 42 38 30 23 21 20 20 22 22 24 24 25 23 24 24 24 26 27 26 25 27 27 28 46 56 56 43 38 38 38 38 48 52 51 56 93 86 60 52
58 57 50 42 38 31 23 23 20 19 21 23 24 26 26 25 23 26 27 27 27 26 26 27 25 35 31 46 57 53 42 42 44 44 49 56 47 59 76 57 55 70 57
57 49 43 39 32 23 22 22 21 21 23 26 26 26 24 24 24 26 28 30 29 27 27 27 27 30 37 41 55 58 47 49 57 63 55 44 69 71 56 54 50 59 56
54 44 40 34 26 24 22 22 22 23 26 27 27 25 23 24 27 36 35 32 28 28 28 29 33 36 35 48 52 58 58 60 60 57 48 74 62 56 54 55 61 60 60
50 42 38 33 28 24 22 22 22 26 27 26 24 24 24 24 28 32 35 33 29 30 32 35 40 40 40 39 53 56 61 60 50 48 88 58 55 54 54 57 58 59 59
53 45 40 35 30 27 28 23 26 28 28 25 24 23 25 30 30 28 29 33 32 35 37 42 44 46 45 45 46 52 54 54 56 82 55 49 51 53 54 51 51 55 59
54 46 42 36 32 28 25 26 28 28 26 24 23 25 26 30 31 29 31 36 38 45 52 51 53 55 56 53 59 58 49 57 67 56 48 44 46 55 53 55 56 59 61
52 45 39 36 29 26 26 28 29 29 29 26 25 28 33 33 30 31 34 42 49 55 57 60 59 52 59 63 61 60 63 71 59 52 50 57 64 65 62 61 62 64 70

GFSMW_sfc_rhum_009.txt.gz
RH
28 30 30 29 31 35 40 42 42 43 43 47 47 45 45 41 38 35 32 30 29 28 32 32 31 34 35 34 33 34 38 38 35 38 40 38 33 29 33 31 31 34 33
28 30 30 28 28 32 38 42 47 48 44 43 44 42 41 38 38 37 32 29 27 27 28 31 30 30 33 32 33 35 37 35 33 38 42 43 34 31 32 32 32 32 35
28 30 31 32 33 36 40 42 41 43 43 43 42 41 40 40 36 34 33 30 25 23 24 25 24 26 30 33 34 33 37 40 35 34 32 42 43 41 37 34 31 29 29
27 30 32 35 38 43 44 40 40 39 38 37 37 36 37 37 34 32 30 27 25 22 20 20 23 23 25 28 31 24 33 38 39 35 24 30 32 45 45 32 34 28 24
30 33 36 40 42 46 46 42 39 38 37 34 33 33 34 33 30 27 26 22 21 21 20 19 22 22 24 26 28 31 31 35 32 33 36 32 36 33 37 39 34 28 26
32 34 38 41 46 48 46 44 37 36 34 34 32 33 34 30 29 26 23 20 18 19 20 20 21 22 24 26 29 30 34 35 33 32 32 30 33 35 33 34 35 36 36
34 38 41 42 46 48 45 38 36 36 33 32 31 30 31 28 26 22 20 18 16 18 20 21 20 20 24 25 26 29 31 30 33 35 30 28 31 30 30 34 40 45 43
34 38 39 42 46 45 40 37 35 34 30 29 27 25 25 23 20 19 18 16 16 17 18 20 19 18 18 20 22 26 28 27 31 36 34 31 32 30 31 38 46 53 46
36 37 39 41 44 42 39 38 35 33 29 26 23 21 19 20 20 18 17 17 16 14 16 18 18 18 18 19 21 21 23 24 27 31 34 32 30 33 34 38 42 46 52
35 37 39 40 40 39 39 38 34 32 28 23 21 19 16 16 16 16 16 17 15 16 18 17 17 17 17 17 20 22 22 23 24 25 29 30 30 31 34 37 37 39 45
36 37 38 40 40 40 40 37 34 30 26 22 19 18 16 15 14 15 15 15 15 16 16 16 17 17 17 17 19 20 22 22 25 27 29 32 31 33 33 37 39 42 43
35 35 37 42 41 40 38 36 34 29 25 20 17 17 17 16 16 16 16 14 15 16 16 16 17 17 18 19 20 21 21 22 26 28 31 32 26 39 39 39 42 44 43
35 35 38 43 40 39 37 34 32 28 22 19 17 17 18 18 18 17 17 16 17 17 17 18 19 19 22 22 21 20 20 26 29 31 34 35 36 42 42 43 45 48 44
37 37 41 42 38 36 35 32 30 25 22 19 18 20 20 20 19 20 20 19 18 20 20 21 21 24 22 24 23 23 30 33 34 36 37 36 38 40 47 47 52 50 62
38 39 43 41 38 36 33 30 28 24 20 19 19 23 22 21 21 22 22 21 22 22 22 22 25 25 25 21 29 35 39 43 42 40 36 36 45 48 46 40 53 60 68
36 39 42 41 39 36 34 32 29 25 20 19 21 22 21 22 22 24 23 23 24 24 23 25 29 36 23 36 41 43 45 46 45 43 38 35 44 41 48 54 55 55 63
36 41 43 43 40 37 35 32 26 22 20 20 20 21 22 22 23 22 22 24 24 24 26 25 26 26 25 38 43 49 47 49 44 40 38 37 31 45 51 57 57 65 66
40 43 44 45 41 36 34 29 22 22 22 21 20 20 21 21 21 21 22 22 22 25 26 26 25 26 25 39 44 51 48 44 42 38 39 41 46 53 54 53 85 92 70
38 44 44 44 41 38 32 26 24 23 21 20 20 20 20 21 21 22 22 23 25 27 27 25 26 26 25 40 45 51 47 45 43 40 42 47 51 54 69 74 81 52 50
49 51 48 43 41 35 28 27 25 22 20 21 21 21 21 22 22 22 24 26 27 26 24 26 24 30 26 41 49 48 46 49 48 49 54 57 50 64 70 59 51 66 65
51 47 45 43 37 29 26 27 23 20 22 23 22 21 21 21 21 24 27 31 29 28 26 25 24 25 31 36 48 52 47 50 56 67 54 48 60 69 59 54 50 62 58
53 45 43 37 28 26 27 25 23 22 23 23 22 22 21 20 24 36 39 35 30 28 26 26 28 32 32 43 47 52 55 55 58 55 49 61 77 55 54 53 57 59 59
48 42 39 33 30 26 25 24 23 22 22 23 22 21 21 22 26 36 37 34 28 28 29 30 36 41 41 42 51 55 57 59 52 51 64 75 55 53 52 56 58 57 62
47 42 39 36 33 27 26 22 23 23 23 23 22 21 23 27 27 28 30 31 29 33 36 42 50 53 53 52 50 51 59 57 61 75 69 54 52 53 55 55 55 59 62
51 46 44 40 35 30 25 23 24 24 25 22 21 23 25 28 31 29 29 29 31 38 47 53 56 62 62 56 58 58 52 58 70 60 53 51 53 60 59 59 60 62 64
53 50 46 41 35 28 24 24 25 26 25 24 25 28 30 32 31 30 32 38 42 45 47 51 52 49 56 59 60 59 61 69 59 54 56 62 68 70 66 65 66 68 75

GFSMW_sfc_rhum_012.txt.gz
RH
40 41 44 48 53 58 58 62 63 62 65 73 60 58 62 57 54 48 40 39 38 41 44 49 45 46 49 47 40 46 48 52 50 56 42 48 42 38 32 28 37 36 33
43 43 42 46 51 59 63 66 65 60 58 59 60 59 59 57 55 52 44 36 33 34 30 38 41 39 48 44 44 46 54 52 51 54 51 56 43 39 34 38 36 37 33
43 44 47 50 54 62 61 59 61 60 58 55 52 54 61 59 56 54 49 39 30 29 31 33 35 37 44 48 45 46 47 59 53 46 48 60 60 42 44 37 42 26 31
40 42 47 54 61 65 62 58 56 57 57 57 59 58 57 56 54 49 45 39 31 29 28 30 33 36 42 41 43 35 46 52 56 53 34 45 46 49 51 47 32 38 26
41 46 52 56 60 65 65 59 54 52 50 48 48 54 53 52 48 43 36 31 32 30 29 30 32 34 41 40 39 41 43 51 51 52 53 46 50 41 44 50 41 34 32
44 49 56 59 66 67 64 58 51 50 49 48 47 49 48 46 43 37 36 32 34 35 30 29 31 32 35 38 41 39 41 44 45 48 47 46 43 40 42 44 41 41 36
46 54 61 66 66 66 60 53 51 48 46 45 43 42 41 37 33 33 32 27 30 33 30 30 29 32 32 34 35 38 40 42 43 47 42 44 40 36 40 40 44 46 40
49 54 59 64 66 61 54 50 47 45 41 39 36 35 34 36 32 28 29 27 28 28 26 28 28 26 27 30 30 38 40 33 44 41 45 41 39 39 39 41 50 51 47
49 52 58 62 63 58 53 50 46 42 38 35 31 29 27 27 28 26 26 28 25 18 24 27 26 26 26 27 28 33 33 34 36 42 44 40 37 38 41 47 43 53 59
48 51 54 59 58 55 55 48 43 40 35 31 28 25 23 22 22 24 23 23 22 23 24 25 25 25 25 26 27 33 33 30 33 31 33 33 35 38 40 45 46 47 53
47 50 53 56 56 56 55 50 43 37 33 30 27 25 24 22 22 22 22 21 22 23 24 24 24 25 26 25 28 30 28 29 31 31 32 36 36 38 42 44 50 51 51
46 50 54 56 58 58 54 50 43 37 33 27 25 26 25 24 24 23 22 22 22 23 24 25 26 26 27 29 30 30 30 31 34 36 39 40 34 45 44 49 49 54 51
50 51 56 57 58 57 52 50 44 36 29 26 26 26 28 27 26 25 25 24 25 26 27 28 30 30 33 32 32 30 32 37 40 43 47 47 46 47 49 50 50 50 47
46 50 56 58 56 54 50 46 41 33 29 26 28 30 29 29 28 28 28 28 28 29 31 32 31 34 33 32 31 33 40 43 45 49 51 49 48 48 51 48 50 47 60
48 51 59 58 56 53 49 43 38 32 27 27 32 32 30 29 29 30 32 31 32 32 34 33 35 36 34 27 34 37 44 48 52 52 51 49 50 51 47 41 50 58 60
48 52 56 55 53 52 47 41 38 31 28 29 32 30 29 28 30 32 32 33 35 35 34 35 39 46 28 38 41 40 43 49 54 57 51 46 47 47 52 54 55 55 73
50 53 57 57 54 50 43 42 36 30 28 29 27 27 28 29 31 30 30 33 34 34 36 37 36 37 36 39 42 44 42 54 55 54 51 45 39 52 52 60 67 94 81
52 55 61 60 54 50 45 37 31 30 31 29 26 27 28 28 29 30 32 33 34 36 38 38 38 37 31 39 41 45 48 53 55 53 51 51 52 56 58 64 83 84 62
59 62 63 57 52 48 34 30 32 31 30 28 26 25 26 29 30 32 33 34 37 41 41 36 35 35 31 40 42 45 48 50 54 52 53 59 58 57 59 70 92 62 65
67 64 57 51 49 40 34 34 32 30 27 27 28 27 28 30 30 32 34 38 44 39 35 34 33 38 32 44 46 46 45 52 57 56 65 64 54 58 71 66 56 79 59
62 59 57 56 46 37 36 34 29 28 30 29 28 28 28 30 30 35 40 45 46 42 41 36 33 34 40 45 50 53 48 54 58 84 64 55 61 79 67 57 56 58 58
61 56 50 40 35 35 32 31 31 31 30 30 29 30 30 27 28 46 53 50 46 44 41 38 39 42 46 53 56 58 57 57 67 64 56 62 73 58 57 57 59 61 60
57 49 41 40 37 36 33 33 33 30 30 30 30 30 29 29 35 44 50 50 43 43 42 42 48 56 55 57 61 60 61 64 57 58 70 81 61 57 56 59 60 60 66
56 49 44 43 41 35 31 33 32 30 30 30 31 30 32 38 39 41 44 47 44 44 44 49 57 60 59 60 59 54 61 59 66 74 88 60 57 58 60 60 59 64 65
59 54 52 49 43 38 33 33 31 31 33 33 32 34 38 42 46 44 44 44 44 46 46 53 56 60 61 57 55 55 50 57 66 65 61 56 59 68 64 64 65 66 70
65 64 61 51 44 37 32 33 33 34 36 36 39 44 48 52 50 48 44 45 44 47 48 48 49 47 52 54 55 56 58 64 61 59 61 70 74 75 71 70 75 79 85

GFSMW_sfc_rhum_015.txt.gz
RH
48 47 52 63 67 71 72 72 72 75 60 58 57 56 64 49 46 39 37 37 39 38 41 47 43 48 50 47 43 48 52 54 55 60 40 56 48 42 27 30 38 36 38
52 52 54 67 71 78 80 74 71 68 62 60 64 64 56 58 54 49 37 32 32 33 32 40 41 42 48 44 46 48 54 59 56 57 62 58 48 38 30 40 27 42 28
50 54 61 70 70 72 73 69 66 60 57 52 51 54 60 62 60 53 45 34 30 32 33 35 38 43 49 49 46 48 49 62 59 54 50 59 64 43 50 29 43 25 35
49 53 60 68 70 73 70 68 66 61 59 56 57 60 59 59 58 56 46 38 30 30 32 33 36 40 46 42 44 39 48 53 56 58 43 50 54 62 55 49 32 40 30
47 54 63 66 70 69 68 64 60 58 59 60 57 57 58 56 54 45 41 36 33 31 32 33 35 36 42 40 40 41 43 50 52 54 58 50 55 52 54 49 49 37 36
52 60 65 69 73 68 63 60 55 55 54 55 54 52 49 45 42 38 37 38 40 38 32 30 32 34 37 39 42 41 40 41 47 47 52 49 45 45 43 42 42 44 37
59 66 70 70 72 68 62 55 52 53 49 46 44 42 39 36 34 34 32 31 32 34 31 32 31 33 33 35 36 37 38 40 43 46 48 45 48 46 38 45 45 44 41
61 67 70 73 71 64 58 54 51 48 44 41 40 38 35 37 34 31 31 30 30 29 28 29 29 28 28 30 32 39 41 35 45 42 43 41 51 44 43 44 51 56 45
62 68 69 69 71 64 58 52 48 44 39 36 33 30 30 30 30 28 29 30 27 21 26 27 27 27 28 29 31 36 36 38 41 45 48 49 38 40 46 51 51 54 67
61 65 66 69 66 61 58 50 45 41 37 32 28 25 25 26 26 26 25 24 24 25 26 26 27 27 29 30 31 37 38 37 41 35 42 42 39 42 44 49 60 56 58
58 63 66 63 63 62 52 50 44 37 33 30 27 26 26 25 25 25 24 24 24 25 26 26 28 29 31 31 34 35 34 36 40 44 43 46 45 48 49 51 52 57 61
56 62 64 63 62 59 55 46 42 37 34 30 28 28 28 27 27 26 26 26 26 26 27 29 31 31 33 35 37 37 39 40 46 48 52 51 45 56 54 54 56 58 54
60 63 64 61 60 60 52 48 43 36 31 29 30 31 30 29 29 28 28 27 28 29 31 32 35 35 38 40 39 39 39 43 49 54 56 56 56 60 59 57 55 55 48
56 62 62 61 62 58 55 51 40 33 30 31 33 32 31 31 30 30 31 32 31 32 34 35 36 40 39 40 40 39 45 50 50 58 59 56 59 59 59 53 54 50 58
57 62 62 62 62 58 56 45 37 32 30 34 35 34 34 31 31 33 34 33 34 35 37 38 39 42 40 28 37 39 47 54 58 60 54 55 57 56 52 47 54 57 63
54 60 60 59 60 56 50 38 36 33 33 36 37 35 33 30 33 33 33 34 36 36 37 39 44 50 31 42 43 41 43 51 58 61 54 55 56 54 57 59 60 60 68
58 62 59 58 57 50 42 38 33 33 33 34 33 32 31 30 32 31 31 35 36 38 40 42 43 43 42 42 43 44 40 56 62 58 59 55 47 59 62 65 62 76 82
57 61 61 61 54 47 41 34 32 33 35 33 31 31 30 30 30 32 34 36 37 41 44 45 44 43 35 43 44 47 47 56 61 62 60 61 62 69 59 56 73 91 77
69 73 65 55 48 42 33 32 34 35 34 32 30 28 28 29 31 34 36 37 42 49 48 44 44 45 41 45 48 48 51 51 54 56 60 66 66 62 57 69 96 85 80
61 57 52 45 37 34 32 32 34 33 32 30 30 28 30 31 32 35 36 41 48 48 45 43 44 45 40 53 54 55 54 59 58 64 74 68 56 58 73 70 67 80 60
60 54 49 42 38 37 32 34 32 31 32 31 30 30 30 31 32 36 43 49 52 51 51 47 44 45 49 57 58 60 54 58 70 84 67 59 64 87 61 59 55 59 62
61 51 47 43 41 39 31 32 33 34 33 32 31 31 32 28 30 47 52 52 53 52 50 50 50 53 58 59 58 59 59 61 63 65 62 68 86 59 59 59 62 62 62
52 43 40 42 42 35 32 35 35 33 33 32 32 32 31 32 40 46 50 54 50 50 48 48 52 57 56 67 60 61 62 60 55 64 74 76 62 60 60 64 64 64 67
48 42 41 42 40 37 35 35 34 33 33 33 33 32 38 45 44 47 50 52 53 56 52 55 57 60 57 58 57 53 56 56 69 81 69 60 58 62 63 61 61 64 72
53 48 46 44 41 36 36 36 35 34 36 33 35 42 47 50 53 52 51 54 54 55 52 56 57 60 59 54 53 54 52 60 67 61 59 57 62 69 65 64 65 70 74
62 60 56 49 45 38 38 38 38 37 37 38 43 49 54 58 58 57 56 50 49 50 50 51 52 50 54 56 56 57 63 63 62 61 62 71 77 77 71 73 80 78 81

GFSMW_sfc_rhum_018.txt.gz
RH
51 50 55 66 76 79 80 83 83 62 56 55 56 60 50 40 38 38 37 38 37 38 42 46 46 50 47 48 43 50 53 56 61 57 53 56 52 37 25 39 36 42 30
58 58 70 81 80 87 88 89 81 72 65 59 64 58 55 48 47 41 35 34 34 35 35 41 45 46 47 44 46 50 53 60 62 58 67 60 55 43 27 43 32 36 29
57 64 80 83 88 86 84 78 72 67 61 54 49 49 46 56 52 46 40 34 32 35 36 38 42 46 48 48 48 50 50 58 58 54 49 55 62 46 50 33 42 29 42
57 65 77 83 83 83 80 72 65 60 56 51 48 44 47 53 61 53 43 35 32 34 35 37 38 41 45 42 44 41 48 51 53 58 44 53 53 57 58 53 35 43 30
54 66 72 73 77 77 78 75 69 65 68 64 56 58 60 61 59 49 40 34 34 34 34 34 36 38 44 42 40 42 42 50 51 54 59 56 57 56 68 52 47 33 35
56 69 74 72 75 72 70 68 65 67 65 60 60 57 54 50 46 46 44 42 40 39 33 31 34 35 38 40 43 41 40 42 45 47 51 51 50 42 53 44 39 41 38
63 74 74 71 69 66 65 60 59 61 59 56 53 48 44 37 34 35 37 34 34 34 31 32 31 34 35 37 38 39 40 42 44 46 47 49 50 53 52 42 44 46 43
64 70 70 69 64 61 60 57 52 52 48 45 42 38 36 39 36 33 33 32 31 31 30 30 29 29 30 33 35 42 43 38 46 43 46 50 53 53 49 48 55 60 51
70 72 71 66 63 61 57 53 49 46 41 38 36 35 34 33 33 31 30 31 29 23 28 28 29 30 31 32 34 39 39 41 44 48 52 50 51 53 50 53 58 64 73
71 74 68 66 62 60 58 52 44 40 37 33 30 30 30 29 28 28 26 26 26 26 28 28 30 31 33 34 35 42 42 41 45 42 48 51 54 53 54 59 60 61 67
74 73 69 66 65 59 52 49 43 37 33 30 28 28 28 27 27 26 26 26 27 27 28 30 32 33 35 35 38 40 40 41 45 48 52 57 58 56 57 62 63 65 64
70 72 70 68 63 56 52 47 42 35 32 29 28 30 30 28 28 28 28 28 28 29 30 33 35 36 38 39 42 44 44 46 47 52 58 61 48 61 63 66 66 65 62
72 74 72 67 62 57 52 44 40 36 32 31 33 33 32 30 30 30 30 30 31 32 33 35 38 39 43 44 44 45 46 46 50 56 61 65 61 64 66 66 66 64 55
69 73 72 67 63 55 48 44 40 32 33 34 34 34 33 32 32 33 33 33 33 34 37 39 40 43 44 44 45 45 49 52 52 58 65 65 64 65 67 60 60 57 63
71 71 70 68 65 58 52 41 35 33 34 35 36 37 36 34 35 35 35 35 37 37 38 39 42 46 43 30 43 46 52 56 58 60 61 60 58 60 57 52 58 61 73
67 67 66 68 64 58 49 37 35 35 35 38 40 39 36 34 36 34 35 35 37 37 39 42 48 54 34 45 46 46 47 52 57 61 59 58 59 60 62 63 63 60 63
65 67 66 65 61 57 41 36 33 36 37 39 38 36 35 33 34 32 33 36 36 40 44 46 48 48 47 46 49 51 49 58 63 64 60 58 51 66 70 71 62 64 78
64 66 64 66 60 50 39 35 33 35 38 38 35 35 34 32 33 33 34 36 38 43 48 50 49 49 39 49 53 57 59 64 64 63 65 67 72 71 58 56 82 94 77
67 67 64 60 49 42 34 33 36 38 37 35 34 30 30 31 32 34 35 36 42 50 52 50 49 49 49 50 56 58 61 61 65 62 68 75 69 62 62 85 85 72 65
66 62 55 47 41 36 32 34 37 37 36 33 32 32 33 32 32 34 37 42 50 52 50 47 46 50 48 53 57 56 57 64 64 67 80 70 59 64 76 57 61 74 62
54 48 44 41 38 35 33 36 36 35 34 34 33 33 32 32 33 38 47 51 53 53 52 49 50 50 52 60 58 58 55 60 71 85 66 62 73 68 60 60 62 63 63
52 45 43 42 42 37 33 34 35 37 36 36 34 34 34 30 36 49 53 53 55 55 56 56 56 55 58 62 58 58 58 60 58 63 69 78 69 61 61 63 66 67 66
52 45 43 44 39 36 32 36 39 38 36 35 35 34 32 41 45 49 54 55 56 60 60 60 62 60 57 66 62 60 59 57 58 71 70 70 62 62 63 67 67 66 70
47 44 43 41 41 38 38 38 38 37 35 35 34 38 45 52 53 53 50 57 64 66 63 62 62 66 60 60 58 54 58 61 73 70 69 62 61 64 66 63 62 66 69
50 46 43 42 42 40 38 38 38 36 36 36 39 46 50 56 58 55 58 63 63 62 61 65 64 65 64 58 56 56 56 60 61 62 60 60 64 72 67 66 67 68 71
53 51 49 43 42 41 40 41 40 38 38 39 44 53 60 62 59 62 64 55 52 53 52 53 54 55 57 58 59 60 62 63 64 63 66 74 78 79 74 75 77 76 79

GFSMW_sfc_rhum_021.txt.gz
RH
49 52 54 60 72 80 77 68 82 66 56 55 54 47 46 41 38 35 33 34 38 40 43 50 48 48 48 47 43 49 53 56 62 56 54 57 53 41 33 46 38 40 32
55 54 63 81 84 86 89 92 76 67 62 58 60 56 48 40 36 35 34 36 37 37 37 46 47 45 45 45 46 50 51 56 62 60 68 57 49 45 26 42 40 38 39
54 61 77 86 90 92 95 88 78 71 64 54 46 42 36 35 37 34 40 37 36 38 39 41 44 45 48 49 49 50 48 53 53 57 43 45 56 58 49 33 46 31 46
50 61 85 90 92 92 92 81 72 64 54 49 44 39 40 41 49 47 40 37 36 36 38 39 40 43 46 44 44 42 49 51 53 59 42 54 56 56 58 52 34 45 32
54 67 80 84 90 90 88 80 69 64 62 54 46 48 52 53 56 43 37 34 36 35 35 36 37 40 46 43 41 42 42 51 51 55 59 58 57 59 68 47 53 36 32
56 68 86 84 87 87 84 77 70 73 67 60 58 50 51 48 44 46 44 41 40 40 34 33 36 36 39 40 43 40 40 43 45 48 50 52 50 52 56 53 44 43 36
68 83 84 83 82 81 80 74 68 72 66 62 58 55 50 43 42 43 44 38 34 36 33 33 32 34 35 38 39 40 41 43 45 46 47 50 54 55 58 50 51 49 44
66 74 79 78 76 73 72 70 68 65 60 56 52 45 40 42 40 38 37 34 33 33 31 31 30 30 32 35 37 44 45 42 48 45 48 53 53 55 55 56 62 67 56
67 74 76 74 70 68 66 64 61 56 51 45 40 39 37 36 35 32 32 34 32 26 29 29 30 32 33 35 37 42 42 45 47 51 53 53 54 59 63 65 65 72 80
71 75 73 69 64 63 60 55 50 46 42 37 34 34 32 31 32 31 29 28 28 28 29 31 32 34 36 37 39 45 46 46 48 46 50 55 59 63 68 71 68 70 77
72 76 70 65 64 60 54 49 42 37 35 32 31 31 31 29 28 27 28 28 29 29 30 33 35 37 39 40 43 45 44 45 49 49 54 59 62 68 63 67 71 74 74
76 72 71 67 60 56 52 47 40 34 32 30 29 31 31 30 29 29 29 29 30 32 33 36 38 39 42 44 46 47 48 50 52 52 58 62 48 68 68 71 72 72 69
80 77 72 65 61 56 50 42 37 33 31 30 32 33 32 31 31 32 32 32 33 35 37 39 41 43 47 47 47 47 49 52 54 58 62 63 67 70 68 68 70 72 62
78 77 73 67 62 54 47 41 38 32 33 34 34 35 34 34 34 35 35 36 36 38 40 41 43 46 47 46 44 49 54 58 55 60 64 66 68 69 70 67 66 69 67
82 78 74 70 64 55 47 40 36 34 34 35 38 39 38 37 38 38 38 38 39 38 41 44 46 50 44 31 51 55 58 60 61 62 63 62 63 60 57 53 60 61 70
78 76 72 69 62 53 44 36 35 37 36 38 42 42 40 38 39 38 37 38 38 40 45 48 51 54 35 47 51 52 63 63 64 66 63 64 62 64 63 65 63 60 64
75 75 72 67 61 52 39 36 35 39 38 41 42 40 38 38 38 35 35 37 39 45 49 49 50 49 50 47 52 55 65 68 71 69 65 63 53 67 75 75 66 80 84
73 72 71 69 62 47 40 36 37 38 41 43 40 39 38 36 36 35 35 37 42 46 51 50 51 52 43 52 53 56 67 72 72 71 70 70 71 79 63 66 95 77 63
72 72 70 65 52 43 36 36 38 41 41 40 38 34 33 34 34 35 37 40 46 51 52 53 51 52 53 55 56 58 65 65 71 68 68 71 75 65 64 79 72 63 63
74 71 61 53 45 38 34 35 39 39 39 38 36 35 36 34 35 36 42 46 52 52 52 48 51 55 55 58 58 57 58 65 64 73 80 72 61 64 73 57 62 77 65
62 55 52 48 40 35 34 38 38 39 38 37 36 36 35 35 37 45 50 53 56 54 56 55 58 58 59 67 60 59 57 61 63 61 63 66 72 68 62 61 64 67 70
53 47 45 42 39 36 34 37 37 39 38 38 38 37 36 35 43 52 55 53 57 61 63 65 64 61 65 62 60 59 59 57 58 67 72 72 69 63 63 64 68 68 66
50 45 42 41 40 38 33 37 42 40 40 38 37 36 43 46 49 52 55 57 64 68 69 69 71 64 58 66 62 62 60 58 62 68 65 67 64 64 64 69 68 67 70
49 42 40 40 42 40 40 39 42 39 37 37 39 47 57 55 57 54 52 63 70 73 70 68 66 72 64 64 62 60 63 64 64 66 72 62 63 66 68 65 63 66 68
49 44 42 42 46 42 41 42 40 37 36 39 44 52 55 59 59 57 62 69 68 68 69 70 68 69 69 61 59 58 59 61 62 64 62 63 67 72 69 68 67 68 70
50 48 48 46 46 43 43 43 41 37 38 42 46 62 61 65 62 66 67 54 53 55 54 54 56 56 58 59 61 62 63 64 67 66 70 77 79 80 76 77 78 77 81

GFSMW_sfc_rhum_024.txt.gz
RH
47 48 50 56 64 72 74 92 90 71 61 59 58 55 52 44 39 36 33 33 34 41 47 50 46 47 46 45 42 47 48 56 62 50 51 55 54 51 43 43 40 41 37
55 51 58 68 76 80 81 92 84 69 64 61 64 79 46 39 36 36 33 33 35 40 41 45 46 42 45 44 46 46 47 51 63 52 66 52 43 43 29 45 40 41 42
55 54 62 75 87 89 92 91 81 74 66 54 48 48 38 33 35 33 36 36 39 41 42 43 44 44 49 51 50 48 46 49 52 60 42 42 47 62 50 41 52 37 44
56 54 62 84 91 92 95 90 79 71 58 50 46 41 45 35 36 33 36 40 39 40 40 40 42 44 48 44 45 42 50 49 53 54 43 52 59 55 57 49 37 46 33
53 56 64 68 91 95 96 90 77 67 61 53 45 46 45 40 37 34 34 38 38 38 38 38 39 42 48 43 41 42 43 52 50 54 57 58 58 61 70 50 53 38 35
58 56 70 91 95 96 93 82 71 71 62 55 54 44 37 33 34 37 39 42 43 43 36 36 38 39 41 41 44 42 40 44 45 49 51 53 50 54 58 58 49 50 44
64 80 92 92 95 95 89 80 72 73 66 54 48 40 34 32 34 38 40 38 38 39 35 33 33 36 38 40 41 41 42 44 46 47 48 52 55 57 60 61 59 58 50
71 78 82 85 90 91 84 76 73 71 63 54 54 48 41 43 42 44 39 36 36 36 33 33 32 32 34 37 39 46 47 44 50 48 50 53 55 57 58 64 67 69 60
79 81 86 86 88 86 81 76 71 66 60 53 47 44 41 40 39 36 35 37 34 29 31 31 32 34 36 37 39 45 45 48 50 52 55 56 56 61 65 70 74 73 78
78 83 88 87 83 78 75 68 59 56 49 44 39 37 35 33 33 33 33 31 30 31 32 34 34 37 38 40 43 48 49 49 52 49 53 55 60 64 70 75 75 75 79
75 84 86 79 73 68 64 58 48 44 40 36 34 32 32 31 29 29 31 30 32 32 34 36 37 39 41 44 46 47 46 50 53 54 56 58 61 69 72 75 74 76 78
79 84 79 72 67 62 56 51 42 38 35 33 31 32 31 30 30 31 32 32 33 35 37 38 39 41 45 47 47 48 49 54 56 58 61 63 48 68 72 72 73 76 73
88 82 74 69 63 56 49 41 37 34 32 31 31 32 34 33 33 34 34 34 36 38 39 40 43 45 49 47 46 47 53 57 60 63 66 67 69 73 73 73 74 74 68
87 81 73 66 59 52 44 38 34 32 33 32 32 34 36 36 37 38 38 38 39 39 41 44 46 49 48 44 43 54 61 64 62 64 67 68 70 72 73 73 72 62 67
82 76 74 65 58 50 43 36 34 34 32 34 37 41 40 41 42 41 41 41 39 40 44 45 48 50 44 32 55 61 66 70 68 69 66 66 67 63 60 56 63 64 70
78 74 69 63 56 48 41 34 35 37 35 38 43 43 43 42 43 41 41 39 41 44 47 49 52 53 36 48 51 54 70 69 68 72 68 70 67 68 65 67 64 63 80
78 74 70 62 55 46 37 36 36 39 40 42 43 43 42 41 42 38 36 38 41 47 51 51 51 51 51 51 54 54 65 70 76 74 71 67 56 69 72 78 72 82 75
78 75 70 65 54 43 39 38 38 40 43 44 42 42 42 40 38 35 35 39 46 51 54 53 52 53 46 56 55 57 68 74 75 73 75 76 73 76 69 66 98 80 64
74 74 69 62 48 41 37 38 41 44 43 42 42 39 38 37 35 35 39 46 52 54 56 53 53 57 62 58 58 59 71 72 71 68 74 78 72 66 65 83 79 66 66
75 75 64 52 45 40 36 38 42 41 42 42 39 38 37 34 35 40 47 52 56 53 52 50 57 61 63 62 60 58 65 77 66 69 70 64 63 64 79 59 64 78 67
70 61 57 51 42 36 35 40 40 42 42 39 38 38 36 36 44 51 55 56 56 57 61 60 67 66 66 72 61 59 60 64 62 62 67 72 68 66 62 62 65 69 71
60 51 47 43 39 37 36 39 41 43 39 39 38 37 41 41 47 55 56 55 62 66 68 72 69 66 70 65 62 60 61 59 61 67 70 66 66 64 64 66 70 69 67
53 47 44 43 42 39 34 39 44 39 38 38 39 45 48 51 51 53 56 61 69 73 74 75 76 69 60 69 64 64 63 61 64 63 65 68 66 65 66 70 70 69 71
48 44 42 42 44 41 39 39 39 38 36 39 48 58 56 58 58 56 54 68 74 76 74 74 71 78 68 68 64 66 66 66 65 68 70 66 64 68 68 66 64 66 69
47 43 42 43 45 40 41 40 39 36 37 46 50 56 59 61 61 61 65 71 74 72 74 73 71 73 71 62 59 60 60 62 63 64 66 65 69 75 70 69 68 69 70
47 46 45 44 44 42 43 43 40 39 43 47 57 64 62 67 65 70 70 57 54 55 55 54 56 56 58 59 62 62 63 64 68 69 73 80 80 81 77 78 78 78 82

GFSMW_sfc_rhum_027.txt.gz
RH
43 41 42 38 41 47 53 60 78 84 69 63 64 64 60 55 60 40 36 36 40 37 37 33 31 30 30 29 25 30 30 34 33 27 27 29 30 34 32 24 26 29 28
45 44 43 44 46 48 57 73 79 72 65 62 63 74 70 51 41 40 42 40 35 36 32 31 31 31 32 31 29 30 31 33 38 29 35 29 21 25 19 26 27 26 26
41 44 44 47 54 60 67 74 74 68 64 63 56 57 56 51 37 36 46 43 36 36 31 32 31 33 34 35 35 34 34 32 37 36 21 27 27 33 27 24 27 24 26
38 40 44 49 58 63 77 76 71 65 58 57 54 59 57 52 36 40 38 35 33 32 31 32 31 33 34 34 33 31 35 33 35 35 28 30 30 31 29 28 26 28 24
42 44 47 48 55 74 81 77 70 62 55 54 54 69 68 50 35 34 33 33 32 32 32 31 33 32 33 33 31 33 33 35 30 34 35 34 33 34 38 32 30 28 27
47 46 47 51 68 83 85 79 70 62 55 53 56 54 58 35 35 35 34 30 31 32 31 31 32 32 32 33 34 35 35 34 33 32 33 31 30 28 33 33 33 36 31
42 53 63 71 80 87 86 76 69 64 55 50 46 40 35 29 30 30 32 31 29 30 30 28 27 29 34 34 34 34 35 34 34 36 32 33 34 34 36 40 41 42 37
51 58 63 72 77 86 82 71 68 63 53 48 42 34 32 32 32 31 30 27 27 27 27 27 27 27 29 30 31 35 35 36 36 39 38 36 36 37 37 43 48 50 37
54 61 68 73 78 84 78 71 67 60 53 48 42 37 38 38 36 30 28 28 27 25 26 26 28 29 30 31 32 31 32 34 37 39 41 40 38 39 42 45 47 51 55
52 68 73 77 81 80 75 68 61 58 50 44 39 37 34 31 29 28 28 27 25 26 27 28 28 30 30 31 33 33 35 35 37 37 40 41 41 42 44 47 49 50 56
54 64 76 81 83 77 71 63 57 51 43 38 34 31 30 28 25 25 25 25 25 26 27 28 29 30 31 32 31 32 35 38 41 42 43 45 45 45 45 48 51 53 53
70 80 84 77 75 70 62 56 49 42 38 32 29 28 27 26 24 24 25 24 26 28 29 29 30 31 34 32 31 33 38 42 45 46 48 48 43 51 49 50 52 54 54
84 80 76 74 70 64 54 46 39 34 31 28 27 27 27 26 25 26 26 27 29 30 30 32 33 33 35 33 31 36 42 46 48 49 50 51 50 51 50 52 56 57 55
82 77 73 66 60 53 45 37 33 30 29 28 28 29 28 28 28 29 29 30 30 31 34 34 34 36 34 32 35 44 48 50 50 52 52 50 52 53 58 59 61 61 61
83 75 70 61 52 45 38 33 31 30 28 29 31 33 32 32 32 33 33 32 33 35 36 35 37 36 33 27 43 49 51 54 54 53 51 50 56 64 60 54 58 57 63
82 74 66 56 49 42 36 33 32 31 30 33 36 36 35 34 36 35 33 36 38 37 36 37 40 41 30 48 52 51 49 53 54 54 50 51 61 61 65 65 64 64 68
78 70 61 54 47 38 35 36 31 32 34 36 36 37 35 34 36 32 33 37 37 38 38 37 37 37 38 52 54 54 50 53 53 53 53 52 50 61 60 67 70 73 87
76 68 58 50 41 34 32 33 33 35 37 38 37 36 35 34 32 30 33 35 37 38 38 38 38 40 40 57 55 57 52 54 53 54 54 56 58 60 64 58 94 82 54
71 64 56 46 39 35 33 34 37 38 38 37 36 33 31 31 29 33 35 37 39 39 39 38 42 44 48 59 58 56 52 52 54 53 54 58 54 62 62 75 78 56 54
72 64 52 43 38 35 33 35 38 36 37 36 34 32 31 29 32 36 39 42 41 38 38 40 45 54 48 61 60 55 51 55 55 53 50 60 60 63 71 59 59 69 55
66 54 47 42 37 34 33 37 36 38 38 34 33 31 31 33 38 41 41 42 42 42 44 48 50 50 53 54 61 60 52 55 57 55 55 54 64 68 63 63 56 62 69
60 50 45 41 36 34 33 36 40 37 34 33 33 34 38 37 42 46 45 44 47 47 50 55 52 50 51 59 60 61 60 58 55 59 55 56 66 65 64 63 70 69 67
51 45 43 41 38 35 34 39 39 34 33 32 39 42 42 42 43 44 48 46 51 52 56 57 58 54 50 52 63 64 63 60 59 56 62 67 67 64 63 68 70 70 60
48 43 41 41 41 37 37 36 35 32 32 39 44 44 45 47 46 44 47 51 55 57 57 58 57 58 55 55 53 54 54 61 59 64 65 64 62 66 66 61 58 56 59
46 43 42 42 42 37 36 34 33 32 38 44 49 51 50 49 49 49 51 55 56 58 55 56 55 57 58 53 58 59 56 58 60 61 59 54 58 62 59 60 60 61 61
45 44 42 41 39 36 37 36 36 36 40 45 48 51 51 52 52 54 52 54 52 54 53 53 53 50 57 60 63 63 63 64 67 62 60 66 68 69 66 70 70 69 76

GFSMW_sfc_rhum_030.txt.gz
RH
25 26 27 26 27 26 27 28 32 38 44 52 56 66 68 68 57 61 48 44 35 35 36 25 23 23 23 22 19 21 24 26 23 22 20 21 21 22 25 23 18 22 21
21 22 26 26 27 28 27 30 35 42 49 52 53 58 61 66 64 61 48 41 43 37 35 25 24 25 25 25 23 24 25 25 25 22 27 23 18 18 21 20 19 16 19
20 20 20 24 27 28 31 34 39 49 53 52 56 58 54 54 54 55 61 47 40 30 26 30 24 26 26 28 27 27 26 26 27 25 17 23 24 22 18 20 18 19 18
22 22 21 21 23 28 36 40 46 53 55 58 56 57 58 64 52 45 52 45 39 42 29 26 24 26 26 27 27 23 25 24 27 27 19 21 20 24 24 20 19 18 19
20 20 24 24 23 32 42 48 51 54 56 56 54 56 62 55 48 45 38 34 30 27 25 24 25 25 24 25 25 26 25 24 21 26 26 24 25 22 27 28 22 20 20
21 23 23 26 27 34 50 54 55 56 55 56 54 58 63 52 43 35 44 43 35 27 24 24 25 24 25 26 27 27 28 26 25 23 24 23 23 20 22 24 25 26 23
20 21 26 32 35 38 56 58 55 56 55 55 56 59 56 57 39 32 40 33 28 26 26 24 22 24 27 27 27 27 29 28 27 29 24 23 24 24 25 28 30 30 27
33 25 25 31 37 46 54 56 55 55 53 54 56 54 51 41 31 33 33 26 25 24 23 22 21 21 22 24 25 26 27 29 28 32 30 27 26 26 27 33 37 38 30
41 35 29 32 37 46 53 55 54 53 52 51 44 38 36 36 40 37 28 29 24 21 21 21 21 22 23 23 24 22 25 26 28 30 32 32 29 31 32 34 36 41 43
44 41 33 34 40 45 52 54 51 51 49 45 38 35 35 40 41 29 30 26 21 20 22 21 21 22 22 23 25 25 26 25 26 28 32 33 31 32 33 35 36 38 42
51 47 38 40 48 51 57 56 52 50 46 41 36 34 36 33 35 26 26 22 20 20 20 20 21 21 22 23 23 23 25 27 30 33 35 36 36 36 34 35 37 39 39
58 56 51 52 57 60 59 56 51 46 43 37 34 32 29 27 23 23 21 19 20 20 20 20 20 21 24 22 20 22 27 31 34 35 38 37 33 40 36 36 39 40 41
58 58 61 60 60 59 56 52 46 40 36 33 30 29 27 23 22 21 20 20 20 21 21 22 23 23 25 23 21 26 30 33 35 38 40 40 37 40 39 40 43 45 41
61 61 62 60 59 56 52 46 40 39 36 29 28 27 24 23 22 22 22 22 21 22 24 24 25 26 24 24 26 32 35 36 36 39 42 40 39 41 46 47 48 42 49
65 69 62 58 56 54 45 39 36 33 28 28 29 27 25 24 24 24 24 22 23 25 26 26 27 26 24 21 36 37 38 39 38 38 38 38 44 58 59 51 50 50 55
58 70 60 55 54 46 40 34 31 31 39 35 31 28 27 27 28 26 25 27 29 28 27 27 32 35 23 44 51 50 40 38 39 38 37 37 46 47 57 58 61 61 72
60 67 57 53 49 40 34 33 36 36 35 33 29 29 28 28 28 25 26 30 29 29 29 28 28 27 28 48 53 54 43 41 39 40 40 39 37 48 45 54 60 67 71
61 62 52 49 43 39 33 37 34 34 31 32 30 28 28 27 25 24 27 28 28 29 27 28 28 29 29 53 55 57 42 40 40 40 41 43 44 45 50 50 83 77 49
60 53 46 40 36 35 29 28 29 29 30 30 29 26 25 24 23 26 27 28 29 29 28 27 30 30 30 47 58 55 41 38 40 40 40 44 45 53 60 71 83 47 44
53 48 41 36 32 29 27 28 28 30 30 29 27 24 23 22 24 28 31 31 28 28 26 29 30 37 32 42 57 53 40 40 41 39 39 49 49 58 62 57 53 60 45
52 42 37 34 31 28 27 28 29 31 29 27 25 24 23 24 28 31 31 31 29 28 28 30 30 32 35 37 54 58 48 45 46 45 41 40 54 62 62 63 51 52 61
53 42 39 35 31 28 27 29 32 30 27 26 24 25 28 30 34 39 37 33 30 29 29 31 29 29 31 41 48 58 60 57 49 48 43 46 62 64 64 60 63 68 67
46 39 36 34 30 27 28 33 30 28 26 26 29 30 32 33 35 37 39 32 32 30 31 31 32 32 33 34 48 56 56 55 52 49 56 62 62 62 56 58 67 66 51
43 38 36 34 33 30 31 31 29 25 26 28 30 31 32 33 33 32 35 34 32 31 33 34 35 36 35 36 38 44 45 51 51 57 56 54 56 55 55 50 48 48 51
41 38 36 36 34 30 29 28 26 25 27 28 31 34 35 34 35 35 36 34 35 43 40 38 39 41 42 41 56 57 52 54 56 59 48 44 43 49 47 48 51 52 54
40 39 37 35 32 29 28 27 26 27 29 31 32 33 34 36 35 34 33 49 49 51 50 50 49 44 51 57 62 64 63 64 65 57 49 50 54 56 55 59 61 63 71

GFSMW_sfc_rhum_033.txt.gz
RH
20 20 22 22 19 19 21 21 23 26 29 37 44 48 63 85 83 70 60 53 47 38 37 33 32 26 26 26 23 25 28 31 28 33 34 31 26 24 26 28 24 24 26
18 19 20 21 23 22 22 23 24 26 31 37 45 49 71 81 70 67 60 47 41 38 32 31 37 30 29 28 26 28 32 31 29 29 36 35 27 23 25 23 20 20 23
18 16 16 19 24 24 25 25 25 30 36 40 46 56 66 64 66 69 71 61 49 40 33 32 30 31 32 36 35 34 31 33 32 27 21 33 35 27 26 25 23 21 23
17 18 17 17 18 25 31 31 29 33 40 47 52 62 67 68 66 73 68 60 40 44 34 42 34 33 31 33 33 27 31 30 33 32 20 23 23 30 30 27 25 22 20
16 16 19 21 20 24 34 36 34 36 45 50 52 61 58 58 60 64 62 50 44 36 32 39 36 30 30 29 28 31 28 27 23 29 30 25 29 25 32 35 30 24 23
15 16 18 18 21 27 33 42 39 42 48 53 56 56 59 57 56 58 51 45 40 37 30 30 31 29 30 32 32 31 31 27 26 26 25 25 25 24 25 27 29 29 28
23 25 21 18 24 29 32 41 44 48 50 56 52 52 59 55 57 51 48 47 42 38 33 30 28 30 33 32 31 31 32 29 30 32 28 24 25 24 26 30 34 36 32
27 31 32 25 24 32 33 39 46 49 50 53 53 53 53 54 51 50 42 41 43 35 30 28 26 25 25 26 27 31 30 30 32 36 36 30 29 28 28 36 42 45 40
34 34 35 31 21 26 34 42 47 48 50 52 52 56 52 50 43 39 36 33 31 28 26 26 25 24 24 24 25 23 25 27 29 34 38 35 32 34 36 38 40 47 52
35 37 36 32 25 26 33 43 44 47 49 51 54 54 45 38 38 34 35 35 30 25 26 26 23 23 23 23 24 26 25 26 27 29 31 35 34 35 37 40 40 41 47
38 39 42 34 29 31 36 44 45 48 50 51 44 40 39 38 36 34 33 29 25 26 24 23 22 22 22 22 22 22 23 26 29 32 34 36 37 37 37 40 41 43 44
39 42 48 43 41 41 45 48 48 48 49 42 39 38 36 34 33 31 29 25 25 23 22 21 20 20 22 21 20 21 23 28 31 33 36 37 30 44 39 39 42 44 43
41 44 48 50 50 52 53 51 48 47 42 39 38 36 34 33 29 29 26 27 24 21 21 21 22 22 24 22 20 23 26 30 32 35 37 39 39 45 42 43 45 49 44
38 51 54 52 51 54 53 50 46 42 41 37 34 37 33 29 27 28 27 28 22 22 23 23 23 24 23 23 24 30 33 35 34 36 39 38 41 42 49 52 56 48 53
42 58 56 55 58 55 51 43 40 38 35 34 34 31 28 27 31 28 28 25 25 25 24 25 26 26 24 21 36 37 38 37 37 37 35 37 44 49 51 50 56 57 60
38 58 59 55 57 52 45 43 40 35 33 31 32 30 30 30 31 28 27 31 30 27 26 28 34 40 21 44 50 51 44 39 38 40 36 36 44 42 49 54 54 54 63
54 59 60 56 52 43 40 35 34 37 39 40 36 36 38 38 39 29 30 33 30 29 29 28 28 26 27 43 51 53 46 43 40 39 40 40 34 47 46 50 53 59 65
66 60 55 52 43 35 34 40 46 47 50 48 48 42 32 32 29 28 30 29 29 30 28 28 27 28 29 45 51 56 47 39 39 38 40 42 44 45 48 52 72 76 68
58 54 46 41 37 39 40 45 48 50 50 52 59 40 29 27 28 29 29 28 29 30 29 27 29 29 27 43 51 54 45 38 39 37 39 42 44 48 53 60 74 61 55
49 44 40 36 38 43 48 53 54 54 58 44 28 25 24 26 28 30 31 30 29 29 27 29 28 30 31 31 44 52 44 42 43 41 42 47 45 51 56 57 61 68 57
52 46 48 51 64 69 72 73 56 51 38 27 25 25 26 27 30 32 31 31 28 28 28 31 27 27 29 35 44 53 50 50 52 54 46 43 51 57 60 60 59 60 58
43 41 40 36 33 31 28 29 32 29 28 27 26 29 30 29 35 44 41 35 31 30 29 29 28 30 28 34 39 50 56 56 53 51 48 51 59 60 60 60 60 62 64
42 35 33 32 30 29 30 32 30 28 28 30 31 32 34 36 41 45 46 36 31 29 29 28 31 32 34 33 39 44 51 54 51 50 56 60 59 58 55 54 58 57 55
42 36 33 32 33 31 32 31 29 29 30 31 32 32 34 33 33 34 38 35 31 28 30 32 35 38 37 36 39 46 52 54 55 61 62 58 56 50 50 49 49 52 55
39 36 34 35 34 31 30 28 29 28 30 30 32 34 34 33 35 34 36 34 33 41 42 41 42 44 46 43 55 58 56 59 61 61 60 53 46 53 51 52 55 58 61
39 39 37 35 32 29 29 29 28 29 30 33 33 34 34 34 35 35 35 48 46 47 50 49 50 47 51 55 62 64 64 63 64 62 56 54 60 62 59 62 66 69 76

GFSMW_sfc_rhum_036.txt.gz
RH
27 27 28 30 29 26 27 30 36 37 38 48 54 61 64 80 79 82 74 67 62 62 56 50 42 42 41 40 35 40 42 46 43 46 44 43 34 37 40 38 38 34 32
27 24 26 31 32 33 30 29 35 34 34 38 53 64 95 96 92 86 79 72 61 54 45 44 41 40 37 33 36 41 46 46 44 40 48 48 42 36 31 42 26 28 30
26 24 24 25 30 29 30 32 33 37 36 47 61 81 81 86 86 82 83 71 68 63 52 49 44 41 45 47 44 42 42 50 46 37 35 44 49 41 38 35 34 28 34
24 23 22 23 24 28 29 35 39 38 45 55 63 80 81 90 92 88 80 72 67 56 55 56 55 47 48 47 45 41 42 43 48 46 29 34 35 44 46 42 37 35 26
25 25 27 26 27 30 41 33 38 42 49 50 64 81 89 83 80 72 70 62 62 47 43 43 41 41 49 38 39 40 39 39 41 44 44 37 42 40 47 51 45 38 36
27 28 28 29 32 33 38 50 45 48 58 60 72 77 80 79 83 73 64 64 60 56 44 43 42 40 41 43 45 43 39 40 40 40 38 38 39 38 40 44 44 43 40
31 33 43 44 38 33 42 43 56 54 67 74 80 72 70 73 77 71 62 53 50 54 50 51 41 41 43 45 44 45 41 41 45 43 44 40 38 38 40 44 53 54 50
35 45 45 49 49 40 42 43 56 61 70 76 73 70 68 68 67 65 56 52 52 50 42 42 38 34 38 40 42 46 45 43 46 43 47 47 46 44 43 50 59 58 60
46 46 47 49 48 44 46 45 60 64 72 75 70 71 63 65 62 56 50 51 45 41 39 37 37 31 36 36 36 40 39 37 41 44 46 49 48 49 51 54 57 65 62
46 49 49 51 47 44 44 48 60 66 72 70 71 62 64 57 53 47 46 39 38 30 30 34 32 34 34 32 35 36 34 34 40 42 40 46 49 51 54 57 59 60 68
51 50 52 58 55 47 47 57 65 68 66 76 61 57 52 47 41 37 33 32 30 30 32 28 33 33 32 32 33 32 32 33 38 41 45 48 48 54 55 57 59 62 64
45 50 56 60 62 59 57 64 65 59 68 51 49 49 43 37 36 33 33 31 35 28 28 26 26 28 30 28 27 28 29 35 40 43 46 49 38 55 57 58 59 62 63
45 56 61 64 65 69 66 59 58 61 48 48 48 46 41 39 35 33 33 31 30 32 25 25 29 29 32 28 27 30 33 37 41 46 48 51 53 59 61 60 65 70 56
37 64 67 70 68 64 77 63 55 46 48 46 44 42 42 36 30 30 29 30 33 27 31 28 30 33 30 29 30 36 40 44 44 47 51 51 53 56 61 62 70 63 74
44 69 70 75 71 68 66 51 49 47 43 43 41 38 32 31 31 34 34 30 30 30 29 32 32 32 31 30 49 51 52 51 50 49 47 48 53 48 49 50 69 73 77
44 71 69 74 75 61 48 45 49 46 43 39 36 33 33 35 38 40 40 42 34 32 35 37 47 47 26 46 48 52 58 56 53 55 52 49 51 51 48 51 53 54 64
73 69 64 64 50 48 44 43 43 40 36 35 34 35 37 38 41 39 37 35 35 36 36 38 35 34 45 48 47 51 58 61 61 57 54 50 40 53 58 57 53 58 59
73 70 62 50 44 38 38 39 41 41 42 46 47 50 59 64 57 48 54 52 41 38 36 35 32 35 39 45 46 52 62 59 56 53 52 56 56 58 55 60 88 82 80
65 58 46 39 38 42 44 50 56 62 66 76 80 79 76 77 72 47 38 40 36 36 35 32 35 35 44 46 44 53 63 57 55 51 53 56 59 54 52 66 82 71 70
47 42 41 42 48 49 56 63 64 74 81 82 82 78 75 60 39 39 40 38 38 33 34 35 36 43 40 34 40 51 61 66 65 62 61 57 51 54 55 58 65 76 69
42 42 48 56 60 68 72 79 79 84 79 76 72 54 37 38 36 39 38 35 34 34 37 39 40 37 38 42 38 45 59 68 70 75 69 61 56 58 59 60 64 67 60
86 81 85 88 88 84 82 90 91 87 76 49 38 37 36 33 42 49 47 41 41 41 41 39 39 41 39 36 41 41 47 53 66 67 65 68 62 61 60 60 58 58 59
75 86 91 94 94 82 70 70 50 34 34 34 37 40 43 48 54 57 53 46 41 41 42 42 48 50 48 49 45 50 53 58 60 61 62 63 63 63 60 56 56 56 64
38 36 36 37 37 34 33 32 32 32 34 36 39 45 47 47 47 48 53 48 45 44 45 49 56 58 57 57 64 64 74 66 65 69 83 66 62 56 54 57 60 64 65
43 39 39 39 37 32 32 32 32 32 35 39 46 48 47 48 52 54 57 51 60 57 64 67 64 66 70 59 58 63 65 70 64 64 73 68 64 69 65 64 65 67 69
42 41 40 37 33 32 33 33 33 34 40 44 50 52 53 53 54 52 57 46 46 42 46 45 53 59 54 58 61 64 63 62 64 66 70 73 76 76 72 71 74 76 81

GFSMW_sfc_rhum_039.txt.gz
RH
31 34 33 32 30 30 33 38 51 55 58 69 75 79 91 73 76 74 68 77 65 61 60 57 50 48 40 42 38 45 43 45 46 45 43 50 40 41 41 43 40 37 35
33 32 33 35 36 35 36 34 43 52 56 60 63 86 96 96 86 89 81 68 70 63 56 49 47 45 45 41 38 39 46 47 46 40 53 46 40 39 35 48 32 32 35
30 32 33 33 34 39 39 38 37 45 45 50 85 96 96 96 97 95 85 74 67 69 62 48 46 47 46 46 44 45 45 50 46 38 37 45 47 44 42 42 38 32 38
30 32 32 32 32 34 40 38 39 42 45 50 76 87 86 93 96 95 92 78 68 71 61 56 54 61 59 44 47 43 46 48 48 45 34 37 36 40 35 42 41 38 32
30 28 31 30 28 30 35 43 37 45 49 46 70 77 90 96 96 91 86 80 78 65 55 54 54 49 53 61 44 44 39 43 44 50 46 40 46 44 49 49 46 41 38
31 31 34 41 40 38 38 48 49 46 53 50 82 75 94 95 92 86 84 83 79 62 55 46 49 48 45 49 52 40 38 40 40 42 40 40 40 41 42 47 49 47 45
32 42 50 51 54 55 49 42 47 51 58 69 86 88 86 89 88 80 83 76 64 58 51 51 53 60 53 53 51 48 42 43 45 43 45 42 41 41 43 47 53 56 56
45 50 55 55 54 54 55 50 46 52 66 88 86 82 83 90 88 82 80 72 60 47 48 48 47 45 45 44 47 46 51 47 51 47 48 48 48 46 45 51 58 67 65
57 54 55 54 56 60 60 55 49 62 83 87 80 81 82 88 86 80 73 68 60 48 44 43 45 46 42 41 39 44 40 43 48 48 50 51 51 53 56 59 61 65 72
59 58 56 56 60 63 66 59 55 67 90 85 81 75 82 77 74 65 63 54 47 39 40 43 43 44 41 36 38 43 40 39 46 47 44 48 52 53 57 59 62 67 72
55 55 56 61 64 66 71 64 66 82 92 83 75 78 76 70 63 60 52 45 39 38 38 39 40 38 41 34 37 41 38 36 39 43 46 49 50 56 58 62 62 64 69
50 57 62 65 66 68 68 75 76 89 86 72 70 66 65 58 54 50 44 39 35 33 34 35 33 30 30 30 29 28 33 38 40 44 47 49 41 55 59 63 62 67 69
46 63 68 68 70 69 81 83 86 67 64 56 49 47 46 41 38 39 35 36 35 34 33 34 35 32 30 30 29 31 34 38 43 46 48 50 53 58 64 64 67 73 59
41 68 75 71 69 78 75 66 61 56 57 50 47 44 42 36 35 35 35 34 38 37 37 34 34 35 31 30 34 39 44 49 46 49 51 52 54 58 64 63 69 65 78
50 74 78 80 84 77 70 63 65 61 56 55 52 48 39 36 35 36 38 39 40 41 44 51 54 38 38 36 49 52 53 53 51 51 50 51 53 50 51 53 70 77 82
75 81 80 84 69 67 58 55 62 59 51 52 45 40 39 36 40 44 48 53 60 64 59 56 51 45 34 51 52 57 60 56 56 59 58 55 55 53 48 50 51 54 70
82 79 82 64 57 51 47 54 51 47 45 44 39 42 42 47 54 54 59 70 73 78 79 69 54 43 50 49 50 52 60 62 65 63 60 55 43 58 62 61 55 58 56
88 82 61 56 50 42 43 40 40 42 44 46 50 53 57 67 71 73 79 77 75 76 63 40 36 43 47 49 49 54 65 66 61 57 59 62 64 65 60 66 84 81 79
66 54 46 45 46 45 46 51 59 62 60 66 74 73 77 86 87 88 91 90 87 55 38 37 39 42 58 46 45 59 65 64 65 62 64 66 68 61 56 68 84 78 80
44 46 48 51 53 57 60 69 72 75 85 86 88 88 89 90 91 89 75 47 40 37 36 38 39 42 42 39 39 50 63 72 69 72 70 66 57 57 58 62 72 79 71
52 54 58 62 69 72 75 84 88 96 94 93 90 88 88 76 45 41 38 38 34 35 40 41 43 42 42 44 36 40 61 65 70 77 75 68 62 62 62 60 69 67 58
78 75 76 85 86 81 87 92 96 92 89 88 82 70 64 46 46 48 46 42 45 46 46 42 48 49 47 46 45 44 50 55 70 72 73 73 67 64 63 61 58 58 61
92 91 92 95 95 91 90 96 99 88 78 63 48 44 44 45 50 54 54 49 44 47 47 49 57 57 54 58 57 56 57 62 66 69 67 67 67 63 63 61 60 60 67
70 76 72 74 82 78 74 74 64 43 39 43 46 50 52 55 54 54 54 52 50 54 56 60 64 68 64 64 63 68 79 71 68 71 84 67 61 61 63 64 64 66 68
40 39 38 38 37 34 35 36 36 36 39 41 47 54 52 54 58 59 56 63 64 55 60 70 65 70 76 64 62 64 65 71 67 66 74 68 67 74 70 68 68 69 70
42 41 39 38 36 35 36 36 36 37 40 49 52 56 58 60 59 59 61 50 47 44 45 45 51 56 48 52 57 60 61 62 62 66 70 77 80 81 76 76 76 79 84

GFSMW_sfc_rhum_042.txt.gz
RH
33 39 36 36 35 35 35 44 64 63 79 90 91 95 93 90 80 78 68 69 73 70 67 63 54 49 42 44 38 44 41 45 47 44 44 50 42 44 44 46 41 40 38
35 36 36 38 38 37 36 36 48 58 66 79 76 87 89 95 89 89 77 73 74 70 75 58 52 44 46 43 43 46 51 47 45 43 54 43 36 39 37 48 39 39 41
31 29 38 38 38 40 40 40 41 53 64 68 88 99 98 98 99 97 95 78 75 81 78 57 58 43 45 45 45 47 46 51 47 38 41 50 47 42 39 43 38 34 41
32 32 30 36 36 35 37 41 43 44 56 72 92 84 79 93 94 91 95 95 83 85 77 64 56 64 58 46 51 46 48 50 48 46 34 36 36 37 32 39 41 37 32
39 37 37 36 35 35 38 39 41 48 49 54 74 86 74 80 98 98 96 92 94 88 79 65 65 66 61 59 52 56 52 47 47 52 49 42 47 44 45 40 45 43 40
32 35 36 47 51 52 46 44 45 50 53 57 68 83 84 97 98 97 95 92 91 88 76 68 67 67 66 57 57 54 55 50 43 44 42 41 40 42 44 48 48 47 44
35 45 53 56 63 66 59 56 50 48 49 62 74 76 92 93 93 93 90 90 83 80 76 70 69 70 66 56 52 50 48 44 41 41 44 45 43 43 45 47 52 53 55
41 55 62 58 56 58 58 61 61 59 54 56 82 92 91 91 90 88 88 83 80 79 78 68 65 62 54 49 52 56 57 47 50 43 47 51 50 48 47 53 57 62 65
48 60 57 56 58 60 61 65 66 65 58 62 93 95 94 94 91 90 86 85 80 71 65 65 60 52 45 46 47 52 53 43 48 51 53 53 55 57 59 61 63 64 68
57 58 58 56 58 62 67 73 72 68 61 86 94 94 95 93 90 86 86 81 69 61 60 53 47 46 43 44 45 47 43 41 47 49 50 51 56 58 61 63 65 71 71
51 43 54 60 62 65 68 73 80 77 86 96 93 96 96 93 89 85 80 74 62 52 52 47 41 42 44 43 47 43 37 38 41 47 48 51 54 56 60 65 66 67 72
56 53 48 58 62 66 73 84 88 87 95 92 92 93 88 87 87 79 72 65 57 51 47 39 38 42 45 44 41 43 38 37 40 43 48 50 42 57 60 65 66 68 70
67 59 53 61 63 70 83 90 90 92 89 85 83 85 84 84 81 72 60 48 47 41 35 36 37 36 37 36 32 33 35 38 40 44 46 50 53 56 62 66 68 72 59
72 58 61 70 75 89 79 76 71 72 72 74 77 76 77 74 66 49 39 38 37 41 44 47 49 53 55 58 50 51 58 63 56 52 52 50 53 58 62 62 66 63 75
78 80 77 84 90 82 75 76 73 71 66 74 67 61 51 47 43 41 41 44 49 53 56 62 66 63 70 70 81 81 77 60 52 53 50 52 54 56 54 54 69 74 78
78 74 80 84 78 79 69 68 75 72 77 75 64 55 56 61 46 46 52 56 61 61 60 59 65 72 57 70 68 63 64 56 54 58 59 55 56 56 53 52 51 53 75
74 78 74 64 66 63 62 64 59 59 56 55 56 55 52 58 61 64 71 80 86 86 88 85 87 94 92 79 70 66 61 60 61 59 59 56 48 64 64 64 58 60 61
67 87 67 58 56 57 52 55 65 72 75 76 69 70 64 72 78 81 86 88 86 88 91 88 73 66 63 60 54 58 62 62 63 63 65 71 73 72 64 69 85 81 77
48 55 56 56 54 53 55 56 63 69 75 78 76 77 79 86 88 92 93 93 95 96 96 78 68 56 56 51 50 61 66 64 66 68 72 75 75 65 58 71 86 81 79
52 55 55 60 65 64 62 68 71 73 80 83 88 91 91 90 92 93 96 95 85 65 49 43 38 49 58 48 44 57 66 71 66 73 72 66 62 60 59 66 78 83 73
62 64 68 73 82 76 72 82 89 97 97 93 92 95 93 93 90 88 76 59 42 38 41 43 45 47 44 48 38 40 62 63 69 74 74 70 65 65 64 61 71 68 62
79 80 87 88 88 83 85 93 97 99 96 95 93 84 79 76 67 56 48 41 42 47 47 49 55 54 55 53 52 55 54 60 72 74 75 75 72 66 63 63 62 62 63
87 87 93 96 92 88 89 96 100 87 88 84 69 50 47 46 47 52 56 51 49 48 49 51 58 58 57 62 56 60 61 64 69 73 72 71 66 63 65 65 63 64 72
87 84 86 92 95 91 91 93 88 75 53 48 50 50 54 58 56 55 53 52 54 56 55 57 61 68 67 67 69 69 79 71 69 75 87 64 61 63 65 66 67 68 70
55 52 53 56 60 53 56 57 50 42 45 51 59 61 59 59 60 58 60 59 57 50 58 67 63 67 69 61 59 63 66 73 71 70 67 70 73 78 73 71 71 72 73
43 44 42 41 39 38 39 40 40 41 47 55 56 59 60 61 62 64 68 52 49 48 48 53 54 54 51 51 58 61 60 65 61 67 77 83 86 85 81 80 81 83 87

GFSMW_sfc_rhum_045.txt.gz
RH
35 39 40 40 39 39 40 42 71 69 83 96 97 97 98 95 89 84 78 72 69 78 80 77 67 59 48 43 41 44 41 45 47 47 49 53 46 47 45 46 43 43 42
38 37 38 40 41 38 37 40 49 73 75 86 86 89 93 94 88 88 83 74 75 82 84 77 63 53 52 45 42 45 50 48 50 47 55 48 42 44 39 52 43 40 43
32 30 36 39 39 42 41 40 42 54 75 81 87 99 97 99 99 98 92 81 80 84 81 73 64 50 47 49 40 48 46 51 48 42 48 56 52 48 42 47 40 36 43
39 36 34 37 41 40 41 42 43 46 59 85 88 90 90 93 94 90 90 94 91 91 88 80 64 64 65 60 67 62 66 51 47 44 34 38 44 43 36 43 44 40 34
36 38 40 39 38 39 40 40 41 47 51 73 89 92 88 87 93 94 93 96 96 92 92 79 79 74 74 78 71 73 63 59 59 52 47 40 46 39 43 39 44 45 43
36 36 39 48 57 59 52 48 44 43 49 56 81 93 89 96 98 100 98 98 97 96 91 84 80 78 76 73 70 65 58 59 56 50 41 39 37 44 45 46 50 48 45
35 43 56 57 58 65 59 58 55 53 54 59 66 88 90 96 94 95 96 97 96 96 92 82 83 83 77 75 65 62 58 56 52 49 43 41 38 44 41 46 53 51 56
49 59 60 61 60 55 56 60 62 63 62 62 64 79 88 94 93 94 95 93 90 89 85 83 81 80 73 64 57 60 61 55 58 51 46 44 44 43 43 53 57 59 66
56 54 55 57 59 60 59 61 65 68 69 67 67 86 92 94 95 95 94 93 91 86 83 82 77 72 66 52 51 50 55 53 58 53 48 50 51 52 54 61 62 60 61
51 52 51 53 58 60 64 68 72 72 73 76 79 87 95 94 93 96 96 93 87 81 80 74 72 64 49 47 48 54 48 49 55 53 47 49 52 54 58 66 66 69 66
69 64 59 57 56 56 66 69 74 84 86 86 91 97 98 98 97 96 94 87 81 74 73 68 60 46 45 44 46 42 42 44 45 45 44 47 50 55 60 66 67 66 72
65 71 69 64 61 62 64 70 88 92 92 93 97 98 98 97 97 96 93 83 79 77 65 58 44 44 44 42 40 46 56 61 66 65 58 49 42 53 55 61 61 65 69
70 73 75 70 68 75 82 80 82 87 88 95 96 97 97 95 89 85 78 69 62 59 52 45 46 46 46 46 47 48 51 55 56 59 54 60 66 76 70 61 66 70 60
70 70 83 84 82 79 76 77 76 78 81 85 86 93 93 85 80 71 72 66 55 53 44 45 49 51 53 57 60 67 76 82 82 78 75 73 72 63 61 62 65 61 71
72 74 79 92 91 74 75 78 84 86 78 73 72 71 68 64 57 56 57 55 54 54 53 62 69 74 79 79 86 88 92 91 88 80 66 59 57 56 58 57 69 73 77
61 58 74 71 71 78 74 75 79 80 69 70 71 62 58 58 63 63 68 62 63 65 65 67 75 83 80 86 84 79 82 76 66 66 61 54 52 59 57 57 56 57 77
54 63 72 62 63 71 72 81 72 60 61 63 65 69 72 76 76 72 72 79 84 85 90 88 90 94 93 91 90 89 78 71 58 56 57 55 51 68 69 67 62 65 63
53 61 58 60 64 64 73 72 78 84 82 82 82 83 88 91 83 88 90 90 88 90 91 92 92 95 92 86 73 61 58 59 62 64 66 72 76 75 69 73 88 83 80
53 54 59 64 60 56 62 72 81 85 88 92 93 91 88 84 87 91 93 93 93 95 99 98 94 93 87 64 62 59 59 59 64 68 74 78 78 68 59 73 87 83 82
59 65 66 64 64 64 65 70 75 79 85 89 91 89 88 90 93 94 97 97 94 99 95 95 84 73 64 55 52 62 63 69 63 72 70 66 63 60 61 73 80 84 75
69 74 77 83 86 82 85 94 96 97 95 92 93 94 93 94 92 94 93 92 91 82 58 45 47 45 46 49 41 49 62 64 69 73 74 71 67 67 63 62 75 71 65
80 81 86 90 85 83 87 96 99 100 97 93 97 94 90 83 80 76 63 50 45 45 47 53 59 58 60 59 56 53 55 61 72 74 76 78 73 67 65 64 64 64 66
87 88 90 91 91 88 88 97 100 91 90 88 79 57 50 52 52 55 56 54 52 52 53 56 62 60 57 61 61 61 60 62 70 73 74 74 65 65 68 67 65 68 75
86 84 86 92 96 91 90 91 83 72 62 52 52 51 55 58 57 53 52 54 56 58 56 55 58 67 65 66 70 69 79 70 71 79 78 64 63 65 66 68 68 70 72
63 67 77 82 82 83 83 76 51 50 55 60 63 63 59 60 61 62 57 53 53 50 59 63 59 65 67 59 60 65 67 79 71 69 68 72 74 80 77 75 75 76 77
52 52 50 52 48 46 45 45 48 51 54 57 58 60 61 66 70 73 76 54 54 52 54 58 53 53 52 55 60 63 61 63 62 71 78 84 88 89 84 85 85 85 89

GFSMW_sfc_rhum_048.txt.gz
RH
37 42 41 42 43 42 43 42 47 80 95 96 96 97 95 94 94 94 90 81 76 85 90 91 92 81 75 63 44 47 44 48 48 50 52 54 49 46 48 52 52 48 45
35 39 41 43 44 41 42 44 46 53 79 94 90 91 88 92 92 92 93 84 80 84 86 88 86 79 72 55 44 45 50 48 53 50 56 50 46 48 44 54 45 46 48
37 34 39 40 42 44 43 41 43 50 72 85 92 99 98 99 98 98 96 92 86 86 87 88 85 76 66 57 45 50 55 58 52 49 52 58 55 52 46 50 49 42 49
34 38 40 42 42 40 44 44 44 47 56 90 92 94 91 94 94 94 93 94 89 90 90 90 86 80 76 78 69 70 76 81 71 52 40 41 47 46 42 45 46 42 39
38 43 44 41 43 44 45 44 44 48 52 60 92 96 94 92 96 96 96 96 94 90 92 91 88 81 76 79 75 74 69 76 72 64 64 48 45 38 42 41 42 47 46
47 50 58 61 64 65 64 60 47 43 47 59 82 96 95 94 98 99 98 99 98 96 94 93 88 82 79 82 81 76 70 68 64 58 52 48 46 40 38 38 42 44 44
56 57 58 61 61 61 59 58 62 60 58 60 64 86 95 95 96 94 96 98 98 98 98 94 90 86 83 83 81 80 74 66 61 59 57 50 42 45 42 43 47 46 48
57 55 55 57 58 57 59 60 61 64 65 67 65 69 84 96 96 95 95 96 96 94 94 94 91 88 86 84 81 76 74 60 62 54 51 51 49 42 42 48 50 50 58
52 57 60 60 57 57 58 65 66 68 69 71 76 76 79 89 94 96 94 95 94 95 95 93 92 89 89 81 70 63 57 52 54 50 49 50 54 53 53 54 52 52 53
67 70 70 67 60 60 60 64 67 69 75 85 87 83 88 91 91 96 98 98 97 95 94 94 92 88 79 67 60 54 49 48 52 50 48 51 55 57 60 63 60 59 57
76 80 80 77 74 67 67 67 74 84 93 94 93 94 95 97 98 98 98 97 94 93 91 84 78 71 60 54 49 45 44 46 48 50 51 55 54 58 60 72 72 68 69
76 82 84 83 78 79 85 91 81 79 86 95 97 98 96 96 96 98 96 89 86 80 77 70 62 57 53 46 42 41 46 49 53 63 64 65 57 70 66 66 69 72 71
82 83 83 88 93 89 83 77 78 80 80 89 97 96 94 94 92 90 82 78 73 70 60 55 53 49 50 48 47 52 58 60 63 65 66 70 77 90 94 94 86 79 68
74 62 68 91 94 71 73 80 79 75 79 83 91 91 89 88 84 78 70 65 59 58 56 52 50 51 50 54 58 65 74 79 83 85 86 88 93 96 97 90 86 66 68
63 62 64 74 72 67 73 84 88 84 81 79 75 73 72 66 69 71 67 61 61 61 56 60 65 69 74 76 84 88 92 93 91 90 90 88 83 72 72 68 68 70 74
61 52 70 81 63 72 81 77 76 77 74 70 72 66 67 68 72 71 74 75 77 78 76 77 79 86 84 87 89 88 91 94 97 98 97 92 69 71 60 55 55 60 80
54 59 66 64 64 80 86 91 74 70 72 74 76 77 76 77 77 73 77 80 89 86 90 90 92 96 92 89 90 92 96 97 96 81 60 54 54 69 68 66 62 65 62
57 58 55 56 68 76 76 77 81 84 85 86 86 86 87 89 89 89 90 92 89 91 93 94 94 96 94 91 84 71 63 59 60 60 64 68 76 77 70 75 88 83 81
59 59 61 70 67 65 68 73 78 83 89 92 92 92 90 94 95 98 99 100 98 97 99 99 99 98 97 84 81 79 64 60 61 64 71 77 80 68 61 74 88 86 82
64 69 70 70 71 73 78 85 90 92 93 92 91 89 89 90 96 97 97 98 97 99 98 99 98 91 89 78 78 63 59 69 64 74 70 66 65 62 62 69 79 85 78
76 79 81 85 86 85 88 96 96 98 94 92 92 92 92 96 96 99 98 99 99 96 70 59 54 56 50 54 57 63 63 66 71 73 74 71 68 64 66 62 77 74 70
88 83 88 90 87 84 89 97 99 99 97 96 97 98 97 97 97 97 90 65 54 53 56 60 59 58 62 61 57 55 58 62 72 73 78 81 72 67 65 65 64 63 69
88 87 88 90 90 88 94 99 100 98 97 93 94 91 83 67 57 55 56 53 53 56 57 58 61 58 57 67 63 61 59 62 72 74 74 68 65 63 69 66 66 67 79
84 84 86 92 96 90 90 89 85 75 56 51 54 55 56 57 56 54 54 57 59 60 57 52 57 66 64 68 71 70 80 70 73 76 73 63 63 66 68 70 71 73 75
90 84 84 87 91 86 83 61 52 54 58 62 61 61 60 63 63 57 51 49 54 53 55 61 58 65 70 60 64 67 69 79 68 70 70 75 78 83 80 78 79 79 80
60 66 67 70 69 65 57 53 57 57 58 58 58 62 67 73 74 78 80 56 57 57 56 58 55 53 54 57 61 61 60 62 61 72 81 90 93 92 88 88 87 87 90

GFSMW_sfc_rhum_051.txt.gz
RH
31 36 38 36 36 36 37 36 38 58 81 86 90 93 96 93 93 89 81 72 72 78 81 79 75 79 79 75 59 44 40 39 34 36 38 38 36 33 35 41 38 40 38
32 31 32 35 36 35 36 37 38 38 60 76 74 78 83 89 88 88 88 80 75 76 82 80 78 76 76 74 61 46 42 41 39 38 44 41 35 34 33 35 35 34 34
30 32 34 34 37 36 40 38 40 42 46 68 81 88 90 93 92 94 92 88 80 80 81 78 82 79 73 72 64 53 50 50 43 42 37 49 45 37 36 36 36 34 35
34 41 48 46 43 44 49 43 44 44 44 58 78 84 77 84 82 82 86 88 85 82 83 80 81 82 81 78 75 60 58 60 60 52 44 41 44 54 38 35 38 33 32
44 47 52 55 52 59 60 54 44 42 46 47 67 84 84 77 81 84 87 88 91 85 83 82 82 80 82 78 76 69 59 61 60 70 65 55 50 40 51 44 42 36 36
49 50 52 54 52 56 57 57 54 51 46 47 54 83 88 86 92 92 93 91 92 91 86 85 84 80 80 78 77 74 67 64 66 62 55 45 42 36 42 39 39 40 41
49 53 55 57 58 59 57 54 53 51 51 54 51 53 78 91 91 88 90 88 93 95 91 90 90 86 82 81 78 75 74 71 71 68 54 52 50 47 49 48 41 38 37
49 54 57 61 61 60 57 56 55 54 53 55 57 56 57 68 83 88 85 85 89 88 85 90 88 84 81 79 79 81 79 73 71 68 56 49 46 42 38 49 54 50 46
57 63 64 64 62 60 59 59 58 57 56 57 64 66 64 68 69 73 84 86 85 88 86 89 91 88 85 82 81 82 77 72 64 57 56 54 50 46 54 52 52 51 49
67 71 68 68 66 67 66 64 60 61 64 75 77 78 81 78 76 74 77 83 86 87 88 90 88 88 86 84 82 83 84 79 58 52 47 51 54 59 64 68 57 54 54
74 72 70 70 73 72 72 70 69 70 70 75 80 84 91 88 90 90 88 88 87 86 87 85 85 85 84 82 80 73 58 56 56 49 50 55 57 62 63 75 77 83 82
69 71 72 74 78 74 68 67 66 69 72 77 81 86 84 87 89 90 90 88 86 84 81 80 78 70 65 59 56 53 50 50 53 55 58 62 56 74 71 79 86 91 94
65 62 60 62 78 67 69 72 71 69 69 71 78 83 84 86 89 87 82 79 78 76 72 67 63 56 54 50 47 48 51 57 62 62 66 71 78 90 96 96 97 99 92
58 58 57 62 68 63 69 69 70 68 67 66 69 76 77 82 84 75 68 67 64 58 55 51 49 51 52 55 58 64 73 77 79 80 82 88 92 97 100 99 96 90 86
56 55 65 73 61 63 65 64 68 69 67 67 68 72 72 74 75 72 70 65 61 60 58 64 67 69 70 72 78 81 87 89 93 93 92 96 98 95 91 87 92 87 77
56 57 59 64 64 70 75 72 72 72 68 73 76 74 74 76 80 80 81 81 80 80 81 84 84 86 81 82 84 87 91 94 97 100 100 95 92 86 86 81 64 59 69
57 56 56 57 64 73 79 80 76 74 79 80 79 79 78 77 80 79 84 90 93 92 94 94 93 96 94 90 91 91 94 97 98 91 84 78 76 76 62 62 60 63 62
59 58 60 60 62 71 74 77 78 82 86 89 89 86 87 90 91 92 94 92 92 93 96 95 97 97 95 92 91 87 80 76 62 61 74 81 82 76 61 59 76 70 63
61 64 62 63 65 67 68 74 79 83 86 90 94 95 92 97 99 99 99 100 98 98 99 99 100 98 98 93 86 83 69 69 77 74 65 63 60 62 59 63 77 71 66
69 72 72 74 76 80 82 86 92 92 94 93 94 92 96 98 99 99 98 100 97 100 99 100 98 97 91 86 90 78 54 55 56 59 57 62 59 62 60 69 70 69 60
80 78 78 83 83 84 84 95 95 97 95 95 96 97 97 99 99 99 98 99 98 97 96 91 87 74 71 67 68 62 57 58 61 60 60 59 71 64 65 62 60 59 55
84 81 85 87 84 84 88 96 99 98 96 97 98 99 99 96 95 91 85 68 54 51 52 55 52 47 54 62 58 58 60 61 61 62 63 68 65 64 61 58 62 60 66
89 88 89 90 90 90 92 98 100 94 88 89 92 81 68 54 49 47 47 44 44 46 47 45 46 46 50 59 62 60 61 63 66 65 66 65 61 60 61 65 66 65 61
88 82 85 92 94 90 88 88 87 66 56 55 50 47 46 47 45 43 43 45 47 47 42 38 44 51 53 57 59 62 64 66 63 64 59 57 60 65 65 62 62 62 63
86 83 84 88 90 85 72 62 53 49 52 52 51 50 49 47 47 41 37 37 42 39 39 46 47 53 59 57 60 59 59 61 58 64 53 55 59 64 64 64 66 66 68
78 84 83 85 85 81 54 56 54 51 50 48 50 54 57 62 64 64 64 59 58 57 57 58 51 52 53 57 60 58 58 59 60 56 59 63 66 70 69 71 71 72 78

GFSMW_sfc_rhum_054.txt.gz
RH
21 23 23 22 22 23 24 24 24 26 33 52 86 90 92 90 86 73 62 58 59 58 63 58 54 54 57 63 60 54 49 43 35 32 33 30 28 27 25 30 31 33 32
21 22 23 22 21 22 22 24 26 26 28 35 54 67 70 75 72 81 83 76 64 64 65 67 59 58 60 61 65 59 53 47 36 40 40 43 34 29 27 28 28 29 29
27 31 31 30 27 27 28 27 27 28 29 30 37 53 60 70 75 79 84 78 78 70 68 71 67 69 63 63 67 64 57 55 42 37 41 50 51 36 32 31 32 28 29
32 34 34 35 35 39 43 37 31 30 30 33 35 48 59 66 63 61 69 75 78 84 77 77 72 72 76 70 68 66 60 58 52 41 34 34 35 42 47 37 34 31 29
40 39 41 43 41 45 46 40 35 35 32 33 34 38 54 53 53 57 64 63 71 80 85 77 80 79 76 75 72 72 63 58 53 52 47 42 43 38 44 48 45 44 34
41 42 43 43 42 46 46 46 40 36 36 38 35 38 43 52 60 65 68 68 72 79 85 83 84 78 79 75 74 74 73 68 60 56 50 43 45 46 39 38 39 35 40
43 46 47 48 47 49 48 44 41 40 38 38 37 38 39 46 60 61 64 67 73 83 87 87 84 84 79 77 76 77 76 73 71 64 61 56 54 46 52 43 48 40 35
47 50 50 50 49 49 48 46 45 43 41 41 39 38 41 41 41 47 53 55 59 64 72 79 85 83 81 79 77 78 79 77 84 77 68 57 60 55 48 52 53 49 43
53 51 48 50 50 52 53 52 48 45 43 44 46 44 44 50 49 47 44 47 52 56 58 68 82 85 86 84 83 84 82 80 81 77 69 59 58 60 62 59 56 67 66
52 49 49 51 51 53 52 51 50 51 50 53 53 54 59 60 60 60 59 54 50 52 58 69 76 86 88 86 86 88 84 84 86 86 82 82 75 69 66 65 64 58 61
53 49 49 47 53 52 50 49 48 50 51 53 54 58 63 64 67 75 76 73 71 64 65 71 78 86 87 84 86 85 83 82 85 84 81 70 66 76 78 80 73 83 81
53 47 47 47 53 51 50 52 50 50 51 52 54 60 62 64 66 70 71 72 74 74 78 77 82 83 83 81 81 79 76 68 67 63 59 70 64 72 72 76 83 89 94
49 46 46 48 53 50 50 52 53 52 50 50 53 58 63 67 69 67 67 69 72 73 73 76 77 74 72 70 64 60 56 60 62 63 65 70 74 82 91 93 98 98 99
49 48 53 54 50 50 51 50 51 52 53 54 57 61 64 66 65 64 62 60 57 59 60 57 55 52 50 54 57 63 69 72 76 78 79 79 87 95 99 100 100 99 96
50 51 55 53 51 53 53 54 57 57 55 59 63 66 68 71 74 74 71 70 71 70 66 67 67 66 71 72 78 81 84 88 92 92 91 95 94 95 98 97 98 91 83
50 51 52 52 53 55 59 60 61 61 60 61 65 66 66 74 80 81 82 84 83 83 81 84 84 86 80 82 84 87 92 94 96 99 100 100 99 97 94 87 81 74 71
52 51 50 49 52 58 62 63 64 68 68 66 62 64 70 79 86 84 87 91 94 93 94 94 93 95 92 88 90 91 94 98 99 98 95 86 74 71 63 68 65 64 68
53 52 50 51 54 56 58 63 72 72 74 78 77 76 82 88 93 96 98 97 96 96 96 97 95 96 98 94 95 96 99 97 95 87 71 74 71 67 64 55 67 64 54
50 52 54 56 58 59 64 68 76 78 80 92 91 93 95 96 97 99 99 100 99 98 99 99 99 97 97 91 78 76 75 80 76 67 64 66 66 58 60 59 72 59 57
54 56 60 66 65 68 63 72 80 83 89 89 94 95 96 96 98 98 98 100 99 100 98 100 98 90 82 84 79 55 55 64 63 59 51 58 57 61 61 61 62 62 50
62 61 60 62 68 65 68 81 89 96 96 96 96 96 97 99 98 100 97 100 100 99 94 74 63 60 66 65 64 58 46 46 46 48 47 51 68 63 64 62 51 53 50
68 65 68 69 71 71 79 90 98 98 96 97 99 97 95 92 94 84 70 59 48 48 47 45 47 48 51 57 58 60 60 58 52 54 54 57 65 62 59 56 57 61 63
72 70 70 83 86 87 87 96 99 90 89 90 85 72 52 41 39 39 39 33 31 31 32 31 32 32 38 46 62 63 63 63 54 56 62 62 57 55 50 58 65 66 52
74 66 75 79 88 84 90 92 84 73 68 57 43 34 33 33 31 30 32 31 30 30 27 25 30 36 41 48 50 51 49 58 51 61 52 52 56 59 62 57 53 52 52
78 71 73 76 85 78 79 71 60 56 43 36 36 35 32 29 28 28 27 24 28 28 26 34 35 39 47 54 58 56 51 52 52 62 40 37 40 46 49 52 54 56 57
82 77 76 74 76 69 63 58 50 40 37 36 35 34 35 39 41 44 48 58 56 58 58 58 44 48 52 57 60 58 59 60 59 47 40 42 47 52 54 56 57 61 68

GFSMW_sfc_rhum_057.txt.gz
RH
15 17 20 20 21 21 22 21 21 21 22 30 43 74 90 88 82 67 56 51 50 51 55 56 52 51 53 55 63 58 57 54 46 46 40 40 35 30 32 34 35 41 41
19 20 21 21 19 19 20 21 22 24 24 26 30 51 68 76 81 82 76 65 55 55 58 60 59 54 56 56 64 63 63 56 49 48 51 56 44 36 32 32 33 36 38
21 26 28 27 26 28 32 27 25 27 27 28 28 35 53 61 66 71 76 74 71 70 66 64 64 65 60 62 62 67 67 65 54 47 49 64 63 47 39 35 34 33 37
29 32 32 34 34 40 43 36 32 28 27 30 31 33 38 51 55 55 57 61 66 77 82 77 71 74 73 67 66 65 75 67 64 56 46 48 46 58 54 44 38 36 33
34 35 38 40 39 45 47 43 35 31 32 30 30 33 37 40 48 50 53 53 58 70 78 79 82 82 81 81 73 71 72 72 65 62 65 52 52 47 60 56 50 40 40
38 38 40 40 40 45 46 46 40 35 34 34 34 35 41 39 43 51 53 54 56 63 74 83 85 84 85 83 84 79 80 77 73 58 63 55 56 54 53 67 56 52 45
40 42 43 44 44 47 47 43 39 39 36 36 36 34 37 39 42 44 50 53 56 65 72 84 85 86 85 86 85 86 86 83 81 78 66 59 56 60 55 68 66 60 45
43 44 44 45 45 47 48 46 43 42 38 38 38 36 36 38 37 38 39 47 50 51 56 76 85 86 87 87 87 91 88 85 86 83 78 68 66 64 62 75 78 73 54
46 45 43 44 45 47 48 48 46 45 45 45 44 42 41 45 48 46 43 41 39 42 46 52 69 83 86 88 91 92 93 91 89 88 85 79 79 77 77 79 87 94 97
46 44 43 44 46 48 47 46 44 45 45 46 46 48 51 53 54 55 56 58 55 53 51 51 56 66 88 92 96 96 95 94 94 96 94 84 81 86 92 93 94 97 96
48 44 42 42 48 47 47 46 45 45 46 46 46 50 53 55 56 57 59 62 65 65 67 64 64 77 89 89 93 95 95 96 93 87 82 86 88 92 93 93 89 91 91
49 43 43 43 48 47 46 47 47 46 47 46 47 51 54 58 59 60 61 62 66 66 70 75 78 80 83 87 89 90 89 91 92 90 85 82 75 81 82 88 90 94 96
46 43 44 45 47 46 46 46 48 49 48 49 51 54 58 60 62 61 58 56 56 61 61 62 65 68 74 76 74 72 68 74 77 76 78 80 84 90 93 94 97 98 97
46 45 50 49 47 47 49 48 50 50 52 54 57 60 63 65 66 66 63 63 62 59 59 58 60 60 61 62 66 73 78 79 78 80 81 84 88 94 98 100 100 99 99
46 47 51 48 48 48 49 52 54 55 54 56 60 62 63 66 70 73 75 74 72 70 68 71 72 72 74 74 82 83 88 91 92 92 92 95 93 92 94 96 100 100 99
47 48 49 48 50 51 54 56 58 60 59 60 60 61 63 70 76 81 84 84 82 84 85 86 86 88 82 82 83 87 92 94 97 99 100 100 98 97 95 97 90 77 83
48 48 48 46 49 53 56 59 61 62 65 66 64 64 68 76 83 83 87 90 92 93 95 95 95 95 92 91 92 92 93 96 97 98 98 90 77 71 68 67 64 63 64
49 49 47 49 50 51 53 57 62 67 75 78 74 71 79 91 95 96 98 98 96 96 96 97 98 98 97 98 100 99 100 98 99 100 96 90 88 76 63 57 75 73 66
46 48 47 51 56 55 56 60 66 73 84 89 87 89 89 95 95 99 99 100 98 98 99 99 99 98 97 91 86 85 82 80 71 64 63 61 62 62 61 67 80 68 64
50 51 52 55 55 56 56 62 68 76 87 89 95 95 94 92 95 97 98 100 96 99 98 100 93 79 79 68 55 52 53 58 58 52 50 59 62 63 63 67 65 70 60
56 54 54 56 58 58 61 74 83 93 95 95 95 96 96 96 95 98 94 96 97 93 82 70 66 62 57 61 62 56 49 48 50 52 51 56 66 68 65 62 63 59 57
61 57 60 62 62 65 74 86 98 98 97 96 96 92 86 82 80 80 73 62 48 45 42 43 47 48 49 57 61 62 61 58 56 56 57 62 66 61 58 57 52 60 63
66 64 64 75 76 75 81 96 99 94 88 84 80 70 56 44 40 44 43 34 30 30 30 29 33 36 42 48 58 60 61 63 55 59 66 61 53 50 50 49 62 65 62
66 61 68 77 84 82 89 92 86 79 71 62 48 35 32 31 30 31 37 34 28 27 24 28 34 40 45 52 53 52 53 52 50 61 58 49 50 49 57 58 54 58 60
66 69 66 71 77 78 82 79 69 64 54 38 33 33 32 30 30 32 31 25 36 39 29 40 41 45 49 60 61 60 58 61 57 64 48 40 40 48 50 55 58 62 62
72 76 73 74 73 73 74 69 62 54 38 36 36 33 35 36 40 44 52 60 58 58 59 57 54 50 54 57 61 60 63 65 59 57 42 44 50 54 55 59 61 68 74

GFSMW_sfc_rhum_060.txt.gz
RH
23 24 28 28 28 28 31 32 32 31 34 40 57 93 96 97 94 82 80 75 68 76 78 69 76 71 67 69 76 73 79 79 70 64 60 57 47 44 49 48 50 54 53
28 28 30 30 28 29 34 34 33 34 34 36 43 68 95 95 90 92 81 83 88 77 79 85 82 82 83 83 79 74 85 82 75 70 67 67 60 53 44 47 46 54 55
29 34 38 38 42 52 52 44 40 38 38 42 45 47 72 92 95 95 91 75 78 87 85 81 83 89 84 85 84 79 87 84 86 58 69 85 80 63 55 43 49 48 56
41 41 45 49 53 57 58 55 44 41 37 40 45 50 54 66 84 88 88 88 89 91 89 93 90 86 82 79 80 76 89 92 82 87 53 75 67 68 61 54 48 45 46
44 47 51 53 54 61 65 61 56 47 44 46 44 50 53 56 58 67 75 79 82 91 91 90 90 89 93 90 88 87 88 89 86 78 92 78 71 61 73 67 59 51 49
53 52 53 53 56 62 63 63 57 51 49 47 48 48 52 56 57 60 74 78 79 84 90 91 86 85 86 91 96 90 90 92 88 80 82 78 73 70 74 81 66 58 60
57 57 59 59 60 63 64 57 57 56 52 52 54 52 52 56 59 59 66 70 77 83 86 94 96 94 91 91 91 92 93 92 96 88 80 77 80 88 67 78 79 73 60
60 59 61 61 62 62 64 63 61 59 57 59 60 56 57 64 63 64 63 64 64 64 64 83 95 95 94 94 94 96 95 95 97 95 92 85 81 90 86 85 87 86 84
61 59 61 59 61 64 63 63 60 60 60 62 64 67 70 72 75 75 76 80 77 67 72 73 78 94 95 95 96 97 97 97 96 96 96 96 96 88 91 92 91 86 97
58 57 57 57 61 64 63 61 58 59 60 61 63 66 72 73 76 79 81 81 83 79 82 83 85 89 92 94 95 98 97 99 99 98 98 96 94 94 94 94 95 98 97
61 57 56 55 61 61 63 62 60 60 61 61 63 72 76 77 75 75 77 81 83 84 84 83 90 91 93 92 96 97 97 98 97 95 94 93 91 95 96 97 98 99 98
59 55 56 56 62 62 62 62 61 63 63 64 68 73 74 76 79 78 74 70 72 74 68 69 70 74 83 85 90 92 91 94 94 93 91 92 86 94 93 95 97 97 97
54 54 56 58 60 61 60 62 65 67 67 68 72 75 79 82 84 81 76 73 67 62 57 58 60 61 62 64 66 71 76 82 82 82 84 87 89 94 94 95 97 98 95
52 54 62 62 60 59 63 66 70 69 69 71 75 78 82 84 85 85 79 71 68 68 68 68 69 71 71 74 78 79 82 84 83 85 86 86 89 94 98 99 100 98 98
53 56 62 64 62 64 67 69 73 73 71 73 76 79 81 79 77 78 85 79 81 78 77 79 80 80 81 80 87 88 90 93 95 94 94 93 91 90 91 94 100 98 98
53 54 56 62 62 70 71 69 75 77 76 76 77 77 82 77 79 87 88 89 90 91 91 89 88 89 84 85 88 90 93 94 96 99 100 100 98 93 93 91 90 90 93
54 54 57 58 64 71 70 79 80 79 80 73 70 79 79 85 94 93 93 94 96 96 97 97 96 96 93 91 90 93 96 98 99 100 100 96 90 89 77 71 68 68 66
55 55 59 61 65 66 70 74 78 74 82 81 77 77 87 96 97 98 98 97 97 97 97 97 98 97 95 93 94 93 99 98 99 99 99 96 94 87 71 71 81 82 77
57 61 62 66 70 71 71 78 83 76 82 87 86 86 88 96 97 98 98 100 98 98 98 97 97 93 90 73 72 84 92 93 89 78 70 71 72 61 58 77 88 81 74
59 63 65 67 71 72 73 78 75 77 89 93 89 86 88 95 97 97 97 98 96 99 90 99 94 76 86 61 54 60 69 76 69 64 64 61 68 63 66 76 81 80 72
65 65 68 72 73 75 80 86 91 93 93 91 91 96 93 95 93 97 95 95 96 95 93 88 84 79 77 74 64 62 73 71 67 68 72 81 65 64 62 59 76 66 70
69 66 74 76 81 83 85 94 98 98 97 95 95 92 88 82 91 93 94 90 82 71 69 68 69 69 77 63 64 62 62 64 69 73 85 84 62 57 56 59 54 60 66
75 74 79 85 80 78 84 97 100 97 93 90 90 89 84 72 67 63 57 50 45 46 44 45 52 55 58 78 55 53 58 59 68 73 66 59 52 52 59 52 59 63 77
78 75 78 81 83 79 88 93 92 86 82 75 74 50 44 43 44 44 49 48 43 40 35 41 51 58 63 79 81 74 79 68 71 72 81 58 44 43 49 58 61 69 72
77 69 74 81 81 80 89 86 81 80 84 61 45 44 44 42 48 68 72 48 67 67 51 61 58 67 75 78 66 66 72 80 69 70 71 53 49 59 60 64 68 71 71
80 77 75 77 80 81 84 80 73 81 59 48 49 46 44 44 56 66 77 61 61 58 58 56 62 65 55 55 61 60 61 65 59 71 64 63 76 78 68 72 77 84 86

GFSMW_sfc_rhum_063.txt.gz
RH
27 32 32 33 30 32 35 38 37 38 41 64 95 97 96 97 98 93 84 90 91 85 86 77 82 81 73 76 85 85 84 85 78 69 68 63 57 55 54 52 57 71 74
32 36 33 32 46 57 54 48 44 41 41 47 50 86 97 96 86 93 92 90 91 95 87 92 90 88 88 87 90 85 93 92 89 80 69 64 60 58 50 55 50 58 62
40 46 48 52 55 59 61 55 48 45 42 42 45 52 72 95 98 97 97 94 92 92 94 93 90 93 91 92 92 91 90 92 97 85 78 84 73 70 62 48 50 50 63
50 50 52 57 61 66 64 62 59 52 43 46 46 50 57 61 82 95 96 96 93 91 92 95 95 97 97 92 84 86 89 92 94 96 76 86 77 72 69 71 69 65 62
54 55 54 56 61 62 67 66 61 56 52 49 50 54 56 63 65 65 72 86 95 95 94 93 94 96 98 96 96 95 92 93 89 88 91 84 94 78 79 80 86 74 67
63 61 59 60 64 65 65 63 59 57 56 57 58 56 57 58 63 64 67 71 83 89 94 95 95 94 92 94 97 98 98 97 95 92 85 81 79 79 88 90 87 86 79
64 66 65 64 65 70 68 62 64 62 61 63 63 62 65 65 68 72 73 72 77 84 82 84 94 97 96 95 94 95 95 97 98 96 94 85 82 79 81 83 89 83 74
67 64 64 68 69 69 68 66 65 66 65 68 71 75 78 81 81 83 86 89 89 88 88 90 89 94 96 96 96 97 97 96 97 97 97 92 88 88 86 83 87 94 89
67 63 65 67 70 71 69 67 66 66 65 67 72 79 81 82 87 88 89 91 90 76 90 92 93 92 96 97 96 96 98 98 97 97 99 97 94 95 94 94 93 88 97
67 64 65 65 71 69 70 66 65 66 65 67 76 79 82 79 80 79 82 82 86 88 90 91 94 95 95 95 94 96 96 98 98 99 99 99 98 98 98 98 98 99 99
68 64 63 62 70 69 70 68 68 67 68 71 77 81 82 80 80 79 77 76 77 78 79 78 84 88 94 93 96 96 96 98 98 95 95 95 94 97 96 97 98 99 98
64 63 62 64 70 70 68 70 70 71 73 75 79 82 82 83 85 84 81 78 74 70 68 67 66 64 64 68 74 80 83 91 94 92 92 92 86 95 94 96 97 98 99
61 61 64 67 70 70 70 74 74 76 76 77 81 84 87 89 92 90 84 80 76 73 67 66 69 69 71 70 71 75 80 83 85 86 88 91 91 95 95 96 98 98 96
58 62 68 71 68 68 71 76 78 77 78 78 82 88 92 92 93 93 90 87 79 75 74 74 74 76 78 82 84 84 87 89 91 92 92 92 94 96 99 99 100 97 96
57 62 67 69 71 74 78 80 81 78 78 80 85 91 90 77 82 87 93 92 93 85 81 82 83 89 86 86 93 91 92 95 97 97 94 95 92 89 92 95 99 98 98
56 59 61 64 72 81 81 79 83 85 82 83 87 87 81 82 87 88 89 90 92 93 93 91 88 88 80 83 86 92 92 94 97 100 100 100 98 97 96 92 93 90 93
58 59 60 66 75 79 80 88 89 86 83 76 77 82 88 94 96 96 94 95 97 97 97 97 94 95 91 88 88 93 94 98 99 99 99 97 98 99 98 95 85 76 68
58 58 62 67 71 76 81 84 88 81 81 83 81 85 91 96 97 97 97 97 94 96 95 94 95 95 90 83 84 88 96 98 99 99 97 96 91 83 75 77 84 83 81
61 64 68 72 77 77 83 87 86 81 86 86 87 88 88 96 97 99 99 100 97 98 98 95 96 93 87 62 70 85 91 90 88 75 76 76 77 61 67 82 86 83 70
63 66 68 72 77 80 84 87 80 86 93 88 87 88 91 96 97 97 95 98 94 95 99 99 93 74 87 60 58 70 76 81 70 71 73 65 72 67 65 81 83 80 77
68 69 72 77 80 84 88 92 88 94 92 89 91 92 92 94 93 95 94 98 97 96 96 90 87 85 80 77 63 64 79 71 71 71 80 82 66 61 58 56 73 70 71
74 73 81 84 90 91 92 90 96 96 93 93 94 91 92 87 88 95 97 94 87 79 77 76 73 80 82 61 60 59 61 64 73 79 87 83 57 53 52 58 53 58 69
78 79 84 91 93 91 87 97 99 97 94 93 92 89 90 95 94 82 72 66 64 58 55 54 56 59 64 78 63 62 56 59 68 72 68 60 53 51 58 54 55 61 77
81 82 79 83 90 82 90 93 96 91 87 86 91 93 80 63 57 49 52 49 47 44 39 46 54 62 74 86 83 75 82 70 69 70 80 58 47 44 50 55 61 68 74
81 81 82 83 82 79 88 88 88 84 85 87 72 52 50 51 65 72 52 56 68 56 51 58 58 67 78 77 66 66 72 81 72 69 68 59 53 62 62 67 70 74 74
85 84 77 84 80 78 84 86 82 82 92 70 53 55 53 50 64 75 79 59 61 56 56 58 61 65 56 54 60 59 60 62 62 69 70 71 82 82 71 74 78 83 87

GFSMW_sfc_rhum_066.txt.gz
RH
34 37 38 37 38 51 47 44 41 42 71 96 97 97 97 96 96 97 92 93 94 89 90 89 90 92 83 75 82 85 86 88 88 67 66 67 64 58 59 58 59 91 89
39 39 40 57 57 60 58 54 50 44 43 51 58 91 96 97 96 95 95 95 96 96 94 96 92 91 90 92 92 92 95 93 95 89 74 72 62 62 54 61 52 58 85
41 52 59 60 63 67 68 62 61 53 47 45 48 55 67 96 98 98 98 96 94 94 96 96 96 96 96 91 93 95 95 89 98 94 88 81 78 74 66 57 51 52 70
53 56 59 63 63 67 70 66 63 58 51 53 50 50 56 59 81 83 92 93 94 95 94 95 96 96 97 96 93 93 95 96 95 98 88 88 80 79 77 72 83 80 72
61 62 63 64 66 67 70 68 62 60 60 59 58 60 58 64 65 65 61 63 75 90 96 96 96 98 98 97 97 97 98 97 94 97 98 91 94 88 90 81 82 88 85
65 66 68 68 69 69 69 68 64 64 64 64 66 67 65 66 68 72 75 76 80 91 86 88 97 97 97 97 97 97 97 97 97 97 97 94 92 91 90 93 94 89 85
73 71 70 71 73 73 70 64 68 69 68 72 79 82 85 83 87 89 93 91 91 93 94 93 94 97 97 96 96 96 96 97 98 98 96 95 92 87 93 92 89 94 92
74 71 70 71 74 71 71 69 71 70 69 73 82 86 87 92 94 94 95 96 95 95 94 94 94 94 97 98 98 98 96 92 96 97 98 97 94 92 93 93 96 98 94
72 70 72 72 75 73 72 71 71 70 71 79 85 89 87 86 88 87 88 93 94 81 94 94 95 96 96 92 91 97 98 97 97 98 97 98 97 97 96 94 96 96 98
72 71 72 74 77 73 72 71 68 69 73 78 82 84 84 83 82 79 79 77 82 80 82 88 90 93 94 94 96 97 97 97 98 98 98 98 98 98 98 99 98 99 98
72 71 69 72 75 75 72 73 71 72 76 80 83 86 86 84 83 83 83 79 74 72 71 72 73 76 82 86 93 94 95 93 93 93 94 94 93 96 96 98 98 99 98
69 68 67 74 76 74 74 75 75 77 81 81 84 87 87 88 90 88 86 82 79 76 75 75 75 78 78 81 87 91 90 90 88 88 89 92 87 94 94 96 97 99 99
67 69 70 76 76 74 77 78 79 82 80 81 86 90 93 94 96 95 91 86 84 82 79 78 78 82 86 88 87 86 83 86 88 88 90 91 91 96 96 96 97 98 94
62 67 75 79 79 77 81 83 83 82 81 84 90 95 95 83 87 97 97 97 94 92 91 89 88 88 92 93 95 95 94 91 91 90 90 90 92 95 98 98 99 96 96
63 65 72 78 77 82 87 85 85 84 84 88 93 95 85 82 84 86 90 88 89 89 86 86 79 78 80 84 96 94 94 94 96 96 96 97 91 88 92 95 100 99 98
61 62 66 70 76 84 86 84 90 88 85 91 94 91 82 85 88 88 92 94 92 92 89 91 89 84 82 82 87 96 95 96 97 99 100 100 96 97 91 90 87 87 93
60 62 65 70 78 83 84 91 92 89 88 84 80 83 87 91 93 90 92 95 96 93 95 95 92 94 90 86 87 94 93 96 97 96 98 92 88 88 91 76 73 76 72
59 61 64 70 77 83 87 92 92 89 82 83 84 86 92 96 94 95 97 95 93 94 92 92 92 90 80 74 77 85 97 99 99 99 97 95 86 83 82 86 88 88 79
61 63 67 75 81 85 89 92 93 90 86 87 89 88 90 96 96 98 99 100 97 95 97 98 94 90 86 65 68 80 87 82 80 77 83 81 86 65 72 83 84 82 72
64 67 71 77 81 88 90 91 92 88 89 87 88 90 92 96 96 96 97 97 94 99 99 97 93 75 88 63 62 71 73 79 68 74 79 72 73 63 62 77 80 83 77
67 67 72 79 80 87 89 92 92 94 90 88 88 91 92 94 93 96 95 99 98 98 97 90 87 86 80 79 61 65 76 71 71 73 81 83 66 58 56 55 69 69 72
74 74 80 82 87 89 91 95 96 94 91 91 94 93 93 89 90 94 96 92 87 84 83 78 74 76 82 63 59 57 58 63 71 75 82 82 62 54 53 58 54 58 73
79 80 82 91 94 94 92 95 98 93 93 94 93 89 86 96 96 97 96 95 88 68 68 61 56 57 63 78 68 63 64 65 69 72 69 60 58 50 56 57 54 65 76
80 82 86 88 96 95 95 92 96 90 90 92 87 87 95 97 94 73 63 62 57 53 43 45 51 59 70 83 82 72 81 71 72 72 74 58 50 50 53 58 63 68 75
84 83 83 87 86 91 89 92 92 88 89 88 95 96 87 76 60 59 50 50 59 45 42 50 52 62 70 71 69 67 70 80 72 70 67 58 59 66 65 70 74 78 80
87 86 84 85 86 81 87 88 89 87 87 87 87 69 60 60 71 84 84 57 63 55 54 58 58 65 60 55 58 59 59 61 62 70 65 72 85 86 76 76 78 84 88

GFSMW_sfc_rhum_069.txt.gz
RH
40 42 41 44 52 53 48 47 45 45 88 97 97 97 97 96 97 97 94 95 94 90 92 90 91 92 88 79 85 86 90 93 94 86 82 72 62 59 60 64 61 88 94
40 40 53 60 60 63 59 54 51 47 47 60 76 94 97 97 96 96 95 95 96 96 97 97 95 95 94 94 94 94 95 95 96 93 80 86 73 68 61 62 54 57 91
41 50 58 64 67 70 71 66 64 54 50 48 52 57 64 97 97 97 98 96 96 96 97 97 97 96 97 96 95 95 96 90 97 94 92 88 87 83 72 65 63 56 76
51 57 62 67 67 72 72 68 65 63 57 56 53 51 55 59 74 76 83 70 81 92 96 97 97 97 98 98 97 95 95 96 96 99 94 95 87 89 89 73 75 81 79
58 63 67 68 71 69 70 68 65 65 65 66 61 62 59 63 64 64 62 64 73 90 87 94 98 98 98 98 98 98 98 97 97 98 98 98 97 89 93 92 91 82 84
69 69 74 73 74 75 73 72 69 73 74 77 77 74 72 69 73 82 85 86 89 92 91 90 94 98 99 99 98 98 98 98 99 98 98 95 96 98 97 97 94 95 91
77 80 79 78 77 76 73 70 73 74 76 84 88 90 91 91 91 94 96 94 95 96 96 95 96 97 98 98 98 98 98 98 99 99 98 98 97 95 95 97 96 98 92
82 79 77 78 78 74 74 75 74 73 78 86 90 91 93 96 96 95 96 97 97 97 95 95 95 96 96 94 96 98 98 98 98 98 98 94 98 98 98 98 98 99 97
81 77 77 78 79 78 75 76 74 76 84 87 88 89 87 85 84 81 81 88 90 78 88 93 94 94 93 95 95 97 94 95 98 96 90 93 98 97 98 99 99 98 98
76 77 79 80 80 78 77 75 73 78 84 87 87 88 88 85 84 84 84 80 77 74 75 79 81 85 87 93 95 96 97 94 93 93 94 95 95 96 96 98 98 99 99
77 77 79 84 80 79 78 77 76 79 83 84 87 89 89 87 87 87 86 83 79 77 78 77 78 81 84 89 95 94 96 92 89 90 91 92 92 95 96 96 97 98 99
77 78 74 85 85 82 80 79 81 84 85 85 89 91 90 92 93 92 89 85 85 82 82 83 85 89 89 91 94 94 94 95 95 94 92 93 88 94 92 95 96 97 97
71 73 76 86 84 82 83 84 86 87 86 86 90 94 95 96 97 97 96 94 92 92 90 89 91 94 94 96 96 96 96 94 89 88 90 90 89 94 94 97 96 97 93
68 71 74 80 79 79 83 86 88 86 86 89 94 95 93 85 88 96 97 96 95 95 94 92 89 91 94 95 97 96 95 94 94 96 96 94 93 96 98 98 98 96 96
68 70 73 76 77 80 85 85 86 87 87 92 95 94 85 82 84 86 87 87 87 87 81 78 76 77 79 84 95 88 91 93 97 97 95 94 88 83 87 96 99 99 98
67 66 69 74 76 86 88 85 90 89 89 93 95 92 84 86 88 90 93 90 90 90 90 91 88 90 80 84 92 91 96 96 97 98 99 95 87 84 78 80 80 81 94
65 63 67 72 78 86 87 92 91 89 90 91 91 84 86 90 91 90 89 91 93 92 94 93 89 90 86 83 87 92 91 93 97 96 95 88 84 86 88 80 78 77 70
64 62 65 71 79 84 87 92 91 88 88 90 86 86 89 92 92 94 93 93 92 92 90 87 89 90 79 69 72 85 96 95 94 96 95 94 90 85 83 83 91 80 74
65 65 67 76 84 88 93 94 95 92 90 91 90 90 92 94 96 98 98 100 95 94 98 98 95 90 87 65 66 75 81 79 78 76 88 86 88 66 66 78 84 81 75
64 68 73 78 86 92 93 95 95 94 93 88 88 90 92 93 96 97 96 97 94 99 99 96 93 76 88 64 65 71 71 80 70 76 76 73 73 61 59 75 75 74 75
66 70 74 79 82 91 90 94 96 96 88 88 89 92 93 93 92 96 92 100 99 99 97 92 88 87 81 77 60 66 71 69 71 74 80 76 64 57 56 57 69 66 73
72 72 78 81 85 91 91 95 96 94 90 89 93 94 94 87 89 92 98 96 93 93 89 84 80 75 78 70 62 58 58 64 66 70 77 80 70 59 52 56 56 57 73
78 79 81 85 91 93 92 95 95 92 90 92 94 92 90 91 85 95 95 94 89 83 78 71 61 56 59 75 70 63 59 64 70 70 69 59 56 52 56 56 55 67 76
78 79 82 87 90 95 93 92 96 89 90 91 89 88 90 96 98 97 92 94 84 78 59 54 53 60 64 80 81 71 78 69 70 72 73 54 51 53 56 60 64 69 75
82 82 81 85 88 94 96 95 91 88 91 89 89 88 88 93 97 82 65 62 58 55 50 49 50 58 63 68 72 75 73 79 72 74 66 59 64 70 68 70 74 78 80
87 85 81 85 86 88 92 89 90 88 91 94 92 94 97 86 69 70 78 56 55 62 60 50 55 56 55 55 57 59 59 59 61 71 68 68 80 87 77 79 80 84 87

GFSMW_sfc_rhum_072.txt.gz
RH
42 45 46 47 52 52 49 52 76 54 95 98 98 98 98 98 98 98 95 95 94 93 96 97 95 93 90 87 91 94 95 95 96 87 86 85 83 79 72 61 63 70 87
44 46 51 61 56 58 58 55 52 48 53 79 93 96 97 97 96 96 96 95 95 95 97 96 96 96 95 94 95 94 95 96 96 92 87 92 81 77 72 73 67 65 79
41 48 62 65 68 69 70 66 62 57 56 52 54 58 64 94 97 97 98 96 96 97 98 98 98 98 98 97 97 97 95 96 97 92 92 98 95 81 75 64 70 69 74
45 51 61 71 74 77 73 68 65 64 61 61 55 52 56 59 72 76 75 66 72 90 93 97 99 99 99 99 98 98 97 97 97 99 97 96 86 95 96 75 70 70 71
48 57 66 72 77 74 74 71 68 68 68 67 62 63 61 66 70 70 72 77 88 90 91 92 95 98 99 99 99 99 99 98 98 99 98 98 98 92 98 96 95 89 86
57 69 79 79 79 80 76 76 76 79 81 83 82 77 73 71 76 86 91 94 95 95 94 93 95 96 97 99 99 98 99 99 99 98 97 97 96 98 99 99 98 95 91
73 83 87 84 81 80 78 76 74 79 88 92 94 94 93 93 94 96 96 95 96 97 96 95 96 97 97 94 98 98 98 99 99 98 98 97 98 96 96 99 97 99 95
84 84 85 85 82 78 81 80 78 84 90 91 90 90 91 92 91 91 96 96 97 97 92 94 95 95 94 96 93 98 97 97 98 98 95 95 98 98 99 97 97 94 99
86 87 86 86 83 82 82 79 79 89 91 91 89 89 87 85 84 83 81 83 80 68 79 84 88 90 90 95 96 98 98 96 96 97 95 96 95 95 96 97 99 97 95
87 86 86 87 85 81 83 79 78 85 90 90 89 89 90 87 87 86 86 83 80 78 78 80 82 84 87 93 95 97 97 93 94 93 92 93 94 94 95 97 97 98 99
86 87 87 88 85 84 83 81 82 85 88 88 91 92 92 91 90 91 90 87 85 84 84 85 87 89 91 93 95 95 96 88 90 90 90 92 91 95 95 95 96 98 98
84 86 88 91 89 85 85 84 87 88 89 90 93 95 95 94 96 96 94 91 92 91 91 90 93 95 94 96 96 96 96 96 96 96 95 96 89 96 92 93 94 96 96
82 84 86 92 91 86 86 88 90 91 92 92 94 95 96 96 98 98 97 96 95 96 94 93 93 95 96 97 97 97 96 94 96 92 90 96 90 94 94 94 97 99 96
78 80 81 89 90 86 86 88 91 91 91 93 94 95 94 88 87 96 87 83 90 95 92 86 83 89 96 90 88 88 91 93 93 92 93 92 92 95 98 98 99 96 98
77 76 77 83 85 83 86 87 88 88 91 94 95 95 88 82 84 86 87 86 85 82 78 78 79 80 84 88 90 89 92 92 94 93 89 86 85 83 87 92 96 94 95
74 72 72 76 81 83 86 86 88 88 88 91 93 92 85 86 89 91 90 89 89 90 90 92 90 88 81 88 89 92 93 91 94 96 94 91 84 80 71 70 69 74 93
72 70 72 75 77 81 83 88 90 89 91 91 91 89 86 89 90 88 88 91 93 92 92 89 85 85 81 80 84 82 92 94 96 95 95 89 86 83 87 81 74 76 71
71 68 68 71 80 86 90 92 91 91 92 93 94 88 89 92 92 91 92 92 91 89 85 89 90 89 79 68 69 78 95 96 96 96 95 96 90 83 78 81 87 80 76
73 70 70 74 81 85 90 92 94 92 93 95 93 90 90 93 95 98 97 99 93 91 97 95 93 90 86 65 65 71 81 79 79 76 87 85 83 61 64 75 76 72 75
68 69 73 81 88 93 93 95 96 96 96 94 89 89 92 92 97 96 94 94 92 99 97 95 93 78 87 65 64 69 71 77 68 76 75 67 69 58 57 73 70 67 69
70 73 76 80 84 93 94 96 96 97 92 90 89 92 92 93 92 95 94 99 98 100 97 90 88 87 82 80 60 65 69 66 68 69 74 73 65 60 55 56 70 67 75
75 74 79 81 88 93 93 95 97 94 94 89 93 95 94 88 91 93 99 99 98 95 89 85 81 76 81 71 67 59 62 67 67 71 76 78 57 57 53 56 54 56 70
78 79 81 84 88 92 89 93 94 96 94 92 95 94 91 89 89 94 98 96 94 94 86 79 71 56 56 74 68 61 57 62 72 70 69 56 53 53 58 56 54 66 77
81 80 82 85 90 93 92 90 95 95 91 91 91 92 94 94 92 95 90 93 94 88 75 68 62 59 58 70 82 73 79 68 69 72 74 54 51 54 57 60 67 72 76
88 86 85 81 84 89 89 88 93 93 92 90 91 92 91 93 97 98 95 88 86 76 70 59 50 55 59 56 67 74 73 82 73 78 70 60 62 69 69 72 74 77 79
84 83 80 82 85 88 90 91 92 91 91 94 93 89 88 92 92 96 80 66 60 56 59 52 52 48 50 49 57 61 60 59 60 76 76 75 83 86 75 77 79 84 87

GFSMW_sfc_rhum_075.txt.gz
RH
34 33 33 33 39 41 44 56 79 78 82 85 85 86 83 86 85 83 76 74 74 75 81 81 81 81 78 76 75 76 77 75 76 77 69 67 63 68 67 57 56 56 57
35 34 36 40 40 43 44 45 51 47 65 82 82 83 84 83 81 84 81 81 82 84 86 85 85 83 85 81 77 77 79 80 84 79 78 80 65 60 58 57 57 54 52
36 34 40 45 52 51 54 50 48 47 47 46 49 53 58 78 85 87 87 72 75 87 91 91 90 90 89 88 85 85 85 88 87 82 88 92 85 76 63 55 54 51 52
40 38 46 53 56 62 66 61 59 57 55 53 47 44 48 51 61 62 60 56 70 75 78 80 87 95 97 97 93 89 89 91 94 93 90 86 85 96 90 74 66 64 57
40 39 50 60 64 68 67 64 63 63 63 60 56 54 53 55 58 60 64 67 77 77 78 78 80 85 90 95 96 95 96 93 92 93 92 91 93 88 98 96 88 69 68
39 45 60 70 69 70 70 70 68 72 73 72 71 66 64 60 63 72 74 76 77 78 79 79 82 83 89 91 96 97 98 96 95 93 92 91 92 94 96 98 94 81 74
41 56 72 71 71 72 73 70 70 78 77 77 79 79 80 79 81 82 80 78 78 80 79 80 81 83 83 84 88 93 96 97 98 95 94 94 95 94 90 94 90 86 80
50 62 69 72 71 71 70 68 72 79 76 75 75 75 75 74 73 73 76 73 76 75 71 74 76 76 78 82 84 90 92 94 96 95 93 95 91 91 93 96 97 91 87
63 70 75 72 69 68 69 67 73 78 76 75 72 72 70 71 71 69 67 66 65 59 65 68 72 73 76 80 82 87 91 89 92 92 90 91 89 90 91 90 94 97 95
79 78 75 73 70 68 70 68 69 73 75 73 70 72 72 72 72 70 70 69 67 67 68 70 71 73 75 79 82 87 87 85 87 86 83 84 85 86 87 91 90 94 98
77 76 76 74 72 71 69 68 71 73 74 74 74 75 76 75 74 74 73 72 71 72 72 75 76 76 77 77 78 81 83 80 81 81 82 85 84 88 86 84 86 92 93
78 77 77 77 74 72 70 69 72 72 73 75 76 79 79 79 80 81 80 77 78 77 76 77 78 79 80 79 79 81 80 81 82 81 81 82 78 82 79 83 87 89 86
78 78 79 78 75 73 72 72 74 74 76 77 78 81 83 82 84 86 85 82 80 79 76 76 79 82 84 84 83 83 83 83 80 79 80 81 80 86 87 86 87 86 82
76 76 79 80 77 74 73 74 76 76 78 79 80 83 82 78 80 84 81 79 79 77 75 74 77 87 84 84 84 86 86 86 87 87 86 80 80 82 87 88 88 86 87
78 75 75 78 79 76 75 76 78 79 78 81 83 85 79 77 79 81 82 82 78 76 74 75 77 81 83 82 87 86 85 84 84 81 74 78 79 78 78 80 86 80 77
74 73 72 73 77 75 75 78 81 80 81 83 85 84 81 81 84 86 86 86 86 86 86 85 84 86 81 86 86 86 86 85 83 90 92 85 75 73 68 69 67 68 75
66 70 68 67 71 72 74 77 78 80 82 82 83 82 82 84 88 86 86 88 90 88 87 84 81 82 81 81 77 73 72 79 86 88 90 82 76 68 70 71 73 72 69
68 68 66 68 70 73 77 79 81 82 83 85 85 84 84 88 89 88 90 90 87 83 80 81 82 79 69 66 71 79 90 91 90 88 86 80 72 70 57 57 72 66 64
65 66 65 68 73 76 80 82 84 84 86 87 88 85 85 90 91 93 94 99 90 87 88 85 87 84 76 63 64 66 65 66 65 62 70 64 63 57 66 61 57 47 58
69 68 70 74 76 81 81 84 86 86 88 87 86 84 87 89 93 92 92 94 86 90 88 92 86 77 78 63 62 63 55 56 54 56 55 64 57 55 57 57 52 53 59
68 71 72 75 78 86 86 88 90 91 86 86 86 88 90 91 91 94 90 93 94 91 87 79 76 72 68 65 68 65 53 51 53 54 54 57 62 61 54 61 51 59 62
75 74 76 80 86 88 87 91 93 89 88 87 90 92 92 87 90 91 90 94 88 79 73 66 63 62 61 69 64 60 68 63 53 55 58 63 55 51 50 50 52 62 62
74 76 76 81 86 87 85 89 90 88 89 89 92 93 89 87 88 88 87 88 85 79 72 61 56 45 46 57 68 61 57 62 62 57 64 56 50 52 52 54 55 62 57
76 74 76 77 83 87 87 83 86 87 87 88 90 90 91 91 86 84 84 84 83 79 65 59 56 53 44 49 57 60 60 61 61 65 65 52 48 51 52 51 55 58 58
78 77 77 75 76 79 81 80 84 87 89 87 88 91 90 90 89 86 84 78 73 67 61 57 50 49 45 43 52 62 61 62 63 72 63 55 48 50 51 54 57 59 60
90 91 89 90 89 88 84 82 84 87 88 90 89 90 90 91 88 90 90 81 76 70 70 62 51 42 45 46 56 64 69 66 62 69 67 56 56 56 52 56 58 62 67

GFSMW_sfc_rhum_078.txt.gz
RH
31 28 24 24 45 46 53 60 63 60 58 62 62 63 64 64 62 59 61 59 56 55 60 60 59 62 63 58 58 61 66 66 60 64 59 55 52 50 47 46 41 44 48
32 28 26 25 28 37 38 45 55 60 62 61 62 62 63 61 58 63 63 63 64 66 70 71 72 71 73 70 68 69 72 69 64 70 76 75 49 41 47 46 47 47 45
37 30 25 26 32 31 35 37 43 47 52 62 63 62 63 70 71 71 72 63 64 80 84 84 85 86 86 87 84 81 80 84 77 73 76 80 59 59 52 50 45 47 45
35 34 31 29 33 36 47 41 40 40 40 38 38 44 48 51 49 52 52 48 54 59 65 66 68 77 86 90 88 86 92 92 91 87 83 74 82 91 84 60 53 52 51
35 32 32 35 40 50 52 47 44 44 46 42 38 36 38 39 41 42 45 48 57 61 63 64 66 67 73 80 83 86 93 94 94 91 86 87 88 87 95 93 72 65 58
34 32 31 42 48 56 56 54 50 52 51 50 47 46 47 44 46 52 51 53 56 60 64 64 67 68 70 77 80 79 87 92 90 91 86 87 87 87 88 96 90 81 68
34 30 37 47 53 58 58 54 51 55 54 55 54 54 57 56 58 58 56 57 56 60 61 65 66 66 67 69 72 78 87 92 95 94 91 90 93 90 88 91 88 88 83
28 30 33 45 51 56 55 51 53 58 56 56 58 57 58 56 55 58 57 54 55 57 57 60 60 61 61 65 70 74 79 89 95 93 90 93 91 89 90 91 92 94 86
31 36 35 44 50 52 52 51 54 57 56 56 54 55 54 57 57 57 54 52 52 50 53 55 58 60 62 65 69 74 79 83 86 90 88 89 84 82 81 80 82 93 93
36 42 49 50 48 48 50 51 51 53 54 54 52 54 55 55 55 54 55 56 53 55 56 58 58 59 61 63 68 74 82 80 82 79 76 75 74 74 76 80 79 84 90
44 49 53 54 52 50 51 49 50 53 53 53 54 54 56 57 55 54 56 57 56 57 59 60 60 62 61 61 63 68 72 72 75 74 73 75 74 77 75 77 75 77 83
49 49 53 55 56 54 52 50 50 50 52 54 54 57 59 60 59 59 60 59 60 60 60 60 62 63 65 63 63 66 67 70 71 71 70 72 69 73 69 72 75 77 81
55 54 54 53 50 51 51 50 51 50 53 54 55 59 61 60 62 64 65 63 62 61 60 61 64 67 71 71 69 68 66 65 65 66 67 68 69 75 75 76 76 77 72
55 54 54 52 50 50 49 49 51 52 56 57 57 60 61 61 63 68 70 69 64 62 63 63 67 75 76 77 79 77 77 78 78 76 72 70 71 75 79 79 76 74 76
52 54 55 52 52 51 50 50 52 54 56 59 61 63 62 62 64 67 70 71 71 68 68 68 71 75 78 78 82 81 80 79 77 73 70 75 74 74 72 68 74 71 67
50 52 52 52 52 51 52 54 56 58 60 61 63 65 64 66 70 73 76 79 80 78 76 75 75 77 74 85 84 77 77 76 76 87 85 67 62 69 69 69 69 64 60
40 49 50 50 49 50 51 53 54 56 60 61 62 65 67 70 76 78 79 83 86 85 86 81 78 83 81 80 77 70 68 74 84 87 80 67 62 52 54 62 67 70 69
36 42 46 48 47 47 50 50 54 60 62 64 65 66 71 76 80 84 85 87 85 83 80 78 71 65 64 67 67 75 100 99 96 89 77 65 59 61 46 42 59 56 55
36 39 41 44 47 49 51 56 59 61 65 68 69 70 72 78 84 89 92 99 88 85 85 77 87 71 61 65 69 61 58 61 59 55 54 50 49 58 63 51 46 34 47
44 48 49 51 50 52 55 59 61 63 66 66 68 69 72 76 85 87 90 92 85 94 80 95 77 71 61 62 60 52 39 41 40 41 42 63 52 54 59 47 38 43 46
54 52 53 53 51 56 59 64 64 70 66 69 70 73 75 82 84 90 88 94 98 89 79 74 69 63 60 56 62 56 38 36 39 39 37 42 62 58 56 59 39 50 51
60 55 56 59 62 64 64 69 74 73 72 73 78 79 85 86 89 92 91 89 77 66 62 56 52 49 52 65 64 68 60 52 40 39 39 46 53 50 50 46 50 60 66
59 62 59 63 66 67 66 74 83 71 70 72 77 81 86 84 86 88 86 86 71 58 51 47 41 40 43 48 68 64 62 68 49 44 52 55 50 51 45 50 54 67 46
54 54 56 59 66 66 68 68 76 69 68 71 74 82 88 87 84 79 74 70 64 56 50 47 42 38 34 37 43 56 53 58 59 61 60 51 47 51 49 44 44 43 43
66 61 61 66 65 63 68 71 79 76 77 69 74 84 85 87 84 78 78 70 57 52 51 46 41 42 40 34 39 46 48 45 49 57 57 52 42 39 36 38 41 43 46
75 74 71 75 81 79 79 78 78 81 77 75 76 81 87 86 80 79 81 79 68 70 68 59 52 43 44 42 51 56 59 58 62 65 58 51 44 42 37 38 39 44 52

GFSMW_sfc_rhum_081.txt.gz
RH
29 26 24 24 42 57 56 56 58 56 53 61 64 60 64 61 57 52 52 53 52 52 55 56 57 59 61 58 57 60 64 70 67 76 69 64 57 54 53 50 47 46 49
29 28 25 24 27 45 49 54 55 58 58 59 62 59 59 57 55 61 57 57 58 61 65 68 72 76 79 71 71 72 78 75 74 81 82 86 61 46 44 50 48 48 50
27 30 27 26 25 32 39 40 48 57 61 61 66 71 68 71 70 68 70 68 63 77 80 84 87 90 93 93 90 91 91 91 87 81 87 82 71 62 58 54 51 49 52
26 31 31 27 26 29 38 37 40 45 47 53 61 66 65 64 57 58 61 56 54 58 63 64 65 71 83 88 90 88 90 90 91 88 90 88 85 86 79 61 59 55 54
28 31 33 33 30 39 50 43 39 39 40 38 36 40 38 40 40 39 42 44 53 56 59 60 62 62 67 72 76 78 80 86 88 89 88 91 92 92 99 91 82 70 64
29 30 29 32 37 52 56 52 44 43 43 44 42 42 48 44 44 48 46 48 52 58 60 60 63 64 66 70 76 78 84 81 85 90 93 91 95 93 96 98 93 87 72
30 32 31 36 41 56 59 55 49 49 48 47 46 47 50 49 50 51 51 52 52 57 58 62 63 63 64 64 68 74 74 80 93 92 90 89 94 94 88 94 93 93 88
29 34 31 36 41 52 55 52 50 50 48 50 52 52 53 54 53 56 54 52 53 55 55 56 57 57 58 61 63 72 78 80 92 92 95 95 94 92 94 94 94 95 88
27 35 34 32 38 48 50 49 50 51 50 51 49 50 51 54 56 55 53 53 52 50 50 54 56 57 59 61 64 70 78 79 84 88 90 90 88 88 87 86 85 90 95
26 28 33 33 39 45 47 47 47 50 50 49 47 50 51 52 53 52 53 53 51 52 54 54 55 56 57 59 63 70 77 80 83 82 79 84 82 82 82 83 78 83 88
30 31 37 40 44 46 49 48 48 50 50 49 50 50 52 52 51 52 53 54 54 55 56 56 57 58 58 58 60 64 69 70 75 76 77 76 74 78 79 82 79 81 84
38 38 42 45 46 49 49 48 48 48 50 49 49 51 54 55 55 55 56 56 56 56 57 57 58 59 61 61 61 64 65 69 70 70 71 72 69 73 71 76 79 82 84
42 41 45 49 49 50 48 48 48 47 49 49 50 54 56 56 56 58 60 59 59 58 57 58 61 63 68 68 66 64 63 64 65 66 67 69 70 77 78 79 80 83 76
44 44 47 47 46 45 45 46 48 47 51 51 52 54 56 56 57 61 63 64 60 60 60 60 63 69 71 74 75 74 74 76 75 74 72 72 74 77 80 81 83 78 80
41 45 48 46 45 46 45 45 46 49 52 54 56 57 56 55 58 61 64 66 67 65 65 66 68 72 75 76 81 80 80 78 76 73 73 76 74 73 73 72 79 77 77
36 43 46 45 45 46 46 48 49 52 53 55 58 57 58 60 63 65 68 72 75 74 72 72 72 75 71 85 81 77 78 75 78 90 84 70 64 70 68 68 68 68 71
30 38 42 44 43 44 46 48 48 51 55 55 56 59 60 62 67 68 71 77 82 84 85 80 77 78 77 80 80 75 76 84 90 91 83 68 57 53 60 60 63 68 65
34 32 34 40 42 41 44 44 47 52 57 57 57 59 62 67 70 75 78 82 84 86 85 82 78 74 70 66 67 83 100 100 98 94 83 76 68 64 50 50 64 61 60
28 29 27 34 40 43 44 47 50 54 59 61 62 62 65 71 75 83 88 99 90 89 92 83 88 72 68 64 65 63 70 72 70 59 54 52 52 61 60 60 56 42 55
36 38 36 40 42 44 46 52 54 56 59 60 61 62 67 71 76 82 89 94 90 98 96 98 81 70 65 62 61 53 47 47 48 46 52 62 59 54 59 56 47 53 58
47 45 45 45 46 46 51 56 55 62 58 61 62 66 68 74 73 85 90 96 99 95 85 76 69 60 53 54 58 54 42 42 45 47 44 51 61 56 57 57 52 59 62
54 50 52 54 54 54 57 64 68 69 62 65 69 70 73 79 86 94 95 92 86 84 72 63 59 56 54 63 67 63 59 45 48 46 44 56 53 51 51 53 45 56 72
59 58 59 63 64 62 60 67 75 68 67 69 73 71 75 80 87 93 92 89 80 73 61 54 49 50 51 53 67 64 65 65 59 51 51 57 50 48 51 46 52 65 63
51 51 53 57 64 61 63 62 68 67 70 73 69 70 79 85 87 86 84 86 82 73 54 48 47 47 45 48 53 69 68 63 67 58 72 62 53 48 51 51 54 56 50
59 56 55 56 57 59 62 59 65 70 78 74 70 72 78 84 88 84 79 78 68 64 51 50 49 49 48 43 44 49 57 59 61 61 65 67 59 53 47 47 47 50 52
83 72 66 66 70 73 78 78 79 82 85 87 82 79 81 84 85 85 82 77 72 66 66 64 54 52 48 39 45 48 52 53 51 65 66 65 62 56 47 45 46 52 58

GFSMW_sfc_rhum_084.txt.gz
RH
41 37 36 39 63 72 78 82 81 75 66 74 77 88 82 75 74 69 62 61 62 62 72 78 69 69 71 68 70 71 78 91 89 93 93 89 81 78 74 74 72 68 60
39 35 36 37 36 77 82 86 79 80 83 81 86 88 83 85 77 75 73 70 74 85 84 86 90 91 92 89 87 89 90 87 82 91 92 90 82 74 68 73 65 64 66
38 38 34 35 34 45 65 66 79 81 88 86 88 92 91 91 91 88 87 70 71 85 87 86 91 95 97 98 97 96 96 97 91 88 91 95 94 87 77 71 69 70 73
29 37 37 38 36 38 51 46 56 69 68 78 92 90 93 94 76 78 82 71 68 74 76 74 74 80 91 94 94 92 95 96 98 96 96 95 91 94 91 78 78 74 72
37 37 40 36 39 57 61 53 52 54 54 56 62 73 59 61 58 58 61 63 71 72 74 75 78 80 85 89 90 92 93 94 97 94 91 96 95 93 97 96 90 86 78
36 38 41 40 55 67 64 60 56 56 54 54 53 53 56 58 62 65 66 69 76 77 75 72 77 78 81 84 90 91 85 87 91 90 95 98 95 98 99 99 97 94 84
37 41 48 50 61 69 72 64 58 61 61 61 59 61 64 61 64 67 69 69 73 77 75 74 76 79 76 77 80 86 92 90 94 97 98 95 97 96 96 96 97 97 93
39 41 47 53 63 71 71 65 62 62 61 63 66 69 69 74 74 72 72 70 72 73 68 70 72 71 72 75 78 85 92 90 95 96 97 97 95 95 96 97 97 99 98
37 48 49 50 62 72 70 66 64 63 63 65 65 66 67 68 71 69 69 69 66 56 62 65 68 70 71 73 77 88 93 92 92 96 93 92 92 91 91 91 92 95 98
41 42 43 53 60 59 65 62 64 64 64 61 63 62 63 64 64 66 66 67 66 66 67 68 69 70 70 72 76 87 88 83 89 88 88 89 88 90 90 90 87 89 94
42 42 44 54 62 60 57 61 63 62 64 63 62 63 64 62 63 66 66 68 68 69 69 69 70 71 73 73 76 81 82 81 82 83 83 83 84 88 88 90 88 92 92
49 49 54 62 64 67 62 58 57 58 59 60 61 66 67 66 66 68 69 67 71 70 71 70 72 73 76 77 79 80 81 84 86 86 80 81 74 84 82 86 89 94 93
58 58 63 65 65 67 67 66 63 62 62 62 62 66 70 70 71 73 72 70 72 73 72 71 74 79 82 84 84 83 82 82 83 81 79 84 81 87 90 88 91 90 85
54 58 65 69 69 65 63 64 64 63 63 63 67 71 72 69 71 73 73 73 73 74 75 74 79 81 83 80 80 80 82 83 83 84 83 80 82 86 88 88 91 87 87
54 59 65 68 67 67 65 64 64 68 68 68 70 71 70 70 72 76 79 80 80 78 77 74 74 76 79 78 85 85 86 85 83 82 78 82 76 74 76 83 88 84 93
39 55 60 62 64 66 65 63 68 70 71 74 76 74 71 72 76 79 82 86 88 86 80 78 79 81 70 84 80 80 84 84 87 92 85 77 76 71 67 68 67 71 84
43 45 58 61 63 64 63 68 70 71 73 75 73 74 74 77 84 82 80 82 92 91 89 85 82 85 83 82 81 78 86 92 93 92 86 75 58 62 73 64 65 64 62
46 46 54 58 60 62 64 65 68 73 75 76 74 75 77 82 85 85 84 90 94 93 91 88 87 88 79 73 71 86 98 98 98 94 90 88 78 64 59 64 71 74 80
46 46 47 52 61 62 64 65 71 75 78 79 78 78 80 86 85 87 91 99 95 94 94 90 88 85 83 66 67 80 91 90 88 74 70 62 76 64 58 66 58 58 65
53 53 54 52 64 67 65 69 73 76 79 77 78 79 82 87 82 87 91 97 95 99 99 98 88 74 83 65 62 58 62 63 60 60 70 60 65 56 57 68 54 63 76
63 64 66 68 69 67 68 73 77 81 77 77 78 81 86 86 83 89 94 98 100 97 95 91 90 80 75 69 61 54 52 51 54 58 56 72 58 56 58 56 65 70 73
67 66 74 76 73 72 74 80 83 81 80 80 82 86 88 83 89 95 98 96 91 90 86 80 84 76 69 64 62 58 55 48 54 54 54 70 55 53 52 56 46 54 72
72 72 76 79 77 75 78 84 90 82 83 85 89 90 88 86 91 98 97 94 87 85 82 74 75 73 67 71 68 71 68 64 67 56 58 61 52 51 52 45 49 58 80
67 67 73 80 79 76 76 86 88 83 83 80 80 80 84 90 93 91 91 91 87 83 78 67 69 66 65 66 75 79 79 67 73 59 70 69 62 55 56 52 55 69 66
68 67 69 73 78 77 78 80 80 82 84 80 81 84 85 88 94 91 88 89 80 78 77 66 62 63 62 59 59 71 81 80 75 77 78 82 75 67 60 59 56 58 59
88 81 74 80 80 78 75 78 76 80 83 85 87 88 92 92 92 92 89 81 79 76 78 66 63 60 54 53 51 52 56 60 61 71 74 79 80 72 59 55 54 58 60

GFSMW_sfc_rhum_087.txt.gz
RH
50 38 39 54 73 88 89 87 87 86 83 94 96 95 91 82 77 74 68 66 67 70 74 81 77 78 75 75 78 79 83 85 87 88 88 88 90 90 88 87 84 66 71
48 43 40 39 48 83 88 86 82 88 85 81 90 94 95 94 88 90 84 82 85 87 86 86 91 92 92 91 91 92 93 90 86 88 91 94 85 82 79 85 72 65 65
47 44 44 41 40 70 90 89 87 91 92 90 90 96 96 96 95 95 88 77 77 83 85 87 92 93 95 97 97 97 96 98 92 88 89 92 96 94 84 78 75 68 73
48 44 40 42 39 47 65 65 83 94 89 94 94 96 96 97 92 96 89 87 75 76 79 79 78 81 90 94 96 92 96 96 97 96 96 96 95 92 95 89 83 78 72
46 46 42 39 38 54 58 56 62 77 75 82 94 92 81 74 80 80 77 70 74 75 77 79 84 86 90 92 93 93 94 95 96 98 94 86 95 96 99 97 94 92 81
45 45 42 40 48 64 65 58 57 58 73 65 64 65 58 61 64 67 72 79 82 82 79 79 82 84 85 85 88 90 93 94 94 94 91 93 96 97 98 99 97 92 93
46 47 52 54 73 76 71 66 67 72 74 64 64 60 58 59 62 68 77 80 84 86 78 78 79 79 77 79 83 88 92 94 95 94 97 96 98 97 96 97 97 97 97
47 50 54 58 72 73 74 70 68 70 71 68 74 75 74 78 76 75 77 78 80 76 72 73 76 76 76 79 82 88 95 94 96 91 94 97 96 96 98 97 97 99 99
42 52 58 57 75 79 75 67 70 70 71 74 70 73 72 72 73 72 72 74 70 62 70 71 73 74 75 76 80 89 93 93 96 96 95 94 93 93 93 94 94 97 98
45 51 62 67 76 78 78 72 65 68 69 67 66 69 69 70 69 73 71 70 67 67 72 73 74 75 76 77 80 89 92 91 93 86 95 93 91 91 91 92 90 91 95
47 49 55 72 77 80 76 77 71 66 65 64 64 65 67 67 69 69 70 68 71 72 73 73 74 76 78 80 83 85 84 87 87 86 89 86 86 90 91 91 90 92 93
54 55 60 75 79 78 74 73 66 63 64 66 64 65 66 68 72 71 69 70 72 70 73 74 76 80 84 85 86 86 86 89 90 88 87 82 76 85 84 87 89 90 92
60 62 70 78 81 81 77 75 71 74 68 68 65 70 73 72 71 72 70 71 72 75 74 75 80 84 86 89 90 90 89 89 90 85 82 84 83 88 89 91 92 93 91
60 67 74 77 80 79 75 73 72 68 67 69 74 73 73 72 74 78 78 77 78 80 80 80 82 84 87 87 88 88 87 88 89 86 83 82 84 87 90 89 91 87 91
63 66 72 77 78 80 77 76 75 74 72 73 77 79 78 76 78 81 83 82 82 82 82 84 85 81 80 78 86 86 87 86 86 84 78 83 81 77 78 81 85 90 93
55 62 65 71 74 79 76 73 76 77 76 79 80 79 78 79 84 86 89 90 91 89 85 85 84 82 72 84 82 83 86 85 84 90 86 85 80 70 68 66 66 74 85
48 49 65 67 68 70 66 70 73 76 79 81 81 81 82 84 88 89 91 93 93 92 92 88 84 85 86 84 82 81 88 92 92 90 82 71 66 69 76 66 66 65 64
54 52 55 67 70 68 65 70 72 74 79 83 83 83 85 89 92 92 92 93 96 96 95 90 88 88 82 79 80 86 98 97 97 95 91 86 74 63 66 71 77 77 77
66 61 53 58 71 68 65 67 73 77 80 83 84 84 86 92 93 94 94 98 96 97 95 93 93 89 86 71 78 89 93 91 88 79 70 77 77 56 55 63 64 69 72
69 71 72 63 66 75 67 70 76 79 81 84 84 84 88 90 93 94 92 97 96 98 100 98 88 80 86 67 64 78 86 86 80 76 69 65 66 60 58 57 58 64 73
71 71 79 84 82 81 69 76 81 82 82 84 84 86 90 92 91 93 94 98 100 99 96 92 87 80 82 80 63 58 54 59 61 61 59 70 62 60 58 60 64 70 73
76 78 82 85 84 82 77 85 86 85 84 85 88 91 93 89 92 94 97 98 95 94 91 87 85 84 85 72 64 58 56 51 55 56 55 66 58 58 58 60 52 54 69
77 81 85 85 84 82 81 84 88 84 85 88 92 93 94 94 91 95 98 98 92 89 87 84 82 90 82 81 67 62 56 57 58 56 56 67 58 55 55 52 52 53 82
74 78 83 86 86 81 82 85 87 85 88 91 94 93 94 92 92 92 94 94 91 89 87 84 80 83 78 80 81 85 81 72 72 59 67 66 64 58 59 55 56 75 80
72 72 74 79 80 81 83 89 89 88 90 91 89 92 86 91 96 93 92 92 83 81 83 80 72 75 74 66 65 74 84 87 82 80 76 81 73 70 64 62 58 63 62
84 79 75 74 76 78 79 82 80 81 83 86 87 88 90 93 93 96 94 88 84 82 81 77 69 65 59 56 59 62 65 69 72 81 77 79 80 76 65 58 57 59 62

GFSMW_sfc_rhum_090.txt.gz
RH
56 57 78 89 89 91 92 92 92 89 87 97 96 98 93 84 86 85 76 68 68 74 79 84 85 79 78 76 77 79 81 85 86 88 88 90 83 90 94 95 94 81 76
50 48 51 76 89 92 93 94 90 91 92 92 93 95 95 96 94 93 90 82 82 81 80 82 90 90 90 90 91 91 92 92 88 85 88 94 87 86 83 89 85 80 72
51 49 49 46 59 93 94 91 92 93 91 92 95 98 97 97 97 94 93 92 88 90 89 90 93 94 95 95 96 96 96 96 92 88 90 94 94 95 86 86 80 74 74
54 50 46 48 48 69 94 93 94 94 90 94 94 93 95 95 96 98 95 94 87 84 83 81 82 84 90 94 96 95 96 97 97 95 96 97 96 96 89 90 90 89 86
56 51 49 43 42 49 82 88 94 96 94 96 93 93 97 94 92 97 93 90 82 77 78 80 83 87 92 94 94 94 94 96 97 97 95 89 90 95 97 92 93 96 92
52 51 49 47 50 58 70 78 88 94 87 87 97 95 93 84 91 88 87 81 82 83 82 81 84 85 85 86 91 91 93 95 96 96 96 96 93 89 99 100 97 96 93
52 52 54 55 58 69 72 69 71 80 89 79 90 86 88 84 86 86 87 86 87 82 79 79 80 80 79 79 81 85 90 93 97 96 96 97 98 98 96 98 96 98 94
48 50 54 58 63 70 76 71 72 74 79 86 85 87 80 85 84 83 87 88 84 78 77 78 80 78 78 80 84 90 94 95 97 96 94 96 97 96 98 98 97 99 100
42 53 57 61 75 79 78 73 75 76 75 78 78 79 73 73 75 74 75 80 76 68 75 73 77 77 77 78 82 90 94 94 96 96 96 96 96 96 95 95 97 97 99
50 54 68 67 80 81 85 80 77 79 80 77 72 69 69 69 71 72 71 71 70 70 72 74 75 75 77 79 84 90 93 93 95 93 94 96 96 95 92 92 91 92 96
53 51 65 74 84 86 85 82 81 80 77 70 69 67 68 66 66 66 68 67 68 72 72 74 75 77 79 83 86 88 87 90 93 90 92 90 91 95 92 91 92 93 94
56 56 60 80 84 86 87 86 82 79 69 70 67 72 68 69 68 69 71 71 73 72 73 72 78 81 80 86 89 88 88 91 91 90 92 89 81 86 84 88 90 91 93
68 67 77 80 85 87 87 87 83 82 72 68 70 72 77 73 69 69 72 72 72 73 73 76 80 84 86 88 90 90 90 92 92 90 83 85 84 88 90 91 92 93 90
60 65 74 82 85 87 86 86 85 82 78 73 73 78 80 77 75 81 74 76 78 76 77 81 82 87 90 90 90 92 91 92 90 88 84 83 85 88 90 89 90 88 92
58 65 70 76 84 88 87 86 84 82 80 82 83 84 81 76 76 81 84 82 80 82 82 85 86 88 87 80 86 87 88 87 86 84 81 86 85 80 80 82 87 90 93
49 63 68 74 81 87 86 83 85 84 81 84 84 83 83 84 86 89 90 91 91 90 89 88 89 90 76 81 82 84 88 86 86 91 88 86 79 74 68 66 69 80 92
53 53 54 66 74 80 79 82 83 83 82 82 85 85 86 89 92 93 94 94 94 93 92 92 92 92 89 84 84 82 88 92 92 88 81 74 71 74 82 69 73 69 68
62 62 64 60 70 74 79 78 81 79 80 84 85 86 88 91 93 94 95 95 95 96 96 95 93 88 84 82 86 85 100 99 94 92 89 82 71 64 73 76 81 75 73
71 73 74 69 66 82 72 76 82 80 83 85 86 87 88 92 94 95 96 96 96 97 96 95 95 93 89 78 82 90 92 93 92 88 86 81 73 58 56 72 74 70 72
75 75 74 79 79 81 78 76 80 83 82 84 86 88 90 92 94 94 96 95 94 99 100 99 92 87 85 74 76 83 87 90 87 82 77 71 71 58 59 58 60 64 69
77 81 86 88 89 88 83 78 82 83 78 85 86 89 90 93 93 95 96 97 100 99 98 95 88 81 75 76 66 69 78 78 76 74 68 75 63 59 57 54 59 61 71
77 82 86 89 90 88 84 85 86 86 82 87 86 90 93 90 92 95 96 96 96 97 94 91 89 83 77 73 68 62 60 58 61 62 57 64 62 59 60 63 56 60 67
80 83 86 86 89 89 85 88 89 82 83 85 89 92 93 95 95 96 98 98 95 94 92 91 88 85 80 89 71 66 61 57 60 58 56 59 64 59 60 59 54 53 82
76 83 87 86 87 88 84 82 84 81 81 84 90 93 95 96 97 95 94 95 95 93 90 90 89 85 81 88 87 88 80 61 67 59 68 66 68 63 63 59 57 73 84
76 78 82 80 84 87 90 88 85 84 87 90 94 96 95 94 95 95 93 94 87 85 87 88 86 85 82 78 76 79 91 94 88 76 74 82 78 74 69 66 63 64 70
87 81 79 84 83 81 81 86 85 86 88 94 92 92 94 94 94 96 97 91 87 85 82 80 80 75 72 66 66 67 67 75 77 88 82 79 84 79 70 64 60 59 60

GFSMW_sfc_rhum_093.txt.gz
RH
75 69 87 94 96 98 97 96 92 88 86 90 96 98 92 92 91 86 74 71 77 76 80 84 85 88 88 80 80 82 84 87 88 87 88 88 86 90 94 92 94 94 86
57 54 58 92 94 94 94 95 89 91 86 84 89 93 94 96 92 91 88 81 80 78 78 82 85 87 88 87 87 88 89 89 88 84 88 93 88 89 87 88 85 90 82
55 56 52 64 79 94 97 94 94 93 94 93 96 98 98 99 99 97 98 97 94 94 94 95 96 96 95 95 95 96 96 94 95 90 88 94 97 96 88 87 83 80 87
56 54 54 52 52 57 95 96 95 96 94 97 98 96 98 97 97 96 98 97 96 94 93 94 93 93 96 96 97 97 97 98 98 96 96 96 96 96 94 90 94 85 82
60 54 52 50 48 49 56 96 97 98 97 98 97 97 96 97 98 99 98 97 96 91 88 86 86 91 94 93 92 94 95 97 97 98 96 94 95 94 97 96 96 94 86
61 58 54 52 51 52 62 85 94 96 97 98 98 98 98 98 99 99 99 97 94 91 87 86 88 89 88 90 93 92 93 96 96 97 97 97 95 94 97 99 94 93 92
62 59 57 56 54 56 65 77 90 96 93 92 98 98 98 97 97 98 97 95 94 94 91 88 82 79 79 80 82 84 88 92 96 97 97 97 97 95 98 97 96 99 94
58 56 56 58 60 59 66 74 79 86 94 90 92 94 95 96 94 94 96 97 96 88 77 78 78 77 77 79 81 87 93 96 97 98 97 96 96 97 98 98 98 98 99
46 52 62 60 61 68 73 76 78 78 83 88 89 93 94 94 95 91 91 92 88 76 74 76 79 79 79 80 82 89 91 95 96 97 97 97 97 97 98 98 99 98 98
50 52 66 71 75 83 85 83 81 82 84 85 84 84 84 89 83 73 73 70 68 71 75 74 77 78 78 80 82 86 91 95 96 95 93 97 97 96 96 96 94 94 98
51 54 58 77 82 87 86 84 83 85 89 87 84 84 81 79 76 71 68 67 70 72 71 73 73 74 78 78 84 88 89 91 93 93 93 92 89 96 96 95 93 94 95
57 63 66 79 84 85 86 87 88 87 86 83 79 81 78 72 71 78 70 68 71 72 71 73 76 80 82 83 87 89 89 92 93 94 92 92 81 89 91 89 90 92 93
59 62 68 75 81 85 87 88 89 88 84 80 79 77 75 74 76 78 79 72 74 74 73 75 80 85 88 90 91 90 90 91 92 92 91 86 84 88 90 91 92 94 91
56 64 68 73 82 86 88 90 90 90 85 82 81 78 75 76 79 77 74 78 73 75 76 81 83 88 90 90 91 92 92 92 91 89 85 84 85 88 91 90 92 91 93
49 58 66 72 81 86 89 90 90 91 88 86 85 84 81 74 74 77 78 78 77 79 86 90 90 91 89 85 91 91 92 88 86 85 82 88 88 83 83 85 88 90 94
51 51 62 72 75 84 87 90 91 91 88 89 88 87 88 88 90 90 91 91 91 92 91 92 92 92 82 76 80 84 90 88 88 91 90 86 82 77 70 68 70 85 90
58 60 61 62 66 76 78 88 91 90 90 90 90 89 90 91 92 93 94 94 94 93 93 93 93 93 91 82 82 83 89 92 94 91 84 75 76 81 87 78 76 73 69
61 61 66 70 70 70 82 83 90 89 88 90 90 91 91 92 94 95 95 95 96 96 96 95 94 94 88 82 84 87 100 100 97 91 80 83 73 75 79 81 76 77 78
68 74 76 76 77 76 78 89 90 86 86 86 88 90 91 93 95 96 96 96 96 97 96 96 95 95 91 83 85 91 92 92 88 81 89 74 73 63 65 78 73 71 71
76 78 80 80 85 80 84 90 89 88 86 84 86 89 90 91 93 94 96 96 95 99 100 100 96 92 92 81 80 88 95 93 92 87 80 72 76 62 56 66 70 67 73
76 78 86 90 90 91 91 92 91 88 79 86 88 90 91 92 92 95 96 96 99 99 99 98 93 87 85 78 78 75 81 80 84 81 84 79 69 64 58 57 59 58 70
78 77 88 89 89 92 94 93 92 86 91 84 88 92 93 90 93 95 97 97 98 95 96 95 92 87 78 78 74 68 72 70 73 73 75 67 70 63 61 65 55 59 71
79 81 88 89 88 90 91 94 92 92 90 84 86 88 89 90 93 96 98 99 97 95 96 95 94 93 85 81 73 69 65 63 70 65 62 59 59 62 62 63 59 57 77
73 79 86 89 89 89 88 89 92 90 87 83 86 88 90 95 94 94 96 97 98 96 94 94 95 91 87 83 84 88 86 69 67 62 71 64 67 69 68 66 64 73 86
75 79 85 87 86 85 90 90 84 85 90 91 93 94 92 94 96 92 92 92 87 86 90 90 91 92 90 81 76 80 91 92 80 78 77 84 82 80 74 68 63 68 77
84 78 82 89 86 84 87 88 84 82 86 91 93 94 95 96 95 95 97 87 86 88 86 83 86 86 79 75 76 74 72 77 79 86 79 80 86 80 75 70 68 67 67

GFSMW_sfc_rhum_096.txt.gz
RH
85 94 98 93 91 88 85 87 88 83 88 95 95 91 88 91 92 87 79 75 69 72 76 80 84 88 88 89 90 83 85 88 89 92 91 90 88 90 92 94 95 94 93
64 56 78 99 96 92 90 89 85 79 88 89 88 92 94 97 95 92 89 75 76 76 77 82 85 88 87 84 85 87 86 84 86 87 89 94 88 90 91 92 90 92 88
61 60 55 92 97 99 96 93 88 85 84 82 94 99 99 99 98 98 96 94 88 88 88 91 93 96 98 97 96 93 91 93 96 92 86 89 96 96 92 93 93 89 96
62 57 57 53 79 91 97 97 97 94 91 94 87 93 91 91 94 96 98 99 99 99 98 98 98 98 98 98 97 98 97 97 97 96 96 96 94 94 91 95 97 94 87
61 55 54 53 51 52 69 96 98 98 98 99 95 95 93 90 98 99 99 99 97 95 95 96 97 97 98 98 97 96 96 97 97 97 97 96 96 98 98 97 96 97 95
64 59 55 56 54 56 56 67 92 97 98 99 99 99 98 99 100 99 98 99 97 96 96 95 93 91 89 89 91 93 93 96 97 97 97 97 96 95 97 99 96 96 98
63 63 61 57 55 56 57 66 81 90 97 99 99 99 98 98 97 98 98 98 98 98 98 95 90 83 79 81 81 84 86 90 93 96 98 97 98 96 91 99 96 97 98
62 59 58 60 57 55 57 66 77 89 96 92 96 97 97 99 99 98 98 97 97 98 97 92 85 77 76 77 82 83 88 95 96 97 98 98 97 97 98 98 99 98 99
55 61 76 65 62 62 61 68 79 87 94 94 94 95 96 97 98 98 97 97 97 94 90 87 87 82 78 77 79 84 88 94 95 96 97 98 97 97 98 98 99 98 96
53 55 62 77 76 79 80 83 82 83 86 89 90 92 95 96 96 96 97 95 86 81 79 77 75 76 77 78 81 85 90 94 96 96 94 95 97 97 96 97 97 96 97
58 60 63 77 86 87 87 87 87 86 88 89 89 91 92 92 90 88 84 79 75 72 70 71 72 74 76 78 79 82 89 87 89 92 94 94 93 96 92 95 96 97 96
62 64 68 75 83 85 88 87 88 89 91 91 89 88 85 82 82 83 81 79 79 76 73 75 75 77 79 80 82 83 89 91 92 93 94 92 84 87 86 91 93 94 94
52 61 65 71 79 83 86 88 90 90 90 89 88 88 86 84 83 83 80 78 80 80 80 81 83 82 84 86 89 87 90 92 92 92 93 91 85 88 89 90 92 94 91
52 56 62 66 75 83 86 87 89 91 90 89 88 88 88 84 83 79 76 78 80 81 84 81 84 83 88 90 91 92 92 92 91 90 89 84 86 87 90 90 92 92 94
50 51 54 63 73 78 83 88 90 91 90 90 90 90 87 84 84 83 84 81 78 83 86 84 88 90 89 85 90 92 94 92 88 85 83 89 88 84 84 86 91 92 96
54 56 57 61 67 77 80 86 89 91 92 91 90 90 89 89 89 90 88 84 90 91 87 91 92 93 85 77 78 86 93 90 88 91 90 86 83 81 74 72 72 82 93
60 60 62 65 67 66 69 78 85 91 93 92 91 91 91 91 93 93 93 94 94 93 93 94 94 93 91 78 81 82 90 93 95 94 89 78 77 82 92 83 80 76 71
60 59 61 66 68 69 71 79 88 92 93 93 92 92 92 93 94 94 94 95 95 95 95 95 94 94 91 81 83 85 100 100 99 94 84 78 74 82 82 78 76 80 85
69 70 71 72 75 74 72 80 90 93 94 92 91 91 91 93 94 95 96 96 96 96 96 96 96 96 94 82 84 92 94 94 90 77 72 70 69 59 68 77 74 79 78
73 74 75 79 84 76 86 92 92 94 94 89 88 90 90 90 92 93 96 96 96 99 99 100 97 94 95 83 82 90 92 91 85 81 83 73 75 64 59 77 74 75 77
76 77 83 86 83 86 92 94 93 95 85 88 92 91 91 91 91 94 96 97 99 99 98 98 98 95 94 90 80 86 85 95 92 86 84 81 72 64 59 60 71 63 72
83 80 86 83 83 89 93 94 95 88 90 92 91 92 93 90 93 95 97 97 98 98 98 95 95 90 82 81 76 78 74 71 73 77 81 80 70 66 62 66 55 51 67
84 86 84 83 86 89 92 95 91 94 94 93 90 90 94 95 95 95 98 99 98 98 98 95 96 96 89 83 78 74 72 74 78 68 65 65 62 70 67 64 64 60 82
75 85 90 89 86 88 90 93 92 94 94 93 87 88 89 92 90 89 92 97 98 99 98 96 98 96 93 89 85 86 80 71 74 71 74 65 66 68 76 72 73 78 85
72 81 85 83 83 88 90 91 91 94 95 95 92 92 94 93 95 92 92 93 94 90 93 93 94 96 95 87 81 79 82 93 83 78 75 80 83 88 83 74 70 71 79
84 85 82 86 81 90 90 90 85 87 91 97 96 95 96 97 96 97 99 91 87 85 84 83 87 91 82 77 79 80 75 76 77 83 80 83 89 91 84 75 70 67 67

GFSMW_sfc_rhum_099.txt.gz
RH
87 92 91 93 93 92 88 88 78 77 81 90 96 95 95 91 90 85 74 69 68 67 71 70 69 67 68 68 66 68 70 84 82 77 64 62 62 61 62 61 65 69 72
86 93 90 97 94 91 83 89 85 77 78 85 85 92 96 95 92 91 83 74 75 75 73 71 70 67 71 72 77 81 86 72 75 68 75 73 57 62 65 63 65 68 68
65 71 88 94 94 92 90 86 84 83 78 86 92 95 95 95 94 92 91 90 86 87 87 87 83 79 80 86 87 88 80 78 80 76 69 76 74 73 68 70 66 66 70
60 57 61 70 87 95 90 85 81 83 84 93 91 89 92 92 90 88 96 97 95 97 98 98 97 95 97 98 99 94 90 88 87 86 82 81 81 79 74 73 72 68 69
61 60 56 57 67 69 90 95 97 97 88 89 88 92 91 94 87 91 98 97 98 97 99 99 98 99 98 98 97 97 95 93 88 86 84 81 86 86 86 77 79 75 71
59 53 52 52 51 58 60 77 90 93 95 95 96 95 94 92 97 98 98 98 98 98 97 97 97 96 96 96 93 90 87 88 88 84 82 81 74 76 83 88 83 80 79
52 53 52 53 52 56 60 58 64 74 90 96 94 94 96 95 96 97 98 97 97 97 97 94 97 96 95 88 80 80 79 78 80 84 85 82 81 80 80 85 85 85 84
50 50 51 55 56 56 54 58 59 67 87 91 93 92 94 96 94 95 95 94 93 93 93 97 93 90 88 83 86 92 89 84 86 84 89 87 85 85 86 90 88 86 83
52 51 57 62 61 58 55 57 61 70 85 86 86 88 91 93 93 94 92 92 92 92 92 87 88 87 83 80 78 75 74 80 84 88 88 87 83 83 83 85 87 86 86
50 50 50 63 70 71 72 68 68 70 80 85 81 84 86 89 91 92 94 91 89 86 85 82 81 77 72 69 71 75 79 80 83 85 82 83 84 84 84 85 87 92 96
54 54 56 62 71 74 77 74 74 74 77 78 78 81 86 87 89 89 88 85 80 78 75 71 68 69 70 68 70 73 74 74 79 81 84 83 82 82 79 82 88 91 92
53 54 57 62 64 71 74 75 75 74 76 76 75 78 81 81 80 77 74 71 71 67 65 64 65 65 68 68 70 75 76 77 79 83 88 86 81 82 76 79 83 86 86
50 47 50 55 62 66 72 74 76 76 77 77 77 78 78 75 75 72 69 67 66 67 67 67 68 70 72 73 77 75 74 76 77 80 83 81 78 78 78 79 82 84 83
53 50 50 52 58 64 70 74 75 78 79 79 78 78 76 74 72 71 69 69 66 68 70 70 72 74 75 76 77 77 76 78 77 78 77 75 75 77 83 86 87 86 90
52 53 53 53 58 63 66 73 77 78 80 80 81 80 76 73 72 72 71 71 70 70 72 74 76 76 74 74 78 79 79 79 78 77 75 80 83 82 81 80 86 87 91
56 58 58 57 56 57 59 68 74 80 83 82 81 80 78 78 77 77 76 74 75 76 77 77 78 82 74 80 82 80 80 82 81 84 86 83 81 80 76 74 74 77 89
62 61 61 60 60 61 63 63 67 74 84 84 81 80 78 78 79 78 79 81 82 82 83 81 80 80 77 79 81 83 82 86 91 91 87 76 78 77 81 79 74 74 73
65 64 63 64 62 65 66 67 70 76 84 85 84 82 81 81 82 83 83 84 83 83 84 85 84 83 80 82 83 83 100 100 99 96 87 79 71 75 69 59 62 67 66
67 67 66 67 68 68 67 73 77 78 84 86 86 85 83 83 84 87 88 94 89 90 93 88 92 87 84 82 85 91 87 88 89 80 70 62 59 58 72 62 63 61 70
68 71 68 71 73 67 74 81 78 82 84 82 83 84 85 83 84 85 88 90 87 97 98 96 89 88 84 83 83 86 82 83 84 76 72 76 56 60 67 58 55 56 63
79 75 76 76 73 70 77 82 81 86 78 85 87 88 86 85 82 88 90 93 99 98 98 96 92 86 83 82 82 88 80 80 80 76 70 62 73 65 63 64 56 51 57
69 70 75 81 76 75 82 82 84 79 87 88 90 90 89 86 89 90 93 91 94 96 96 95 94 86 82 86 81 82 83 80 78 76 64 60 72 70 65 66 57 53 64
60 62 68 74 77 80 83 86 80 83 88 91 91 89 89 87 87 89 92 92 89 91 94 91 90 89 84 78 82 78 81 66 60 55 60 68 68 73 67 71 62 59 63
76 79 82 80 81 79 81 82 79 84 90 93 90 88 88 90 87 83 86 89 90 88 89 92 92 89 88 85 79 82 78 78 75 68 66 62 64 65 72 69 71 73 66
86 88 91 91 86 73 74 78 84 89 95 94 92 91 87 91 91 85 86 87 86 84 89 87 88 93 93 88 83 81 84 82 80 76 67 67 69 70 77 70 68 69 75
87 93 95 96 95 82 82 84 87 89 89 94 94 92 91 93 93 96 97 86 88 88 86 87 87 88 81 82 83 83 80 79 78 73 68 66 69 72 70 71 64 60 67

GFSMW_sfc_rhum_102.txt.gz
RH
71 83 96 94 92 79 83 84 83 75 65 67 78 81 78 78 75 70 59 55 54 55 61 59 56 56 53 49 48 51 56 56 54 59 50 48 47 46 47 46 46 53 56
93 92 89 96 98 95 90 88 87 79 76 65 68 75 80 82 77 77 68 62 61 69 62 59 60 57 55 52 53 56 66 60 54 52 53 54 44 46 50 48 50 53 53
94 93 88 90 95 98 95 88 86 88 81 80 75 81 82 86 86 87 80 74 78 80 80 79 77 73 61 60 62 70 71 66 64 58 53 62 53 51 50 55 50 51 53
75 90 85 89 87 90 91 87 84 87 88 85 86 85 86 81 78 82 89 92 85 87 97 97 89 94 93 88 87 90 86 82 82 78 72 64 65 67 53 56 56 53 54
59 70 83 91 94 86 89 86 80 79 85 95 92 95 94 91 86 90 89 94 91 91 97 98 98 98 98 99 99 98 95 95 94 94 83 71 67 65 65 57 52 59 57
57 53 52 55 60 81 94 89 82 78 78 81 90 90 85 86 86 87 92 96 97 97 97 96 95 94 96 98 98 98 96 93 90 85 83 70 50 49 57 58 55 54 56
44 44 44 44 45 51 58 62 79 85 85 86 82 84 83 77 90 87 88 97 98 97 98 95 95 94 92 90 90 93 90 85 86 85 84 82 71 63 61 64 63 66 63
40 43 43 44 43 48 47 46 44 48 56 72 82 85 81 90 84 84 90 94 95 96 92 91 88 93 88 86 84 83 82 80 80 77 76 68 68 68 67 71 74 78 64
38 40 43 49 52 48 47 44 43 45 49 59 67 75 83 84 90 84 85 88 88 90 90 88 85 83 83 76 72 67 73 69 72 76 78 74 70 74 72 76 78 83 76
36 38 39 46 51 54 56 54 47 47 52 59 64 67 68 73 78 84 89 87 82 83 90 87 78 73 70 69 67 64 67 67 71 72 73 72 72 73 73 76 73 77 83
35 35 36 41 47 50 55 55 55 57 60 67 66 66 65 68 70 79 83 84 82 84 82 73 69 68 63 60 60 61 66 67 70 72 70 70 73 72 72 77 77 80 87
36 33 35 35 38 44 50 55 55 56 58 60 61 63 64 69 73 77 81 79 81 77 68 64 60 54 53 53 54 60 64 65 68 70 75 73 73 76 69 69 74 76 81
36 32 32 33 34 38 44 48 53 55 57 58 56 60 65 68 71 72 74 74 72 66 60 56 54 52 53 53 52 53 55 57 57 60 64 67 67 71 64 66 69 74 73
38 38 37 35 35 38 41 43 47 52 58 60 60 58 58 61 64 66 66 66 61 59 56 52 52 55 56 57 58 57 58 60 62 66 65 64 65 65 72 73 74 74 79
43 44 43 39 36 35 36 38 41 48 56 60 62 61 58 58 59 60 60 58 56 54 54 54 57 58 59 60 63 63 63 64 66 67 63 67 73 80 73 68 73 76 81
45 44 43 42 41 40 41 44 43 44 48 57 62 60 62 61 62 61 60 59 58 58 58 58 62 67 58 78 77 68 65 65 65 71 73 73 81 77 77 76 75 74 80
49 47 45 44 44 43 44 44 44 44 48 49 50 59 62 63 63 61 61 63 64 63 65 64 64 66 63 83 82 78 65 71 74 77 79 71 68 73 73 78 76 75 75
45 45 44 47 46 45 45 45 46 48 52 55 54 55 64 67 65 65 65 65 65 68 68 68 67 67 65 83 83 85 93 92 90 84 79 75 74 73 67 54 57 52 53
46 46 45 46 49 50 47 48 51 51 54 59 58 58 60 68 67 72 73 77 75 74 76 70 74 72 69 86 85 85 84 77 78 73 72 66 61 67 69 55 56 49 59
48 49 48 50 50 46 46 51 51 54 56 56 59 61 63 66 67 70 72 76 73 85 83 82 77 78 70 85 85 78 69 68 70 69 68 68 52 58 70 48 46 48 54
50 48 48 48 47 47 52 58 58 63 59 60 63 68 71 76 67 71 71 79 88 84 83 78 72 69 65 71 84 84 68 66 68 69 71 70 70 60 66 62 43 42 49
63 61 63 63 59 60 59 62 65 63 62 63 67 69 75 75 78 78 81 80 81 90 93 84 77 69 66 75 82 85 79 74 68 68 61 59 72 71 67 68 52 55 52
58 64 68 69 73 71 76 76 69 59 60 64 65 67 71 74 75 82 82 80 78 82 88 89 87 78 72 71 80 83 87 82 64 58 60 60 70 74 68 67 61 57 54
66 65 70 80 88 76 76 81 71 59 61 66 64 65 74 78 76 76 77 75 80 84 85 84 81 77 79 75 75 76 85 75 59 57 57 58 60 66 63 68 65 58 57
71 70 77 89 88 87 95 90 87 73 69 71 74 77 80 82 80 77 76 74 72 74 78 78 80 84 83 78 75 78 79 80 73 63 54 54 54 58 69 68 67 66 67
72 73 82 89 92 95 95 90 84 79 79 76 80 85 88 89 86 86 89 85 85 86 87 86 84 87 80 82 84 81 82 81 82 75 64 56 56 58 58 62 64 68 70

GFSMW_sfc_rhum_105.txt.gz
RH
60 76 93 90 87 81 95 86 88 90 72 80 79 75 76 70 67 61 59 54 55 57 63 60 58 64 58 52 48 50 51 55 52 56 61 60 44 45 47 46 45 52 54
78 94 97 97 96 96 95 96 92 92 78 75 77 77 77 75 71 68 64 58 57 60 62 61 68 71 72 62 53 52 58 59 58 63 64 58 47 50 49 49 50 51 54
92 97 95 94 96 94 95 94 91 93 84 80 86 81 84 80 83 81 78 72 65 74 75 72 76 79 90 83 78 68 69 79 75 67 57 61 64 54 56 55 51 51 55
91 94 97 94 89 94 98 96 96 95 91 87 86 84 85 85 81 80 84 82 78 84 87 86 88 95 96 94 99 97 93 83 86 81 80 77 74 70 58 61 59 55 53
88 92 95 94 90 95 99 98 96 95 93 92 90 90 87 86 87 88 80 84 87 91 93 91 97 98 99 99 98 99 99 99 99 95 94 87 89 77 78 72 66 62 58
78 84 90 93 93 93 94 94 92 83 85 88 91 93 92 91 92 91 90 94 95 97 96 98 98 98 98 97 97 96 95 98 98 96 92 84 87 86 67 64 58 55 60
70 75 70 66 65 82 92 88 84 83 84 87 90 86 87 86 89 90 93 91 96 98 98 99 99 98 96 96 95 94 90 91 90 85 79 82 73 67 66 70 67 67 62
48 48 49 49 52 58 60 66 76 78 72 78 77 83 80 84 82 87 90 90 93 97 98 98 98 97 95 92 90 86 82 81 83 80 77 76 72 71 72 75 76 77 70
45 45 46 46 46 48 49 50 49 50 53 66 73 76 84 80 84 78 81 94 92 96 96 95 96 91 87 80 76 74 73 69 77 78 79 74 75 77 76 82 82 85 82
37 38 40 43 47 50 51 50 43 42 45 52 56 62 70 80 81 83 89 88 87 88 91 91 87 86 80 78 75 72 73 74 76 76 79 82 81 80 81 85 84 88 88
34 34 37 38 41 45 50 50 50 49 49 56 56 61 63 69 69 79 83 85 85 88 91 87 84 81 74 70 69 65 67 67 71 70 73 72 73 78 77 82 83 82 84
34 33 33 34 35 40 43 48 51 50 53 56 59 60 60 64 67 69 77 80 84 84 87 82 77 73 68 62 60 60 62 62 68 73 74 71 71 79 75 75 79 81 83
35 33 32 33 34 36 38 40 44 50 53 54 54 54 59 61 64 68 76 79 81 84 80 77 74 66 59 57 53 55 59 61 63 65 69 68 72 80 76 74 77 77 72
39 40 38 35 34 33 34 35 37 42 49 54 57 58 56 57 59 66 72 77 78 79 75 72 67 59 55 55 57 57 58 62 61 65 67 65 68 71 76 75 78 74 78
40 39 39 36 34 34 34 36 39 39 41 49 56 59 58 56 57 61 67 70 74 76 71 68 64 58 60 59 63 62 63 65 68 71 66 70 74 82 78 72 78 79 82
41 40 39 38 38 37 39 41 39 38 42 45 47 52 58 59 62 63 63 65 66 64 62 59 65 69 58 75 76 69 66 66 68 76 75 80 84 81 79 78 75 77 78
36 35 36 37 39 40 42 42 41 40 42 45 45 46 51 61 63 62 64 66 67 65 66 64 64 68 64 82 81 78 66 72 76 79 81 78 71 78 76 75 76 77 76
32 33 33 35 36 35 35 37 40 43 47 50 50 50 51 58 65 66 67 68 66 68 68 68 68 69 67 84 83 82 92 92 87 86 83 79 79 76 76 68 75 67 63
36 39 39 40 40 40 39 40 40 40 44 47 51 52 54 56 59 71 73 75 74 75 75 72 75 75 73 88 88 86 93 93 90 81 77 74 72 73 70 64 70 56 65
43 46 47 47 45 44 44 47 47 47 48 48 50 53 56 59 62 65 73 74 74 80 84 83 78 78 75 88 89 85 78 75 77 75 75 72 63 72 72 58 59 64 70
46 47 48 52 52 50 54 61 64 64 56 55 58 60 61 64 64 68 71 78 83 81 84 81 77 72 69 81 86 87 73 72 76 77 74 73 66 64 70 61 54 58 66
48 48 53 54 54 56 63 75 78 74 70 66 64 61 63 64 67 77 77 78 80 81 80 81 77 72 69 78 87 88 78 71 75 77 68 69 78 64 64 72 48 53 56
55 60 64 67 67 68 76 84 73 70 70 72 71 62 55 60 62 75 82 81 76 78 80 79 80 78 71 72 87 87 82 77 76 70 73 74 77 71 70 71 60 58 65
60 62 65 64 66 70 71 78 85 89 90 89 84 69 63 63 63 71 82 83 79 78 80 82 83 80 80 80 81 84 87 82 81 69 74 68 72 75 72 75 69 71 69
63 64 67 67 70 74 75 82 90 94 92 90 89 81 75 74 78 81 82 82 72 73 76 79 79 84 87 82 80 84 90 86 73 64 68 69 71 80 81 81 80 77 77
64 67 69 72 72 77 76 79 83 95 95 95 91 84 83 87 91 94 92 86 83 81 82 82 78 79 80 84 86 85 86 82 69 63 63 63 65 70 76 81 81 79 77

GFSMW_sfc_rhum_108.txt.gz
RH
64 72 88 96 96 90 91 95 96 95 88 86 85 85 82 80 80 76 70 73 74 73 74 77 72 71 64 68 65 66 67 72 72 72 68 64 62 62 67 65 67 69 71
70 94 97 97 96 98 96 97 94 86 80 85 88 90 89 84 80 79 74 71 72 77 76 79 83 81 83 79 69 64 74 76 76 81 88 86 67 74 64 69 65 73 74
86 93 96 97 97 98 98 98 95 96 94 93 86 91 93 94 94 91 86 82 75 79 82 84 88 94 96 98 98 97 88 89 91 91 90 84 82 81 76 73 73 71 78
93 92 94 96 98 97 96 97 97 97 96 93 95 95 93 92 94 92 93 93 89 90 88 94 95 95 96 97 98 99 98 98 97 96 92 93 90 85 76 76 72 70 70
95 96 96 94 95 97 98 97 98 98 99 97 94 97 96 96 94 96 91 92 94 94 94 95 96 96 98 97 97 98 98 98 98 99 99 91 94 93 95 93 81 77 76
97 96 94 92 96 96 98 96 96 97 98 98 97 97 95 92 97 96 97 98 97 97 97 97 98 98 98 98 98 98 97 98 98 97 98 96 91 94 90 87 76 75 83
96 97 98 98 98 98 96 98 98 97 96 96 94 95 95 96 96 93 94 98 99 99 99 99 99 99 98 98 98 98 98 98 98 96 96 88 83 80 78 77 78 74 80
90 87 74 70 67 80 96 97 95 94 91 93 91 91 89 90 95 92 93 95 96 97 97 98 98 98 98 98 99 99 99 95 93 91 92 90 85 81 80 81 83 87 85
73 57 59 60 59 58 58 68 76 79 85 81 85 89 87 90 93 90 91 91 90 95 99 98 98 99 99 98 97 95 89 85 88 91 88 88 87 84 84 85 87 89 91
48 51 54 59 63 66 65 61 56 53 55 59 75 83 92 94 95 97 97 97 97 98 98 98 98 99 96 92 88 85 84 87 93 92 92 91 87 88 89 94 92 91 92
45 44 49 51 54 58 65 65 64 63 65 70 75 76 81 86 92 94 96 96 96 96 97 98 96 92 87 81 84 84 83 84 89 88 91 92 88 93 94 93 91 94 94
45 44 46 46 49 52 55 61 64 66 67 68 70 72 75 80 84 84 91 93 96 95 95 93 90 88 84 79 79 79 83 83 86 84 86 86 84 90 91 94 93 93 92
47 47 46 47 48 48 48 50 57 64 67 68 70 70 73 77 81 85 90 88 93 94 93 91 89 85 80 77 77 75 75 77 81 83 84 84 87 92 93 91 93 94 85
47 49 50 49 48 47 48 51 52 53 58 65 73 75 74 73 75 81 90 91 90 93 91 87 83 79 74 73 79 70 74 76 77 79 81 81 85 90 92 90 91 85 88
46 49 52 53 51 52 54 54 53 53 55 58 63 71 75 74 74 78 87 91 91 87 84 83 82 80 79 76 77 70 74 76 78 81 78 82 86 86 84 85 88 86 89
40 40 41 43 47 52 49 49 55 57 58 60 62 60 64 76 79 80 83 89 91 91 87 84 82 82 76 86 83 74 76 77 80 88 86 88 85 84 80 80 80 82 86
35 37 40 42 47 48 47 49 48 48 54 62 62 63 63 67 80 80 83 86 91 89 89 82 76 78 78 86 82 80 78 83 88 90 92 90 85 90 91 80 78 78 78
40 44 48 50 51 49 48 47 48 50 53 56 55 62 69 72 74 85 87 88 89 87 84 80 78 77 76 85 84 83 90 93 92 92 93 92 93 91 90 92 91 87 84
50 53 58 58 58 59 58 60 62 63 65 63 60 59 62 70 77 82 89 91 90 90 90 84 83 82 81 84 85 88 94 92 93 93 92 87 92 83 80 83 81 71 76
56 59 60 59 62 63 62 66 66 67 68 70 70 67 67 70 74 78 87 91 91 90 94 92 90 83 87 87 87 88 88 93 94 93 92 82 84 79 78 70 68 79 85
59 61 68 71 72 71 68 72 71 72 68 71 70 71 71 72 70 74 82 86 92 91 93 91 93 88 85 90 89 86 80 82 89 91 91 89 75 76 77 65 68 73 82
66 70 75 75 72 69 67 73 78 73 73 75 83 83 76 70 68 74 80 91 85 93 94 94 90 85 85 87 90 88 81 78 83 86 80 81 77 73 78 68 58 56 75
68 72 76 75 72 71 68 76 78 75 76 80 87 88 84 81 76 71 66 69 81 86 87 89 88 87 82 88 89 90 84 80 80 77 78 80 79 71 71 74 56 58 82
72 73 75 75 71 64 65 69 70 71 80 87 94 92 90 87 81 70 74 78 83 83 86 88 88 85 84 84 88 88 88 81 80 82 83 79 84 74 84 82 70 81 78
68 71 74 67 67 66 67 66 70 69 77 82 87 93 95 89 88 82 77 75 77 79 84 86 84 86 86 81 86 89 91 86 83 86 85 91 94 93 92 94 85 85 82
68 71 78 67 68 68 68 69 68 70 80 87 91 94 95 96 95 90 88 88 88 87 90 89 82 78 77 80 88 90 91 88 77 77 79 81 86 92 90 92 90 88 82

GFSMW_sfc_rhum_111.txt.gz
RH
67 76 90 97 93 92 89 96 97 96 97 96 98 96 84 86 85 79 69 73 72 73 75 78 79 79 73 69 70 72 72 74 74 76 78 69 62 75 64 69 78 78 80
73 93 90 98 97 98 96 98 96 95 96 98 96 92 95 95 90 86 80 73 80 78 74 77 85 85 83 80 74 72 77 75 76 82 86 82 75 69 67 77 76 83 84
75 96 94 98 97 97 97 97 97 93 94 95 94 93 92 93 93 94 93 88 83 84 83 86 91 92 92 96 94 92 87 91 96 96 90 92 85 85 79 79 76 82 89
94 94 97 99 97 97 98 97 97 94 93 94 96 94 92 91 94 97 94 93 91 90 93 93 95 96 97 98 98 98 97 97 96 99 96 96 92 80 87 80 75 73 81
95 94 97 94 97 98 98 98 98 97 99 98 96 97 97 98 97 96 94 94 94 92 94 97 97 96 99 97 96 97 96 97 97 98 99 98 99 98 95 94 82 79 79
93 95 96 96 98 95 98 98 97 98 98 98 97 96 95 97 98 96 97 97 98 98 96 95 97 97 97 98 97 96 96 96 97 98 97 96 94 93 93 94 89 84 82
97 96 97 99 99 97 98 97 99 98 99 99 99 98 96 98 98 98 98 98 98 99 98 99 99 98 97 97 97 97 98 98 98 97 98 97 90 88 83 81 80 77 85
92 92 92 90 81 93 98 98 98 97 98 97 98 98 98 97 97 96 95 97 96 95 98 98 98 97 98 98 98 98 97 97 98 98 98 95 92 82 85 87 87 86 85
82 83 73 67 67 64 76 91 92 90 92 95 95 96 97 97 98 97 95 93 94 96 96 95 94 96 98 98 98 98 98 98 98 97 93 90 89 87 85 86 84 82 87
66 62 58 60 66 70 70 66 58 61 62 73 92 88 89 91 92 92 94 93 89 91 93 96 96 97 98 98 98 98 97 97 96 94 93 92 92 90 91 92 91 90 88
47 48 50 52 56 63 68 70 72 73 76 77 80 82 87 89 97 98 97 97 95 98 98 98 98 98 98 98 98 95 92 92 94 91 90 90 88 92 92 94 94 94 94
50 48 50 52 54 56 56 63 66 70 72 71 73 74 76 80 86 88 95 95 97 98 98 99 99 98 96 91 92 91 90 90 90 89 93 94 92 94 94 96 96 96 96
52 54 53 55 55 56 55 55 57 58 64 68 74 75 76 78 81 86 91 93 96 98 98 97 97 96 93 89 86 83 84 85 86 88 90 89 92 95 96 96 96 96 93
52 50 51 58 57 60 56 55 57 58 60 61 65 69 75 78 78 80 89 94 94 97 97 96 94 92 91 88 85 80 84 87 88 86 84 85 87 90 94 94 95 94 96
43 44 45 49 52 53 51 50 54 56 60 62 65 67 67 73 82 80 82 92 94 95 96 96 95 91 86 83 85 83 86 84 87 87 84 87 89 89 89 90 95 94 96
40 43 45 48 53 59 55 53 55 56 57 61 64 65 67 69 72 82 87 89 94 95 95 92 92 89 83 86 89 82 83 80 79 86 90 92 91 89 87 85 87 86 92
46 52 56 60 62 62 58 64 64 62 63 63 60 59 61 66 73 77 86 90 91 94 96 94 89 88 83 88 90 87 82 86 86 86 90 90 85 90 92 85 84 84 82
59 62 68 68 69 68 68 66 66 70 73 75 74 72 71 72 71 74 82 86 92 92 94 94 93 88 85 88 90 91 91 92 90 87 88 88 92 94 92 94 94 92 90
61 64 65 63 67 63 65 67 68 66 67 69 70 74 75 78 79 82 86 88 90 90 92 92 91 91 86 87 89 88 88 90 88 85 85 84 89 88 86 91 93 85 81
60 61 62 66 72 76 72 71 72 74 73 72 77 72 74 80 81 79 78 79 81 87 87 91 90 86 86 88 88 88 85 90 92 90 91 85 84 85 85 87 81 82 84
62 70 76 81 81 76 75 77 70 71 70 74 74 77 77 83 81 86 79 80 83 85 88 91 86 91 83 88 86 87 82 83 90 94 96 91 83 84 85 78 72 74 82
72 73 81 82 80 78 69 67 74 70 73 75 76 77 75 76 78 84 85 86 82 80 89 92 90 87 82 85 88 86 83 81 88 92 88 88 86 86 86 75 69 66 78
73 76 81 83 82 77 66 69 66 65 70 70 71 73 76 75 75 85 85 88 83 74 74 81 89 88 86 87 86 88 87 86 85 81 83 85 86 84 86 76 67 64 86
72 77 82 87 85 77 65 64 63 61 67 68 69 73 78 79 78 79 82 88 87 80 79 83 91 86 91 88 89 90 90 85 84 84 87 86 83 81 86 81 68 83 81
70 74 79 85 81 76 79 75 70 66 70 72 74 75 76 78 82 79 82 88 86 85 82 83 85 91 92 89 87 90 93 88 86 87 90 93 94 88 88 90 80 80 79
74 76 80 83 82 78 80 77 74 68 74 81 78 78 77 81 83 86 90 88 92 90 90 91 86 82 80 83 89 92 89 88 88 90 92 94 97 90 87 93 83 78 75

GFSMW_sfc_rhum_114.txt.gz
RH
41 65 90 96 94 92 94 95 96 93 94 94 95 96 96 87 78 72 70 64 64 65 67 71 72 73 72 71 73 76 76 79 74 77 82 78 72 68 68 71 83 85 90
66 77 93 95 97 96 96 98 96 94 94 97 93 91 90 89 84 77 70 67 71 70 66 75 81 82 85 81 74 74 82 79 82 84 90 90 78 76 73 80 78 87 93
72 88 96 96 96 97 94 98 95 96 95 96 97 92 88 93 92 90 83 76 75 78 78 81 86 89 88 87 85 84 84 90 97 91 89 95 88 86 81 80 78 92 95
73 94 95 96 98 97 98 96 98 96 95 97 99 92 92 92 96 82 86 93 91 88 88 88 90 92 95 96 95 97 96 96 98 99 97 91 86 90 92 83 82 82 87
90 96 94 94 96 97 98 96 97 95 96 98 98 98 98 99 99 97 96 98 98 97 96 97 97 97 98 97 98 99 99 99 98 98 99 99 99 98 94 97 94 85 82
95 94 93 95 97 96 94 96 98 95 95 98 97 97 97 99 98 96 97 98 99 99 98 98 98 98 99 99 98 98 98 97 97 98 97 97 98 99 95 90 86 89 91
97 97 98 98 96 97 97 97 96 97 94 97 98 97 96 97 97 98 98 96 97 97 97 99 99 98 97 98 98 97 97 97 97 96 97 96 95 93 90 91 89 86 90
96 96 93 94 94 95 96 98 98 98 98 99 99 99 98 98 97 96 98 98 98 96 96 98 99 99 99 99 98 97 95 95 96 97 98 97 95 89 87 92 95 95 94
94 94 92 86 79 73 80 92 95 97 97 97 98 99 99 99 98 98 98 98 96 95 96 96 96 96 96 98 98 98 97 97 96 97 98 97 94 88 89 84 87 90 95
79 71 72 71 65 68 71 72 70 74 76 82 88 98 98 98 98 98 98 98 95 95 97 96 94 93 95 95 96 96 97 98 97 96 98 97 94 90 86 89 92 89 86
63 59 53 53 56 55 58 62 67 69 72 73 75 77 85 93 97 98 98 96 93 96 96 92 92 94 94 94 95 95 93 98 96 98 99 96 92 91 91 96 95 94 92
55 56 56 56 56 56 55 56 56 57 60 64 68 73 74 76 80 85 90 96 99 98 98 98 97 95 97 96 98 98 98 98 98 97 98 96 95 95 96 96 95 96 94
52 51 53 53 53 50 48 50 52 54 53 57 62 64 69 74 78 80 82 92 96 97 98 99 98 98 98 98 98 97 97 97 96 95 94 94 94 96 95 97 97 97 98
47 48 50 54 55 53 53 53 53 53 54 55 59 61 64 69 74 80 82 86 93 96 97 98 98 97 97 97 95 94 94 93 92 91 91 92 91 92 96 96 97 97 98
46 49 54 59 62 65 63 61 61 61 61 62 63 64 63 63 66 69 73 80 89 93 96 97 97 97 97 96 96 94 91 93 92 93 90 91 92 92 90 93 97 97 98
52 58 62 70 73 78 71 68 69 69 69 72 73 70 68 69 72 71 74 78 84 90 94 96 96 96 97 96 95 92 91 90 92 95 94 92 94 91 90 88 89 89 92
58 64 72 70 71 72 71 74 74 74 76 79 76 75 76 78 76 75 78 80 82 84 91 91 93 94 94 93 93 93 90 92 92 91 93 93 93 90 92 90 90 89 85
65 67 72 73 72 74 76 77 76 76 78 80 80 79 81 79 79 84 84 83 83 85 85 86 89 93 92 92 92 93 93 94 93 93 92 89 95 95 94 94 95 94 94
68 71 72 74 80 84 77 74 72 75 76 76 80 76 76 80 74 75 76 80 86 86 86 83 88 91 90 91 91 94 96 97 97 95 94 91 90 91 91 94 95 96 93
69 74 79 78 76 77 72 73 71 72 76 75 77 74 77 76 76 76 77 78 82 83 84 85 84 85 91 86 90 92 94 97 97 97 97 93 93 91 92 90 91 96 92
68 79 82 85 84 78 76 78 74 77 72 71 73 74 74 72 73 76 77 80 82 86 88 84 82 83 89 90 90 87 90 92 93 95 97 95 89 88 90 86 86 87 81
69 72 82 82 79 78 78 74 76 72 66 67 72 72 69 66 67 74 77 77 80 82 84 85 82 78 86 91 87 89 89 86 88 91 88 90 93 94 91 88 80 75 78
72 77 84 84 85 86 84 69 70 65 60 63 71 68 64 65 67 75 76 75 75 81 81 87 86 77 76 88 89 87 88 89 86 83 85 90 94 94 94 87 79 75 87
73 75 83 89 90 86 82 80 77 73 72 66 66 70 74 76 72 72 73 74 75 78 81 85 85 79 80 84 92 93 89 90 90 90 93 94 94 92 92 91 85 86 83
73 75 82 85 88 85 86 84 82 83 79 71 75 77 77 78 77 72 76 79 74 79 92 95 91 94 92 90 86 90 92 93 92 94 97 98 98 98 98 95 88 88 84
79 81 82 86 87 86 87 85 86 87 72 73 75 76 76 77 79 81 80 74 77 84 89 91 94 88 90 88 88 89 89 92 94 96 97 97 96 97 97 96 85 85 84

GFSMW_sfc_rhum_117.txt.gz
RH
47 53 58 70 93 94 93 94 97 97 96 96 96 95 96 90 87 80 76 81 80 82 89 79 78 80 82 81 80 78 82 80 82 79 81 81 77 76 77 76 75 80 86
62 56 72 94 94 93 96 96 96 95 96 95 93 93 89 90 87 82 82 85 86 91 93 79 80 82 83 80 76 74 87 80 83 84 92 89 84 84 81 84 83 89 95
70 70 91 96 95 96 95 90 95 95 96 96 95 93 91 93 93 91 89 82 81 86 88 85 81 84 84 86 84 81 86 90 94 90 88 96 93 90 86 86 88 93 98
75 76 92 94 94 95 95 96 94 98 97 97 97 98 96 93 90 91 91 90 91 89 88 88 87 86 88 91 90 93 91 92 94 98 98 94 89 91 94 90 92 94 93
78 81 92 90 94 95 97 97 96 97 97 97 97 98 98 95 96 97 96 96 93 91 91 88 89 91 92 92 96 98 98 98 98 99 99 99 99 98 95 97 98 96 96
86 92 92 96 96 93 94 94 96 94 98 97 96 97 99 98 98 99 99 99 99 99 98 99 98 95 96 98 98 98 98 99 99 99 99 98 98 98 98 96 96 93 91
97 96 95 94 92 93 93 92 96 94 98 98 97 97 99 98 98 99 99 99 99 98 98 99 99 99 99 98 98 99 99 99 99 98 98 96 93 94 95 94 92 92 92
96 97 97 96 95 93 93 94 97 98 97 99 98 97 98 98 98 99 99 99 99 99 97 95 97 99 99 99 99 99 98 97 98 97 97 93 92 93 94 94 94 98 98
94 93 89 90 89 91 91 92 91 93 96 97 96 99 99 99 99 99 99 99 98 98 98 98 96 95 97 99 99 99 98 99 97 96 95 95 92 94 91 90 86 84 97
88 81 75 69 60 62 64 65 63 68 76 81 86 94 99 99 98 99 99 99 98 98 97 96 96 97 97 96 97 96 96 98 97 96 95 95 93 96 94 93 90 90 94
65 59 55 50 48 46 49 50 50 52 56 60 61 64 74 77 84 92 94 98 97 96 97 94 95 96 95 93 95 94 92 96 95 92 95 95 94 96 94 96 91 92 93
52 50 50 51 51 52 51 53 54 54 55 55 58 59 61 62 65 71 76 82 90 94 99 97 97 96 95 94 94 93 95 97 96 95 98 97 96 97 97 97 94 90 93
48 53 56 58 60 60 59 59 59 60 59 59 60 60 62 63 66 69 73 74 81 90 94 97 98 98 98 98 98 96 96 96 96 95 96 96 97 98 97 96 95 97 97
50 54 61 67 72 67 65 64 64 66 67 65 67 69 69 69 70 71 71 73 77 83 85 90 95 95 95 98 98 98 98 98 98 97 97 96 97 95 97 98 98 98 97
53 61 67 73 75 77 74 72 71 71 72 73 75 76 77 77 76 74 74 74 76 78 81 85 87 92 93 91 98 98 98 98 98 97 97 96 95 95 92 94 98 97 98
59 64 68 73 77 85 81 76 75 76 75 78 79 76 78 76 75 76 77 78 82 84 83 84 85 89 86 89 96 98 97 98 97 97 97 96 98 98 96 93 92 89 94
67 72 73 75 78 80 80 82 81 78 78 82 80 82 82 80 79 76 77 81 84 84 87 86 87 85 83 85 90 94 96 97 97 96 97 98 97 97 95 93 94 90 86
68 73 76 79 78 79 84 86 82 81 83 84 86 82 80 81 70 71 73 74 73 77 82 85 85 87 81 82 84 90 95 96 96 96 96 96 96 97 97 97 98 96 94
69 74 77 80 86 88 85 83 82 82 84 81 80 78 80 82 74 77 76 75 76 81 81 74 84 89 86 83 86 87 92 96 98 94 95 95 96 94 96 97 97 99 99
72 77 86 84 87 88 88 85 83 82 78 75 74 76 78 78 72 70 71 75 75 78 76 77 75 74 87 82 82 85 91 85 96 97 97 96 95 94 97 96 98 98 98
77 85 86 87 87 85 83 80 76 78 73 68 66 68 71 74 72 71 70 72 73 72 77 75 74 72 78 81 82 84 90 88 95 98 98 97 95 93 96 93 96 95 97
75 78 82 83 84 84 80 81 84 75 71 68 70 68 65 64 66 72 73 72 71 73 70 71 74 72 74 82 80 83 89 89 91 96 93 94 95 94 96 94 92 93 93
72 77 82 84 83 85 85 88 83 79 75 75 77 67 63 63 64 70 69 69 67 70 72 71 75 77 72 72 77 82 88 89 92 88 88 90 94 95 96 94 93 93 96
72 76 80 83 87 86 86 88 87 76 84 88 75 65 67 72 73 72 67 70 75 77 78 77 75 79 81 77 77 81 92 90 92 91 92 91 94 96 95 97 95 96 91
75 77 83 85 86 87 89 88 88 86 93 84 75 73 72 74 74 69 71 73 72 74 80 92 95 96 95 90 82 82 86 91 91 93 98 99 98 98 98 98 98 97 93
79 84 84 87 89 89 90 89 89 92 94 81 76 78 80 81 78 79 75 70 74 74 73 77 76 90 92 93 92 90 88 91 93 98 98 98 98 97 97 98 98 97 95